Date StartTime U_cm/s V_cm/s W_cm/s Ustd_cm/s Vstd_cm/s Wstd_cm/s Uvar_(cm/s)^2 Vvar_(cm/s)^2 Wvar_(cm/s)^2 KE_(m/s)^2 TurbulentKE_(m/s)^2 HorizWindSpeed_cm/s FrictionSpeec_cm/s DragCoef SpeedOfSound_m/s SonicTemperature_C Pressure_mb 
01/13/2014  00:00:00     -133.203      -26.526       -4.587       33.254       26.085       21.747     1105.845      680.449      472.946        1.036        0.113      135.819       20.082        0.022      331.948        0.293      874.222
01/13/2014  00:01:00     -118.723      -65.011        0.884       51.451       53.186       25.909     2647.232     2828.747      671.293        1.223        0.307      135.357       24.536        0.033      331.901        0.216      874.189
01/13/2014  00:02:00     -160.157      -42.025        0.380       51.465       41.425       26.488     2648.682     1716.039      701.606        1.624        0.253      165.578       19.916        0.014      331.810        0.066      874.142
01/13/2014  00:03:00     -139.140      -59.901       -1.182       64.472       60.843       34.800     4156.600     3701.922     1211.038        1.601        0.453      151.487       36.058        0.057      331.873        0.168      874.088
01/13/2014  00:04:00     -118.660      -87.045        4.707       71.408       63.626       31.164     5099.103     4048.274      971.191        1.590        0.506      147.163       40.549        0.076      331.913        0.232      874.037
01/13/2014  00:05:00     -139.839      -91.943       -9.606       88.782       47.907       37.916     7882.291     2295.090     1437.636        1.986        0.581      167.357       40.586        0.059      331.899        0.209      874.020
01/13/2014  00:06:00     -105.172      -39.541        6.149       55.292       50.399       32.084     3057.191     2540.068     1029.409        0.964        0.331      112.359       31.443        0.078      331.858        0.145      874.048
01/13/2014  00:07:00     -138.365      -13.557        1.785       68.500       38.067       34.344     4692.184     1449.100     1179.486        1.333        0.366      139.028       35.482        0.065      331.717       -0.088      874.085
01/13/2014  00:08:00     -138.639      -10.762       -0.697       75.851       42.430       35.392     5753.313     1800.274     1252.614        1.407        0.440      139.056       37.813        0.074      331.695       -0.124      874.097
01/13/2014  00:09:00     -123.183      -33.832       11.938       61.489       50.538       31.547     3780.837     2554.088      995.191        1.189        0.367      127.745       31.660        0.061      331.707       -0.104      874.085
01/13/2014  00:10:00     -161.049      -38.544       -3.293       54.835       42.106       30.143     3006.827     1772.931      908.594        1.656        0.284      165.597       30.568        0.034      331.723       -0.079      874.059
01/13/2014  00:11:00     -135.893      -64.538        0.807       52.115       51.147       31.022     2716.000     2616.011      962.368        1.446        0.315      150.440       30.464        0.041      331.782        0.019      874.022
01/13/2014  00:12:00     -118.666      -42.553        1.441       28.621       40.576       24.817      819.138     1646.382      615.861        0.949        0.154      126.065       18.354        0.021      331.860        0.148      873.987
01/13/2014  00:13:00      -86.195      -42.668       -1.923       32.459       30.844       18.821     1053.572      951.379      354.242        0.581        0.118       96.178       14.788        0.024      331.929        0.261      873.957
01/13/2014  00:14:00      -65.862      -47.016       -2.588       34.206       32.791       16.680     1170.034     1075.225      278.213        0.454        0.126       80.922       17.612        0.047      331.948        0.293      873.960
01/13/2014  00:15:00      -47.049      -18.509        3.513       34.653       26.127       17.133     1200.801      682.639      293.549        0.237        0.109       50.559       17.910        0.125      331.862        0.150      873.966
01/13/2014  00:16:00      -60.651      -16.357       -7.705       18.998       22.293       13.980      360.905      496.978      195.433        0.253        0.053       62.818       13.577        0.047      331.761       -0.015      873.979
01/13/2014  00:17:00      -25.698       -5.005        3.355       18.781       11.816        8.883      352.745      139.617       78.912        0.063        0.029       26.181       10.086        0.148      331.759       -0.019      873.992
01/13/2014  00:18:00      -20.251       -7.618       -0.793       19.896       17.219        9.934      395.848      296.497       98.682        0.063        0.040       21.636        7.708        0.127      331.841        0.117      873.991
01/13/2014  00:19:00      -46.549       -1.012       -1.191       22.216       16.390       12.451      493.535      268.636      155.024        0.154        0.046       46.560        6.424        0.019      331.868        0.160      873.980
01/13/2014  00:20:00      -33.654      -23.030       -4.177       12.983       13.913        7.735      168.563      193.558       59.837        0.105        0.021       40.779        8.481        0.043      331.896        0.206      873.936
01/13/2014  00:21:00      -51.021       -8.247       -0.639       15.237       24.237        9.852      232.158      587.440       97.060        0.179        0.046       51.684        7.241        0.020      331.875        0.172      873.907
01/13/2014  00:22:00      -63.763      -11.728       -6.473       11.743       16.547       11.042      137.906      273.790      121.926        0.239        0.027       64.832        6.518        0.010      331.875        0.172      873.898
01/13/2014  00:23:00      -51.508      -34.195       -0.774        9.853       15.042        6.566       97.080      226.269       43.108        0.209        0.018       61.825        4.259        0.005      331.851        0.133      873.899
01/13/2014  00:24:00      -71.493      -34.905      -13.310       14.897        8.961        8.595      221.928       80.291       73.870        0.344        0.019       79.559        7.330        0.008      331.900        0.213      873.885
01/13/2014  00:25:00      -88.968      -16.054      -10.766       17.243       13.766       11.485      297.318      189.492      131.902        0.445        0.031       90.405       10.943        0.015      331.890        0.196      873.845
01/13/2014  00:26:00      -79.797      -10.207       -7.380       21.814       12.993       11.045      475.847      168.817      121.994        0.365        0.038       80.447        7.431        0.009      331.894        0.203      873.808
01/13/2014  00:27:00      -98.404      -30.365      -11.873       15.139       15.045       11.388      229.176      226.359      129.677        0.567        0.029      102.983        9.522        0.009      331.866        0.158      873.779
01/13/2014  00:28:00      -74.453      -18.759       -4.764       29.894       21.076       15.783      893.623      444.191      249.116        0.375        0.079       76.780       15.313        0.040      331.758       -0.019      873.754
01/13/2014  00:29:00      -54.656      -10.033       -3.076       24.790       21.050       11.252      614.556      443.116      126.614        0.214        0.059       55.569       10.882        0.038      331.777        0.011      873.744
01/13/2014  00:30:00      -36.823        0.880       -3.838       16.687       20.596       10.171      278.443      424.208      103.441        0.109        0.040       36.834        9.688        0.069      331.818        0.076      873.734
01/13/2014  00:31:00      -27.854       -1.883        0.731       15.386       12.659       10.262      236.734      160.238      105.300        0.064        0.025       27.917       10.459        0.140      331.867        0.158      873.738
01/13/2014  00:32:00      -63.919        2.574      -10.114       10.158       11.229       10.213      103.178      126.097      104.297        0.226        0.017       63.970        4.958        0.006      331.974        0.336      873.738
01/13/2014  00:33:00      -55.623       -2.515       -5.985       20.193       19.365        7.278      407.776      374.987       52.976        0.199        0.042       55.680        8.443        0.023      331.908        0.226      873.732
01/13/2014  00:34:00      -44.570      -22.065       -5.690       12.662       18.373        9.987      160.322      337.554       99.741        0.155        0.030       49.732        7.950        0.026      331.915        0.238      873.721
01/13/2014  00:35:00      -21.312      -21.310       -2.824       18.257       14.263       11.089      333.305      203.434      122.973        0.079        0.033       30.139        9.805        0.106      331.930        0.261      873.731
01/13/2014  00:36:00        1.732       -9.017        9.467       18.387       14.831       14.827      338.089      219.961      219.838        0.048        0.039        9.182       13.288        2.094      331.824        0.087      873.744
01/13/2014  00:37:00      -69.400      -43.365       -4.677       18.520       15.328       14.206      343.003      234.957      201.800        0.375        0.039       81.835        9.918        0.015      331.714       -0.093      873.748
01/13/2014  00:38:00      -80.270      -33.552       -5.426       14.550       13.851       10.507      211.707      191.837      110.389        0.406        0.026       87.000        7.309        0.007      331.676       -0.155      873.756
01/13/2014  00:39:00      -19.284      -23.655        6.648       33.135       16.235       13.942     1097.907      263.563      194.382        0.127        0.078       30.519       15.738        0.266      331.699       -0.117      873.767
01/13/2014  00:40:00       -3.519       -3.716       10.968       19.939        9.028       10.738      397.566       81.506      115.305        0.037        0.030        5.118       10.179        3.955      331.678       -0.152      873.782
01/13/2014  00:41:00      -20.986      -17.121        0.823       21.271       12.476        9.583      452.476      155.647       91.826        0.072        0.035       27.083        6.484        0.057      331.693       -0.126      873.793
01/13/2014  00:42:00      -21.798      -27.138       -2.633       19.545       15.039       10.663      382.020      226.174      113.695        0.097        0.036       34.808        8.143        0.055      331.786        0.025      873.795
01/13/2014  00:43:00      -10.134      -12.125        5.607       21.704       17.115       13.693      471.073      292.935      187.485        0.062        0.048       15.803       16.430        1.081      331.729       -0.066      873.805
01/13/2014  00:44:00       -8.272        4.507       12.079       10.186        5.517        6.778      103.763       30.433       45.947        0.021        0.009        9.420        3.409        0.131      331.662       -0.178      873.825
01/13/2014  00:45:00       -6.763      -27.940       -0.038       19.437       25.445       12.084      377.793      647.457      146.017        0.100        0.059       28.747        9.038        0.099      331.791        0.034      873.832
01/13/2014  00:46:00      -14.170      -30.398       -0.780       14.296       23.543       10.143      204.387      554.283      102.876        0.099        0.043       33.538        7.668        0.052      331.845        0.122      873.825
01/13/2014  00:47:00      -36.171      -15.480       -2.520       13.943       16.096        8.480      194.405      259.069       71.910        0.104        0.026       39.344        6.215        0.025      331.737       -0.054      873.818
01/13/2014  00:48:00      -15.029       -4.533        0.514       10.916       12.757        8.323      119.170      162.734       69.268        0.030        0.018       15.698        3.438        0.048      331.768       -0.005      873.811
01/13/2014  00:49:00      -40.210      -17.703       -7.921       17.221        9.989        9.610      296.548       99.789       92.357        0.124        0.024       43.934        6.986        0.025      331.773        0.004      873.810
01/13/2014  00:50:00      -15.618       -3.898        2.209       18.057       10.661        9.205      326.056      113.664       84.726        0.039        0.026       16.097        9.189        0.326      331.777        0.010      873.798
01/13/2014  00:51:00      -27.762       -1.549        2.727       17.902        9.911       11.005      320.466       98.223      121.119        0.066        0.027       27.805        5.777        0.043      331.728       -0.070      873.797
01/13/2014  00:52:00        4.252        7.105       -8.063       13.410        6.572        6.456      179.841       43.190       41.683        0.020        0.013        8.280        3.906        0.222      331.786        0.025      873.808
01/13/2014  00:53:00      -17.214        7.085       11.077       12.509        9.459        9.395      156.484       89.464       88.260        0.040        0.017       18.615        5.484        0.087      331.773        0.004      873.820
01/13/2014  00:54:00       -9.553       17.602       13.734       10.946       10.468       12.092      119.814      109.587      146.228        0.048        0.019       20.027        7.594        0.144      331.755       -0.025      873.842
01/13/2014  00:55:00      -12.948        3.742        8.926        7.035        9.133       11.746       49.484       83.405      137.961        0.027        0.014       13.478        7.895        0.343      331.636       -0.220      873.869
01/13/2014  00:56:00       -2.838       26.959       13.968       10.106       11.731       13.023      102.124      137.618      169.589        0.067        0.020       27.108        5.055        0.035      331.640       -0.213      873.893
01/13/2014  00:57:00       -2.670       31.366       52.373       18.322       19.798       10.010      335.705      391.978      100.209        0.228        0.041       31.480        7.891        0.063      331.628       -0.234      873.909
01/13/2014  00:58:00       -0.438       49.155       71.407       27.048       35.775       27.281      731.578     1279.825      744.251        0.514        0.138       49.157       26.072        0.281      331.556       -0.353      873.914
01/13/2014  00:59:00       35.071      -13.838       45.530       40.998       53.084       34.544     1680.868     2817.961     1193.296        0.459        0.285       37.702       36.320        0.928      331.510       -0.427      873.926
01/13/2014  01:00:00       71.806      -71.156        5.978       52.452       61.600       34.196     2751.220     3794.500     1169.380        0.898        0.386      101.091       43.419        0.184      331.657       -0.186      873.933
01/13/2014  01:01:00       43.626      -37.524       20.235       36.630       53.662       36.880     1341.784     2879.625     1360.122        0.465        0.279       57.544       26.749        0.216      331.638       -0.219      873.927
01/13/2014  01:02:00       53.456      -57.179       17.460       37.819       47.656       28.402     1430.265     2271.067      806.672        0.547        0.225       78.275       27.024        0.119      331.616       -0.254      873.910
01/13/2014  01:03:00       57.895      -44.239        9.099       49.638       52.001       31.945     2463.954     2704.134     1020.501        0.579        0.309       72.862       31.858        0.191      331.616       -0.255      873.893
01/13/2014  01:04:00       39.236      -20.869       28.394       50.293       42.881       37.601     2529.403     1838.756     1413.853        0.428        0.289       44.441       40.020        0.811      331.609       -0.265      873.885
01/13/2014  01:05:00       49.453       15.106       43.801       40.982       45.491       32.358     1679.492     2069.472     1047.022        0.469        0.240       51.708       31.274        0.366      331.567       -0.335      873.912
01/13/2014  01:06:00       36.691        3.809       32.871       27.861       35.628       21.817      776.231     1269.331      475.981        0.248        0.126       36.888       17.012        0.213      331.562       -0.343      873.950
01/13/2014  01:07:00       32.284       17.342       23.827       31.347       26.538       25.313      982.664      704.254      640.734        0.212        0.116       36.647       19.618        0.287      331.503       -0.440      873.977
01/13/2014  01:08:00       26.383       21.599       50.346       22.672       36.719       23.168      514.011     1348.270      536.765        0.305        0.120       34.097       22.560        0.438      331.508       -0.432      873.982
01/13/2014  01:09:00       -7.988       -0.333       40.939       12.448       30.077       16.661      154.952      904.611      277.589        0.154        0.067        7.995       12.542        2.461      331.537       -0.383      873.992
01/13/2014  01:10:00        7.512      -13.811       31.239       16.741       29.489       18.266      280.247      869.606      333.664        0.135        0.074       15.721       15.337        0.952      331.509       -0.431      873.980
01/13/2014  01:11:00       76.340      -83.895       -7.807       36.867       50.792       27.627     1359.145     2579.864      763.239        0.881        0.235      113.429       26.598        0.055      331.575       -0.321      873.962
01/13/2014  01:12:00       50.923      -50.353        2.843       31.458       30.782       24.566      989.625      947.556      603.475        0.384        0.127       71.614       21.962        0.094      331.588       -0.299      873.954
01/13/2014  01:13:00        9.453       -2.737       10.638       29.904       31.714       14.756      894.245     1005.761      217.739        0.116        0.106        9.841        8.047        0.669      331.473       -0.490      873.949
01/13/2014  01:14:00      -45.965      -12.663        1.059       23.250       26.587        9.726      540.572      706.849       94.601        0.181        0.067       47.677        5.647        0.014      331.421       -0.577      873.936
01/13/2014  01:15:00      -60.526       -0.428        3.726       31.749       20.842       14.838     1008.016      434.371      220.170        0.267        0.083       60.528       15.930        0.069      331.357       -0.681      873.934
01/13/2014  01:16:00      -83.008        0.134       -2.961       36.879       24.424       19.699     1360.096      596.526      388.061        0.462        0.117       83.008       21.525        0.067      331.329       -0.727      873.940
01/13/2014  01:17:00      -78.848      -19.032        1.368       31.563       26.710       18.782      996.201      713.443      352.777        0.432        0.103       81.112       17.552        0.047      331.336       -0.714      873.951
01/13/2014  01:18:00      -81.016       -2.011       -9.479       33.652       35.398       21.677     1132.440     1253.042      469.897        0.476        0.143       81.041       13.153        0.026      331.297       -0.778      873.980
01/13/2014  01:19:00      -98.635       26.615       -7.073       32.704       29.057       19.144     1069.533      844.336      366.496        0.638        0.114      102.163       11.967        0.014      331.204       -0.931      873.990
01/13/2014  01:20:00     -126.238       45.801      -10.080       25.555       17.894       13.346      653.071      320.210      178.110        0.964        0.058      134.289        8.510        0.004      331.211       -0.920      873.983
01/13/2014  01:21:00     -132.242       30.345       -6.669       19.828       18.677       13.239      393.143      348.826      175.262        0.969        0.046      135.679        3.595        0.001      331.281       -0.804      873.980
01/13/2014  01:22:00     -100.449       10.625      -10.934       32.086       20.899       15.882     1029.542      436.758      252.241        0.602        0.086      101.009       15.151        0.022      331.241       -0.870      873.967
01/13/2014  01:23:00      -88.621        0.680      -12.277       29.275       26.948       16.844      857.022      726.186      283.734        0.494        0.093       88.624        7.856        0.008      331.191       -0.951      873.946
01/13/2014  01:24:00      -97.158        6.380      -13.816       24.657       35.178       16.574      607.951     1237.487      274.712        0.590        0.106       97.368       11.480        0.014      331.219       -0.906      873.931
01/13/2014  01:25:00      -84.876      -13.808       -4.356       44.293       31.628       24.656     1961.831     1000.316      607.903        0.549        0.179       85.992       24.457        0.081      331.177       -0.977      873.933
01/13/2014  01:26:00      -93.749      -19.914       -9.990       27.400       42.206       18.252      750.758     1781.317      333.132        0.607        0.143       95.841       13.525        0.020      331.115       -1.078      873.964
01/13/2014  01:27:00     -170.479      -15.445      -20.568       36.952       41.395       23.537     1365.467     1713.533      554.010        1.668        0.182      171.177       19.317        0.013      330.963       -1.327      873.995
01/13/2014  01:28:00     -129.019       -5.654      -13.405       35.008       52.719       20.743     1225.543     2779.281      430.287        1.065        0.222      129.143       16.500        0.016      330.900       -1.431      874.035
01/13/2014  01:29:00     -119.503        1.901      -20.269       32.567       58.300       33.511     1060.594     3398.886     1122.960        1.014        0.279      119.518       20.519        0.029      330.875       -1.472      874.075
01/13/2014  01:30:00     -117.140       11.973      -10.055       45.443       45.199       26.295     2065.038     2042.918      691.435        0.938        0.240      117.750       20.866        0.031      330.846       -1.520      874.100
01/13/2014  01:31:00     -129.410       29.468      -21.321       41.245       44.269       26.892     1701.126     1959.711      723.166        1.123        0.219      132.722       23.166        0.030      330.904       -1.424      874.099
01/13/2014  01:32:00     -184.768       14.691      -22.426       42.500       28.086       22.463     1806.225      788.799      504.586        1.898        0.155      185.351       11.368        0.004      330.883       -1.460      874.093
01/13/2014  01:33:00     -151.886       21.043      -16.999       36.772       39.780       24.814     1352.170     1582.468      615.716        1.368        0.178      153.337       20.613        0.018      330.892       -1.444      874.091
01/13/2014  01:34:00     -124.861       30.162      -13.383       22.933       27.984       16.708      525.944      783.103      279.141        0.913        0.079      128.452       10.874        0.007      330.990       -1.284      874.098
01/13/2014  01:35:00      -99.534       22.509      -12.882       26.139       30.022       22.506      683.244      901.339      506.543        0.633        0.105      102.047       12.867        0.016      331.025       -1.226      874.093
01/13/2014  01:36:00      -92.924      -12.608       -6.139       29.024       29.745       24.870      842.406      884.763      618.524        0.559        0.117       93.776       16.184        0.030      331.033       -1.213      874.079
01/13/2014  01:37:00      -73.747       -8.081       -5.748       20.102       41.903       16.911      404.089     1755.833      285.971        0.399        0.122       74.189       15.194        0.042      331.074       -1.144      874.076
01/13/2014  01:38:00      -37.678      -32.514      -14.495       35.855       21.863       21.948     1285.568      477.989      481.733        0.247        0.112       49.767       10.668        0.046      331.141       -1.036      874.089
01/13/2014  01:39:00      -63.626      -21.270       -2.752       17.902       35.040       19.312      320.467     1227.795      372.941        0.321        0.096       67.087       18.462        0.076      331.196       -0.945      874.117
01/13/2014  01:40:00      -29.775       16.502       -2.611       24.223       28.088       12.639      586.773      788.941      159.743        0.135        0.077       34.042       11.995        0.124      331.221       -0.904      874.132
01/13/2014  01:41:00      -75.660       65.683      -13.211       19.755       32.704       14.939      390.241     1069.523      223.181        0.595        0.084      100.193       10.598        0.011      331.473       -0.489      874.128
01/13/2014  01:42:00      -66.946       52.410      -15.535       26.010       31.301       14.092      676.512      979.765      198.575        0.466        0.093       85.021        9.726        0.013      331.462       -0.507      874.126
01/13/2014  01:43:00      -86.746       69.306      -22.101       23.353       52.974       18.473      545.380     2806.193      341.252        0.825        0.185      111.032       19.862        0.032      331.498       -0.449      874.118
01/13/2014  01:44:00      -43.576      -17.934       -2.515       21.617       19.776       13.501      467.312      391.093      182.269        0.163        0.052       47.122        8.659        0.034      331.355       -0.683      874.123
01/13/2014  01:45:00      -61.011      -28.096       -8.204       15.993       12.075        8.107      255.779      145.800       65.725        0.252        0.023       67.169        7.301        0.012      331.213       -0.916      874.154
01/13/2014  01:46:00      -77.739      -24.144      -12.031       15.018       13.850       10.189      225.553      191.813      103.819        0.365        0.026       81.402        8.777        0.012      331.223       -0.901      874.182
01/13/2014  01:47:00      -64.902      -15.181       -8.191       16.573       25.269       11.760      274.677      638.535      138.295        0.278        0.053       66.654        5.894        0.008      331.229       -0.890      874.188
01/13/2014  01:48:00      -70.090       18.096       -8.373       19.536       22.996       14.335      381.656      528.834      205.488        0.321        0.056       72.388       11.761        0.026      331.289       -0.793      874.184
01/13/2014  01:49:00      -69.418       73.063      -18.945       25.598       36.103       18.048      655.263     1303.439      325.723        0.640        0.114      100.782       19.408        0.037      331.652       -0.196      874.178
01/13/2014  01:50:00      -46.525       85.022      -12.990       29.465       31.999       20.464      868.174     1023.909      418.757        0.594        0.116       96.919       18.652        0.037      331.794        0.039      874.180
01/13/2014  01:51:00      -62.462      120.324      -17.537       41.345       35.833       24.612     1709.389     1284.011      605.731        1.114        0.180      135.570       20.414        0.023      331.707       -0.106      874.198
01/13/2014  01:52:00      -51.373      124.966       -9.409       34.252       49.257       25.161     1173.216     2426.247      633.095        1.129        0.212      135.114       21.676        0.026      331.852        0.135      874.224
01/13/2014  01:53:00      -45.088       23.480        0.961       33.714       26.634       16.157     1136.655      709.393      261.044        0.235        0.105       50.836       15.399        0.092      331.659       -0.184      874.257
01/13/2014  01:54:00       -9.592       82.425       -8.435       49.982       49.121       18.925     2498.239     2412.836      358.160        0.611        0.263       82.982       15.230        0.034      331.842        0.119      874.301
01/13/2014  01:55:00        6.682       71.455       -7.657       22.716       25.655       19.251      516.020      658.188      370.609        0.338        0.077       71.767       16.242        0.051      331.780        0.015      874.342
01/13/2014  01:56:00      -24.107       37.255        0.208       30.970       50.627       20.166      959.140     2563.103      406.665        0.295        0.196       44.375       23.847        0.289      331.745       -0.042      874.368
01/13/2014  01:57:00       -5.013       11.160       -2.561       16.448       15.426       11.372      270.528      237.959      129.325        0.040        0.032       12.235       10.071        0.678      331.767       -0.006      874.387
01/13/2014  01:58:00       11.130        9.409        9.888       12.096        9.018        9.332      146.315       81.332       87.084        0.031        0.016       14.574        6.132        0.177      331.728       -0.069      874.387
01/13/2014  01:59:00        7.817       16.301       -2.535        9.900        8.984       12.808       98.008       80.709      164.038        0.034        0.017       18.078        6.130        0.115      331.724       -0.075      874.391
01/13/2014  02:00:00      -24.225        6.080       -0.915       14.571        9.839        9.561      212.302       96.801       91.416        0.051        0.020       24.977        5.894        0.056      331.680       -0.148      874.392
01/13/2014  02:01:00      -31.103        3.916       -5.930        9.183        8.018        6.025       84.319       64.291       36.299        0.060        0.009       31.349        4.325        0.019      331.636       -0.221      874.394
01/13/2014  02:02:00       -1.483       -7.804        5.336       15.051        7.685        9.829      226.539       59.065       96.609        0.024        0.019        7.944        7.276        0.839      331.562       -0.344      874.406
01/13/2014  02:03:00        9.039       -4.887        4.441       11.936       13.478       11.927      142.460      181.659      142.245        0.030        0.023       10.275        8.725        0.721      331.732       -0.064      874.428
01/13/2014  02:04:00       10.798        1.976        0.850       12.720       11.949       12.122      161.798      142.768      146.933        0.029        0.023       10.977        9.098        0.687      331.755       -0.025      874.440
01/13/2014  02:05:00      -25.467       -4.340       -1.126       14.289        7.388        5.615      204.175       54.582       31.525        0.048        0.015       25.834        5.982        0.054      331.722       -0.080      874.444
01/13/2014  02:06:00      -40.484       -4.693       -4.701        9.792       12.830        8.852       95.886      164.605       78.363        0.101        0.017       40.755        2.877        0.005      331.608       -0.269      874.446
01/13/2014  02:07:00      -67.124      -24.853      -10.847        9.647       12.187        6.702       93.065      148.534       44.914        0.276        0.014       71.577        4.647        0.004      331.458       -0.514      874.475
01/13/2014  02:08:00      -59.917      -37.706       -1.480       20.404       11.170       10.557      416.323      124.779      111.461        0.283        0.033       70.794       11.195        0.025      331.491       -0.460      874.511
01/13/2014  02:09:00       -8.903      -20.578        4.848       20.406       11.983       11.096      416.411      143.591      123.122        0.060        0.034       22.421       10.668        0.226      331.516       -0.419      874.540
01/13/2014  02:10:00      -60.852      -47.633        4.529       36.253       21.662       18.461     1314.293      469.246      340.799        0.406        0.106       77.278       21.105        0.075      331.429       -0.563      874.534
01/13/2014  02:11:00      -98.933      -76.749       11.740       45.195       37.982       28.076     2042.587     1442.666      788.285        1.004        0.214      125.213       21.792        0.030      331.414       -0.587      874.531
01/13/2014  02:12:00     -141.303      -67.971       -1.842       40.697       36.050       24.452     1656.261     1299.631      597.889        1.407        0.178      156.801       23.427        0.022      331.402       -0.607      874.558
01/13/2014  02:13:00     -118.176      -60.681       -0.480       50.056       31.213       23.781     2505.643      974.242      565.535        1.085        0.202      132.844       24.204        0.033      331.346       -0.698      874.588
01/13/2014  02:14:00     -102.727      -60.215       -3.293       43.170       27.240       21.504     1863.649      742.013      462.429        0.863        0.153      119.074       14.306        0.014      331.350       -0.691      874.611
01/13/2014  02:15:00     -113.494      -71.284       -6.789       36.647       29.308       21.312     1342.976      858.930      454.221        1.033        0.133      134.024       14.495        0.012      331.248       -0.858      874.627
01/13/2014  02:16:00     -147.607      -36.229      -14.241       22.932       19.818       17.029      525.865      392.759      289.997        1.226        0.060      151.989       10.678        0.005      331.163       -0.999      874.642
01/13/2014  02:17:00     -138.639      -31.613      -12.401       29.148       33.817       21.168      849.622     1143.597      448.076        1.141        0.122      142.197       15.444        0.012      331.170       -0.989      874.671
01/13/2014  02:18:00     -154.672      -54.901      -12.354       33.891       25.862       15.937     1148.613      668.847      253.974        1.458        0.104      164.126       13.114        0.006      331.180       -0.972      874.701
01/13/2014  02:19:00     -124.592      -77.690      -12.073       43.836       26.204       19.295     1921.557      686.645      372.288        1.234        0.149      146.829       16.635        0.013      331.129       -1.054      874.722
01/13/2014  02:20:00      -85.707      -51.926      -14.604       49.023       25.470       22.271     2403.275      648.725      495.978        0.690        0.177      100.210       21.013        0.044      331.115       -1.079      874.719
01/13/2014  02:21:00     -104.960      -67.441      -12.944       31.266       34.480       13.353      977.576     1188.848      178.306        0.904        0.117      124.759       12.779        0.010      331.097       -1.108      874.730
01/13/2014  02:22:00      -35.241      -38.424       11.675       40.772       33.905       23.505     1662.369     1149.542      552.463        0.311        0.168       52.138       20.768        0.159      331.129       -1.056      874.738
01/13/2014  02:23:00      -78.600      -52.177        4.688       40.224       38.658       27.517     1617.959     1494.418      757.204        0.640        0.193       94.342       26.106        0.077      331.100       -1.102      874.754
01/13/2014  02:24:00      -97.672      -85.549       -0.219       45.539       40.981       22.090     2073.841     1679.461      487.990        1.055        0.212      129.840       17.622        0.018      331.134       -1.048      874.764
01/13/2014  02:25:00     -117.421      -95.417       -6.265       54.016       39.585       29.292     2917.705     1566.938      858.030        1.414        0.267      151.301       28.683        0.036      331.088       -1.121      874.776
01/13/2014  02:26:00     -129.075      -47.287       -3.141       37.778       30.603       20.741     1427.189      936.528      430.172        1.085        0.140      137.464       19.551        0.020      331.158       -1.008      874.803
01/13/2014  02:27:00     -152.710      -85.460       -2.055       39.170       28.151       23.410     1534.307      792.461      548.005        1.675        0.144      174.997       17.980        0.011      331.192       -0.952      874.840
01/13/2014  02:28:00     -119.970      -96.297        3.026       73.656       46.496       39.752     5425.239     2161.899     1580.244        1.642        0.458      153.837       37.923        0.061      331.154       -1.016      874.904
01/13/2014  02:29:00     -192.510     -114.450       -1.605       70.477       67.916       40.556     4966.994     4612.629     1644.784        3.069        0.561      223.962       41.590        0.034      331.150       -1.026      874.956
01/13/2014  02:30:00     -183.246     -141.372       -3.931       78.549       74.218       42.148     6169.946     5508.294     1776.423        3.352        0.673      231.442       45.099        0.038      331.195       -0.950      874.981
01/13/2014  02:31:00     -207.390     -148.385        3.109       80.647       59.138       44.939     6504.009     3497.342     2019.536        3.853        0.601      255.007       41.914        0.027      331.234       -0.886      875.002
01/13/2014  02:32:00     -146.508      -74.748       13.444       93.416       64.604       49.821     8726.496     4173.698     2482.103        2.130        0.769      164.475       51.476        0.098      331.210       -0.925      875.031
01/13/2014  02:33:00     -235.171     -160.537       -0.007      100.686       70.533       46.228    10137.622     4974.845     2136.984        4.916        0.862      284.741       50.719        0.032      331.164       -0.999      875.061
01/13/2014  02:34:00     -199.259     -144.979       -5.344       89.745       76.524       49.966     8054.193     5855.911     2496.587        3.858        0.820      246.420       39.605        0.026      331.148       -1.028      875.065
01/13/2014  02:35:00     -199.630      -93.348       -2.478       64.630       72.309       38.793     4177.101     5228.572     1504.886        2.974        0.546      220.377       36.655        0.028      331.105       -1.098      875.065
01/13/2014  02:36:00     -166.011     -148.749        1.382      102.206       72.055       50.268    10446.018     5191.978     2526.861        3.392        0.908      222.904       60.590        0.074      331.148       -1.027      875.046
01/13/2014  02:37:00     -172.551     -137.533      -20.159       76.101       56.966       41.517     5791.428     3245.162     1723.631        2.993        0.538      220.657       40.801        0.034      331.224       -0.902      875.022
01/13/2014  02:38:00     -137.028      -87.898        2.149       81.779       68.480       41.677     6687.872     4689.447     1736.960        1.981        0.656      162.797       46.698        0.082      331.275       -0.815      875.028
01/13/2014  02:39:00      -86.118      -21.240        0.482       60.683       47.601       27.719     3682.403     2265.847      768.333        0.729        0.336       88.698       27.930        0.099      331.204       -0.932      875.048
01/13/2014  02:40:00     -123.035      -55.183        4.512       58.092       45.896       31.924     3374.665     2106.460     1019.132        1.235        0.325      134.843       29.092        0.047      331.186       -0.962      875.073
01/13/2014  02:41:00     -102.421      -19.600        7.945       68.325       39.392       32.326     4668.278     1551.754     1044.978        0.910        0.363      104.280       32.821        0.099      331.226       -0.896      875.087
01/13/2014  02:42:00     -128.935      -75.471      -17.648       40.738       33.357       21.943     1659.611     1112.662      481.479        1.294        0.163      149.399        9.931        0.004      331.238       -0.876      875.097
01/13/2014  02:43:00     -104.260      -15.772       -2.837       38.220       44.247       25.036     1460.792     1957.791      626.801        0.759        0.202      105.446       21.934        0.043      331.149       -1.021      875.098
01/13/2014  02:44:00     -135.810      -41.759       -2.931       50.716       33.169       19.112     2572.091     1100.214      365.264        1.212        0.202      142.085       21.877        0.024      331.171       -0.986      875.085
01/13/2014  02:45:00     -127.164      -27.645       -2.853       42.631       34.414       24.479     1817.396     1184.348      599.232        1.027        0.180      130.134       20.572        0.025      331.142       -1.032      875.066
01/13/2014  02:46:00     -123.738      -25.375       -0.083       48.961       32.931       24.433     2397.148     1084.483      596.949        1.002        0.204      126.313       23.740        0.035      331.120       -1.070      875.056
01/13/2014  02:47:00     -122.622      -20.090       -0.326       46.070       35.851       24.573     2122.426     1285.328      603.813        0.973        0.201      124.257       25.683        0.043      331.109       -1.088      875.035
01/13/2014  02:48:00     -131.905      -25.076        3.989       32.303       25.724       19.610     1043.489      661.741      384.561        1.007        0.104      134.268       17.457        0.017      331.136       -1.044      875.029
01/13/2014  02:49:00     -110.243      -41.607        4.129       35.525       28.334       17.061     1262.043      802.841      291.077        0.813        0.118      117.834       16.560        0.020      331.206       -0.928      875.051
01/13/2014  02:50:00      -45.146      -36.862       -0.137       29.285       21.340       18.234      857.618      455.416      332.465        0.252        0.082       58.283       15.451        0.070      331.282       -0.804      875.084
01/13/2014  02:51:00      -40.347      -59.597        1.283       27.559       29.168       14.326      759.475      850.765      205.231        0.350        0.091       71.970       10.711        0.022      331.395       -0.616      875.118
01/13/2014  02:52:00      -15.667      -14.243       -0.730       23.717       13.179       12.193      562.478      173.695      148.671        0.067        0.044       21.173       12.148        0.329      331.397       -0.614      875.144
01/13/2014  02:53:00       -7.951      -13.989        3.744       10.295       12.130       11.999      105.989      147.132      143.972        0.033        0.020       16.090        7.160        0.198      331.361       -0.673      875.147
01/13/2014  02:54:00      -16.692      -13.738        5.614       15.400       14.213       10.531      237.168      202.008      110.911        0.052        0.028       21.619        7.274        0.113      331.346       -0.699      875.120
01/13/2014  02:55:00      -45.337       -7.837        2.078       12.972       13.020        9.807      168.274      169.528       96.180        0.128        0.022       46.009        7.837        0.029      331.210       -0.922      875.074
01/13/2014  02:56:00      -53.532      -17.890       -1.186       13.521       20.668       13.347      182.816      427.184      178.152        0.199        0.039       56.442        4.174        0.005      331.216       -0.912      875.037
01/13/2014  02:57:00      -60.814      -44.531       -1.111       25.232       24.557       13.211      636.632      603.070      174.541        0.355        0.071       75.375        7.823        0.011      331.190       -0.953      875.007
01/13/2014  02:58:00      -85.829      -72.805        0.402       43.277       38.631       22.806     1872.907     1492.347      520.110        0.828        0.194      112.549       16.111        0.020      331.097       -1.108      874.992
01/13/2014  02:59:00      -96.463      -71.900       -1.139       48.851       36.270       25.355     2386.464     1315.516      642.889        0.941        0.217      120.311       23.354        0.038      331.105       -1.096      874.992
01/13/2014  03:00:00      -91.186      -66.878       -0.867       48.778       39.016       22.583     2379.320     1522.221      509.990        0.860        0.221      113.082       20.897        0.034      331.079       -1.138      874.998
01/13/2014  03:01:00      -93.460      -59.592        3.400       34.537       31.892       21.954     1192.781     1017.081      482.000        0.749        0.135      110.842       13.139        0.014      331.045       -1.193      875.009
01/13/2014  03:02:00      -83.338      -57.872       -4.480       30.224       20.571       17.429      913.519      423.184      303.781        0.598        0.082      101.461       15.999        0.025      331.046       -1.192      875.012
01/13/2014  03:03:00     -105.518      -46.543        3.073       43.638       32.304       25.372     1904.315     1043.548      643.757        0.845        0.180      115.327       24.932        0.047      331.036       -1.208      875.011
01/13/2014  03:04:00      -73.569      -63.603        7.157       44.247       46.816       24.076     1957.782     2191.756      579.653        0.712        0.236       97.251       23.040        0.056      331.035       -1.210      875.012
01/13/2014  03:05:00     -115.485     -107.394       -7.038       43.711       53.624       31.453     1910.616     2875.506      989.278        1.535        0.289      157.703       24.175        0.023      330.947       -1.355      874.999
01/13/2014  03:06:00      -92.274     -107.697        6.412       55.836       51.440       32.473     3117.708     2646.101     1054.496        1.349        0.341      141.821       25.031        0.031      330.915       -1.408      874.985
01/13/2014  03:07:00     -118.852     -134.250       -3.471       71.521       48.299       39.501     5115.279     2332.795     1560.340        2.058        0.450      179.301       36.042        0.040      330.850       -1.515      874.969
01/13/2014  03:08:00      -83.445      -58.085        4.343       73.880       48.280       44.352     5458.327     2330.919     1967.087        1.005        0.488      101.670       28.902        0.081      330.724       -1.721      874.958
01/13/2014  03:09:00     -104.816      -51.173       12.115       78.815       49.136       40.884     6211.806     2414.365     1671.538        1.202        0.515      116.641       39.669        0.116      330.717       -1.731      874.936
01/13/2014  03:10:00     -119.894      -75.186        1.376       84.022       46.355       34.882     7059.715     2148.806     1216.728        1.523        0.521      141.519       40.756        0.083      330.734       -1.705      874.920
01/13/2014  03:11:00     -117.541      -75.207       -2.083       43.561       43.664       32.357     1897.525     1906.564     1046.947        1.216        0.243      139.542       25.790        0.034      330.704       -1.753      874.901
01/13/2014  03:12:00     -121.568      -93.922       -6.319       36.900       42.978       25.000     1361.605     1847.140      625.002        1.374        0.192      153.624       19.170        0.016      330.706       -1.751      874.895
01/13/2014  03:13:00      -61.805      -82.983      -13.091       34.500       36.590       17.488     1190.250     1338.817      305.820        0.686        0.142      103.470       13.176        0.016      330.817       -1.567      874.889
01/13/2014  03:14:00       -4.158      -34.282       11.677       31.861       31.144       23.224     1015.099      969.927      539.332        0.193        0.126       34.533       12.457        0.130      330.890       -1.447      874.875
01/13/2014  03:15:00        7.107      -14.806        6.775       16.400       22.930       16.288      268.947      525.795      265.309        0.069        0.053       16.424        9.229        0.316      331.017       -1.239      874.870
01/13/2014  03:16:00      -18.341       15.489       -2.555       10.299       13.821       13.190      106.062      191.014      173.980        0.053        0.024       24.006        6.484        0.073      330.900       -1.430      874.877
01/13/2014  03:17:00      -16.809       11.581        2.063       12.979       13.889       15.701      168.457      192.914      246.529        0.051        0.030       20.412        7.959        0.152      330.866       -1.487      874.894
01/13/2014  03:18:00       20.977       27.055        5.404       16.126       15.497       19.992      260.061      240.153      399.675        0.105        0.045       34.235       11.279        0.109      330.950       -1.351      874.919
01/13/2014  03:19:00       -9.480       49.329       -5.711       19.837       30.646       18.541      393.492      939.193      343.776        0.212        0.084       50.232       18.034        0.129      330.789       -1.613      874.937
01/13/2014  03:20:00       24.189       26.633       16.846       22.218       37.090       28.218      493.634     1375.673      796.232        0.212        0.133       35.978       22.550        0.393      330.809       -1.580      874.962
01/13/2014  03:21:00       -8.309        1.577       -3.000       18.715       13.197       13.284      350.247      174.158      176.468        0.039        0.035        8.458       11.019        1.697      330.872       -1.477      874.992
01/13/2014  03:22:00        2.307        4.504       -2.588        8.254        8.486        7.758       68.126       72.009       60.188        0.012        0.010        5.061        4.717        0.869      330.866       -1.486      875.035
01/13/2014  03:23:00        9.774       12.532        5.563       15.394       11.400       11.253      236.965      129.962      126.635        0.039        0.025       15.893        5.589        0.124      330.808       -1.583      875.077
01/13/2014  03:24:00       19.243       14.024        7.362       10.504        9.478        9.478      110.344       89.837       89.824        0.046        0.015       23.811        4.626        0.038      330.785       -1.620      875.129
01/13/2014  03:25:00       34.137       24.555        9.649       12.307       10.204        9.423      151.469      104.113       88.785        0.110        0.017       42.051        5.942        0.020      330.807       -1.583      875.165
01/13/2014  03:26:00       18.421       14.132       14.324       16.088       11.452        8.846      258.823      131.148       78.260        0.061        0.023       23.217        5.390        0.054      330.854       -1.506      875.184
01/13/2014  03:27:00       40.315       23.818       17.218       23.996       15.560       13.093      575.822      242.126      171.427        0.174        0.049       46.825       12.444        0.071      330.958       -1.336      875.191
01/13/2014  03:28:00        6.045      -14.930        9.492       12.868       18.302       17.920      165.579      334.958      321.135        0.059        0.041       16.107       15.374        0.911      331.020       -1.235      875.190
01/13/2014  03:29:00       20.526       21.006       10.914       10.033       14.177       11.800      100.658      200.980      139.230        0.071        0.022       29.370        5.835        0.039      330.935       -1.371      875.194
01/13/2014  03:30:00       19.707       31.304       34.027       12.977       17.931       10.348      168.408      321.524      107.085        0.156        0.030       36.991        8.667        0.055      330.896       -1.437      875.198
01/13/2014  03:31:00       60.316       35.804       12.675       15.490        9.686       24.716      239.951       93.821      610.884        0.301        0.047       70.143        9.695        0.019      330.928       -1.384      875.213
01/13/2014  03:32:00       47.919       36.959        1.165       18.372       19.885       13.004      337.536      395.430      169.116        0.228        0.045       60.516        7.653        0.016      330.892       -1.443      875.226
01/13/2014  03:33:00       53.788       29.102        7.645       26.170       15.815       15.550      684.883      250.128      241.796        0.249        0.059       61.156       12.711        0.043      330.827       -1.552      875.239
01/13/2014  03:34:00       56.364       46.662       -3.278       26.332       19.449       17.291      693.371      378.273      298.968        0.337        0.069       73.173       12.584        0.030      330.746       -1.685      875.251
01/13/2014  03:35:00       45.904       39.824        1.976       27.580       16.474       18.143      760.651      271.391      329.154        0.253        0.068       60.771       11.537        0.036      330.700       -1.761      875.267
01/13/2014  03:36:00       45.698       49.118        0.117       32.937       32.173       24.377     1084.838     1035.083      594.258        0.361        0.136       67.089       22.606        0.114      330.683       -1.788      875.278
01/13/2014  03:37:00       49.119       48.443       -4.040       33.565       29.148       18.385     1126.640      849.616      338.011        0.354        0.116       68.989       13.505        0.038      330.625       -1.884      875.289
01/13/2014  03:38:00       41.076       65.654        2.772       27.492       35.343       23.662      755.811     1249.151      559.884        0.428        0.128       77.445       22.380        0.084      330.596       -1.930      875.283
01/13/2014  03:39:00       31.760       75.046       -4.393       25.821       27.448       22.418      666.730      753.405      502.559        0.429        0.096       81.490       20.967        0.066      330.561       -1.986      875.281
01/13/2014  03:40:00       24.935       87.743       -8.722       24.412       26.049       20.028      595.938      678.529      401.116        0.504        0.084       91.218       18.126        0.039      330.528       -2.044      875.279
01/13/2014  03:41:00       22.248       63.937       -0.873       24.315       34.909       23.127      591.209     1218.641      534.856        0.346        0.117       67.697       22.491        0.110      330.534       -2.032      875.279
01/13/2014  03:42:00       39.290       47.002        0.212       18.815       27.930       20.272      353.987      780.104      410.940        0.265        0.077       61.261       19.003        0.096      330.460       -2.154      875.273
01/13/2014  03:43:00       45.449       62.584       -6.540       22.820       27.449       18.776      520.767      753.434      352.543        0.383        0.081       77.346       13.963        0.033      330.469       -2.139      875.251
01/13/2014  03:44:00       56.497       34.703       -0.793       23.673       18.369       11.676      560.403      337.422      136.333        0.272        0.052       66.303        7.170        0.012      330.489       -2.107      875.217
01/13/2014  03:45:00       78.258       38.179       10.742       16.170       12.275       15.878      261.458      150.687      252.126        0.418        0.033       87.074        7.517        0.007      330.562       -1.985      875.189
01/13/2014  03:46:00       55.629       44.991       20.419       20.077       13.169       21.672      403.093      173.414      469.672        0.329        0.052       71.545       16.039        0.050      330.572       -1.968      875.174
01/13/2014  03:47:00       58.779       38.902       27.817       23.320       12.590       21.583      543.824      158.503      465.807        0.345        0.058       70.486       17.830        0.064      330.608       -1.910      875.189
01/13/2014  03:48:00       83.209       42.919       18.575       26.383       20.159       17.122      696.063      406.387      293.176        0.525        0.070       93.625       14.642        0.024      330.563       -1.984      875.213
01/13/2014  03:49:00       82.540       42.829       20.050       21.234       23.840       18.889      450.866      568.352      356.776        0.521        0.069       92.991        9.290        0.010      330.546       -2.012      875.233
01/13/2014  03:50:00       95.259       51.277       18.273       26.250       17.683       15.767      689.075      312.685      248.584        0.664        0.063      108.183        6.119        0.003      330.502       -2.085      875.240
01/13/2014  03:51:00       87.797       67.277       36.992       26.642       14.686       18.717      709.779      215.676      350.343        0.744        0.064      110.610       11.978        0.012      330.511       -2.070      875.238
01/13/2014  03:52:00       43.854       58.902       59.926       30.311       21.020       18.056      918.771      441.842      326.005        0.533        0.084       73.434       11.415        0.024      330.623       -1.885      875.228
01/13/2014  03:53:00       25.145       57.857       58.670       28.290       19.332       16.101      800.317      373.710      259.246        0.443        0.072       63.085       10.044        0.025      330.637       -1.862      875.222
01/13/2014  03:54:00       51.416       53.966       52.965       35.789       29.086       22.938     1280.820      846.009      526.142        0.551        0.133       74.538       18.325        0.060      330.583       -1.950      875.236
01/13/2014  03:55:00       51.624       64.323       50.886       27.846       16.396       22.187      775.407      268.835      492.257        0.546        0.077       82.477       14.671        0.032      330.537       -2.026      875.254
01/13/2014  03:56:00       43.132       40.950       44.338       29.276       19.097       18.392      857.088      364.699      338.274        0.353        0.078       59.475        8.732        0.022      330.540       -2.022      875.262
01/13/2014  03:57:00       75.594       39.856       16.479       22.653       18.740       18.002      513.150      351.172      324.073        0.438        0.059       85.457       13.589        0.025      330.502       -2.084      875.258
01/13/2014  03:58:00       66.125       37.237       12.749       22.331       23.899       16.933      498.690      571.157      286.717        0.364        0.068       75.889       11.557        0.023      330.476       -2.127      875.262
01/13/2014  03:59:00       93.541       46.873        1.372       18.233       17.184       14.968      332.444      295.275      224.040        0.590        0.043      104.628       10.823        0.011      330.462       -2.150      875.279
01/13/2014  04:00:00       64.278       53.846        1.385       18.067       17.012       12.328      326.433      289.408      151.991        0.390        0.038       83.852        4.612        0.003      330.417       -2.223      875.310
01/13/2014  04:01:00       48.586       42.129        5.501       25.687       21.171       11.702      659.844      448.231      136.928        0.271        0.062       64.307        4.270        0.004      330.415       -2.227      875.341
01/13/2014  04:02:00       31.635       53.534       -0.744       20.428       28.920       18.108      417.292      836.344      327.910        0.272        0.079       62.182       14.337        0.053      330.356       -2.325      875.373
01/13/2014  04:03:00       29.778       26.714        0.208       19.200       22.325       13.476      368.636      498.422      181.608        0.132        0.052       40.004        9.343        0.055      330.408       -2.238      875.392
01/13/2014  04:04:00       19.151       25.500       -0.263       15.926       16.407       12.363      253.630      269.188      152.852        0.085        0.034       31.891        7.316        0.053      330.427       -2.207      875.388
01/13/2014  04:05:00        5.858       21.836       -0.324       10.472       20.243        9.058      109.669      409.786       82.049        0.056        0.030       22.608        8.942        0.156      330.416       -2.227      875.383
01/13/2014  04:06:00       14.000       78.948      -10.101       13.487       19.393        6.338      181.887      376.086       40.176        0.356        0.030       80.180        5.714        0.005      330.495       -2.097      875.375
01/13/2014  04:07:00       -4.690      101.649      -13.481        9.959       15.662        7.212       99.177      245.305       52.018        0.547        0.020      101.757        6.451        0.004      330.536       -2.030      875.362
01/13/2014  04:08:00       -3.244      101.186       -5.604       16.977       24.005       12.846      288.230      576.216      165.019        0.565        0.051      101.238        8.840        0.008      330.698       -1.763      875.362
01/13/2014  04:09:00      -24.088       80.306       -7.622       36.508       25.330       16.028     1332.868      641.596      256.889        0.466        0.112       83.841       12.602        0.023      330.674       -1.801      875.381
01/13/2014  04:10:00        5.041      126.071      -20.722       12.135       22.419        8.683      147.264      502.609       75.396        0.854        0.036      126.172        6.521        0.003      330.680       -1.791      875.390
01/13/2014  04:11:00       -3.621      144.860      -20.912        8.435       13.242        6.987       71.145      175.364       48.817        1.087        0.015      144.906        3.866        0.001      330.588       -1.940      875.395
01/13/2014  04:12:00       -5.079      129.483      -15.900       10.369       16.455        8.145      107.523      270.755       66.338        0.874        0.022      129.583        4.302        0.001      330.644       -1.851      875.394
01/13/2014  04:13:00        5.512      106.001      -15.401       10.388       13.888        8.301      107.906      192.874       68.905        0.594        0.018      106.144        6.308        0.004      330.607       -1.909      875.399
01/13/2014  04:14:00       28.176       66.825       -7.350       13.310       21.693       12.976      177.168      470.594      168.369        0.306        0.041       72.522       12.690        0.031      330.595       -1.932      875.417
01/13/2014  04:15:00       25.171       24.694        2.452       13.159       16.183       12.008      173.148      261.879      144.197        0.091        0.029       35.262        8.637        0.060      330.530       -2.040      875.438
01/13/2014  04:16:00       31.149       22.260        4.769       17.630       10.915       10.659      310.808      119.147      113.623        0.102        0.027       38.286        7.098        0.034      330.567       -1.977      875.449
01/13/2014  04:17:00       14.420       17.575        0.445       10.613       11.105       10.092      112.630      123.311      101.856        0.043        0.017       22.734        4.286        0.036      330.601       -1.922      875.455
01/13/2014  04:18:00        4.350        4.128       -6.578       15.158        7.516        5.863      229.772       56.484       34.379        0.020        0.016        5.997        5.816        0.940      330.608       -1.909      875.453
01/13/2014  04:19:00      -39.565       -2.256       -5.072       16.120       11.396        7.594      259.864      129.880       57.676        0.102        0.022       39.629        7.366        0.035      330.553       -2.000      875.448
01/13/2014  04:20:00      -95.421      -19.101      -11.386       20.835       18.414       14.517      434.077      339.063      210.752        0.529        0.049       97.314       12.176        0.016      330.421       -2.218      875.443
01/13/2014  04:21:00     -138.836       -9.618      -15.382       20.222       18.556       14.314      408.949      344.330      204.890        1.028        0.048      139.169       10.731        0.006      330.316       -2.389      875.449
01/13/2014  04:22:00      -84.241       -3.123      -10.324       29.034       31.997       17.793      842.964     1023.821      316.590        0.470        0.109       84.299       10.063        0.014      330.309       -2.401      875.458
01/13/2014  04:23:00      -81.590        7.495      -13.281       30.655       26.204       18.671      939.727      686.652      348.602        0.443        0.099       81.934       12.747        0.024      330.276       -2.456      875.483
01/13/2014  04:24:00      -54.558       19.751       -4.835       35.863       32.107       18.772     1286.177     1030.844      352.388        0.303        0.133       58.024       12.624        0.047      330.284       -2.442      875.525
01/13/2014  04:25:00      -94.374       18.067       -7.264       28.404       32.134       17.191      806.781     1032.610      295.540        0.571        0.107       96.088       15.038        0.024      330.371       -2.298      875.553
01/13/2014  04:26:00      -97.558        4.695      -14.719       28.881       28.851       13.649      834.127      832.375      186.308        0.580        0.093       97.670       16.006        0.027      330.359       -2.321      875.567
01/13/2014  04:27:00      -99.033       -6.080       -9.465       26.305       36.787       18.631      691.970     1353.284      347.120        0.616        0.120       99.220       12.159        0.015      330.350       -2.334      875.572
01/13/2014  04:28:00     -140.233       10.113      -18.328       39.168       27.353       21.848     1534.163      748.177      477.317        1.143        0.138      140.597       21.885        0.024      330.211       -2.562      875.572
01/13/2014  04:29:00      -83.659       14.138      -16.349       27.362       24.827       17.939      748.704      616.362      321.794        0.458        0.084       84.845       11.161        0.017      330.181       -2.610      875.578
01/13/2014  04:30:00      -54.465      -15.444      -17.411       25.492       16.706       10.679      649.824      279.075      114.041        0.228        0.052       56.613        7.865        0.019      330.246       -2.503      875.585
01/13/2014  04:31:00      -91.872      -21.082      -15.387       21.831       19.140       15.178      476.577      366.336      230.381        0.510        0.054       94.260        8.141        0.007      330.303       -2.410      875.584
01/13/2014  04:32:00      -74.169      -42.369       -4.108       37.732       25.529       14.564     1423.691      651.728      212.124        0.480        0.114       85.418       11.758        0.019      330.160       -2.647      875.572
01/13/2014  04:33:00     -117.246      -61.715       -3.639       33.697       31.585       21.501     1135.499      997.583      462.284        1.008        0.130      132.497       13.691        0.011      330.072       -2.789      875.554
01/13/2014  04:34:00     -137.214      -36.571       -7.352       47.622       40.273       21.985     2267.872     1621.945      483.337        1.230        0.219      142.004       22.648        0.025      330.046       -2.831      875.553
01/13/2014  04:35:00     -144.731       -3.723      -14.335       36.844       36.600       25.070     1357.477     1339.585      628.526        1.225        0.166      144.779       23.314        0.026      329.982       -2.935      875.569
01/13/2014  04:36:00     -151.931      -19.451      -24.413       31.040       28.356       18.406      963.454      804.054      338.795        1.308        0.105      153.171       14.679        0.009      330.038       -2.844      875.592
01/13/2014  04:37:00     -119.025      -14.062      -10.162       40.971       24.629       15.728     1678.619      606.594      247.371        0.850        0.127      119.853       15.525        0.017      330.061       -2.806      875.620
01/13/2014  04:38:00     -128.798      -11.433      -12.755       42.841       27.996       21.942     1835.328      783.788      481.442        0.999        0.155      129.305       24.591        0.036      330.107       -2.732      875.639
01/13/2014  04:39:00      -92.488      -29.599       -2.942       45.911       26.616       20.642     2107.855      708.426      426.075        0.634        0.162       97.109       21.515        0.049      330.117       -2.715      875.664
01/13/2014  04:40:00     -111.419      -52.742      -19.560       24.364       25.506       18.650      593.612      650.578      347.810        0.859        0.080      123.272        6.088        0.002      330.112       -2.725      875.677
01/13/2014  04:41:00     -109.616      -33.938      -17.308       21.864       30.131       15.251      478.049      907.901      232.584        0.754        0.081      114.750       11.644        0.010      330.101       -2.741      875.675
01/13/2014  04:42:00      -91.073      -18.807       -4.383       35.260       18.436       17.905     1243.266      339.897      320.586        0.529        0.095       92.994       20.528        0.049      330.090       -2.759      875.667
01/13/2014  04:43:00     -138.399       -1.158      -15.567       22.794       17.212       14.186      519.583      296.252      201.243        1.021        0.051      138.404       11.616        0.007      330.150       -2.663      875.662
01/13/2014  04:44:00     -126.996       -4.973       -9.365       28.687       20.956       13.602      822.925      439.159      185.027        0.884        0.072      127.093       13.422        0.011      330.126       -2.702      875.652
01/13/2014  04:45:00      -95.816      -14.791       -6.406       45.756       19.072       16.258     2093.599      363.760      264.319        0.608        0.136       96.950       22.389        0.053      330.183       -2.607      875.640
01/13/2014  04:46:00      -73.693      -47.686        4.033       42.888       31.431       20.757     1839.359      987.920      430.843        0.549        0.163       87.776       25.664        0.085      330.303       -2.410      875.640
01/13/2014  04:47:00      -42.204      -35.717        3.634       35.760       19.952       16.337     1278.792      398.099      266.899        0.251        0.097       55.289       17.258        0.097      330.264       -2.474      875.660
01/13/2014  04:48:00      -66.860      -15.034       -3.405       13.431       15.964        9.505      180.385      254.854       90.345        0.262        0.026       68.530        4.697        0.005      330.216       -2.553      875.684
01/13/2014  04:49:00      -40.869       -8.890       -5.618       21.572       16.882       12.466      465.356      285.015      155.397        0.134        0.045       41.824       11.932        0.081      330.219       -2.548      875.700
01/13/2014  04:50:00      -82.773       -6.139      -10.544       22.622       32.389       17.372      511.737     1049.044      301.787        0.443        0.093       83.001        9.887        0.014      330.196       -2.585      875.705
01/13/2014  04:51:00      -72.957      -26.455        0.333       34.947       31.948       20.228     1221.303     1020.671      409.180        0.434        0.133       77.605       16.488        0.045      330.067       -2.798      875.705
01/13/2014  04:52:00      -51.852      -31.990        2.035       42.792       32.704       21.369     1831.117     1069.526      456.647        0.354        0.168       60.926       19.843        0.106      330.051       -2.823      875.702
01/13/2014  04:53:00      -95.217      -15.618      -15.413       25.056       30.734       18.449      627.789      944.582      340.362        0.573        0.096       96.489       11.349        0.014      330.023       -2.870      875.687
01/13/2014  04:54:00     -126.340       -4.166      -15.317       18.033       24.343       16.168      325.201      592.562      261.396        0.870        0.059      126.409        7.643        0.004      330.070       -2.792      875.664
01/13/2014  04:55:00      -99.956      -12.618       -4.283       33.907       34.724       22.230     1149.663     1205.765      494.188        0.651        0.142      100.750       16.785        0.028      330.097       -2.748      875.640
01/13/2014  04:56:00     -119.807       -6.947       -8.384       52.203       26.807       20.593     2725.150      718.598      424.079        0.917        0.193      120.009       25.166        0.044      330.090       -2.761      875.642
01/13/2014  04:57:00     -185.762       28.405      -19.800       29.506       34.003       20.264      870.612     1156.211      410.615        1.907        0.122      187.921       14.481        0.006      330.068       -2.797      875.657
01/13/2014  04:58:00      -96.059        2.527       -7.149       57.067       32.763       26.640     3256.669     1073.431      709.697        0.716        0.252       96.092       29.365        0.093      330.030       -2.857      875.669
01/13/2014  04:59:00     -114.228      -26.567      -19.476       35.007       27.873       22.957     1225.469      776.905      527.016        0.833        0.126      117.276       20.639        0.031      330.032       -2.854      875.667
01/13/2014  05:00:00     -109.463      -36.895      -22.570       29.307       35.184       21.635      858.896     1237.915      468.081        0.821        0.128      115.514       15.402        0.018      330.083       -2.771      875.647
01/13/2014  05:01:00     -106.980      -16.358      -13.583       29.825       31.280       18.114      889.541      978.410      328.114        0.705        0.110      108.223       12.112        0.013      330.025       -2.865      875.631
01/13/2014  05:02:00     -126.848      -18.638      -13.644       39.232       31.586       19.975     1539.168      997.685      398.994        0.978        0.147      128.210       19.981        0.024      330.033       -2.854      875.640
01/13/2014  05:03:00     -150.943      -22.901      -17.096       33.665       31.260       19.891     1133.303      977.203      395.644        1.305        0.125      152.670       15.708        0.011      329.970       -2.957      875.654
01/13/2014  05:04:00     -162.284        1.783       -9.125       48.760       32.808       23.177     2377.546     1076.397      537.152        1.521        0.200      162.294       23.419        0.021      329.896       -3.078      875.682
01/13/2014  05:05:00     -143.692       -6.966       -8.106       65.529       28.143       23.645     4293.996      792.004      559.100        1.320        0.282      143.861       30.796        0.046      329.866       -3.127      875.699
01/13/2014  05:06:00     -167.796       36.664      -13.574       40.735       31.912       25.286     1659.342     1018.375      639.389        1.650        0.166      171.755       23.124        0.018      329.899       -3.072      875.715
01/13/2014  05:07:00     -147.164       33.939       -6.361       49.676       29.607       22.728     2467.671      876.590      516.581        1.335        0.193      151.027       24.690        0.027      329.923       -3.033      875.736
01/13/2014  05:08:00     -169.148       24.788      -14.034       29.930       33.660       20.240      895.797     1132.962      409.671        1.593        0.122      170.954       18.345        0.012      329.978       -2.943      875.726
01/13/2014  05:09:00     -125.362        0.217       -6.660       36.528       41.572       20.259     1334.309     1728.192      410.414        0.962        0.174      125.362       17.175        0.019      329.970       -2.956      875.706
01/13/2014  05:10:00     -122.509      -31.955       -8.263       65.668       34.144       26.421     4312.316     1165.800      698.078        1.114        0.309      126.607       27.232        0.046      329.989       -2.924      875.679
01/13/2014  05:11:00      -80.094      -36.803       -5.051       40.117       44.187       27.023     1609.334     1952.505      730.260        0.604        0.215       88.145       17.753        0.041      330.015       -2.883      875.657
01/13/2014  05:12:00     -100.596       26.014      -18.201       36.070       35.264       21.984     1301.010     1243.580      483.284        0.708        0.151      103.905       16.499        0.025      330.078       -2.779      875.641
01/13/2014  05:13:00      -98.905      -48.561      -17.064       30.554       31.552       21.570      933.525      995.538      465.250        0.741        0.120      110.183       15.670        0.020      330.049       -2.827      875.627
01/13/2014  05:14:00      -64.433      -32.426       -2.414       39.776       31.987       22.357     1582.103     1023.181      499.824        0.416        0.155       72.132       19.776        0.075      330.053       -2.821      875.604
01/13/2014  05:15:00      -57.541      -31.966       -4.618       30.200       29.998       19.116      912.030      899.858      365.438        0.327        0.109       65.824       13.987        0.045      330.004       -2.899      875.613
01/13/2014  05:16:00     -132.158      -18.466      -11.333       26.619       39.283       20.253      708.559     1543.122      410.196        1.030        0.133      133.442       18.130        0.018      329.939       -3.008      875.629
01/13/2014  05:17:00     -119.372      -16.526       -7.204       29.449       21.042       18.003      867.266      442.771      324.123        0.810        0.082      120.510       15.658        0.017      329.963       -2.967      875.649
01/13/2014  05:18:00     -108.232      -14.653       -4.726       34.803       23.990       20.543     1211.256      575.512      421.998        0.708        0.110      109.220       16.964        0.024      330.015       -2.882      875.666
01/13/2014  05:19:00     -100.397      -16.036       -3.962       35.488       24.032       17.699     1259.392      577.526      313.247        0.625        0.108      101.669       19.930        0.038      329.973       -2.952      875.686
01/13/2014  05:20:00     -102.981      -21.751       -2.190       33.126       24.655       16.229     1097.364      607.846      263.386        0.653        0.098      105.253       15.339        0.021      329.934       -3.015      875.704
01/13/2014  05:21:00      -81.862      -11.717       -2.392       30.200       21.404       16.985      912.025      458.123      288.476        0.425        0.083       82.696       16.241        0.039      329.989       -2.923      875.713
01/13/2014  05:22:00     -106.652      -15.695      -10.039       20.250       14.291       14.133      410.072      204.222      199.753        0.627        0.041      107.800       11.409        0.011      329.982       -2.935      875.725
01/13/2014  05:23:00     -100.161      -27.272       -7.088       21.049       16.545       11.755      443.071      273.728      138.177        0.584        0.043      103.808       11.278        0.012      330.042       -2.838      875.730
01/13/2014  05:24:00     -103.832      -24.064      -19.042       17.063       13.166       11.953      291.161      173.337      142.874        0.616        0.030      106.584        7.850        0.005      329.997       -2.910      875.729
01/13/2014  05:25:00      -96.203      -12.260      -19.645       14.709       12.781       11.804      216.356      163.346      139.341        0.516        0.026       96.981        3.608        0.001      329.985       -2.931      875.728
01/13/2014  05:26:00      -84.948      -14.060      -18.734        9.720       10.289        9.996       94.482      105.865       99.921        0.403        0.015       86.104        5.046        0.003      330.013       -2.884      875.738
01/13/2014  05:27:00     -100.334      -10.188      -11.229       16.117       11.478       10.332      259.745      131.737      106.743        0.540        0.025      100.850        8.191        0.007      330.043       -2.836      875.741
01/13/2014  05:28:00      -95.181      -30.035      -12.976       14.857       12.991       11.674      220.717      168.777      136.279        0.533        0.026       99.807        9.687        0.009      330.094       -2.755      875.735
01/13/2014  05:29:00     -102.142      -27.219      -11.470       10.083       12.729        8.961      101.672      162.027       80.305        0.582        0.017      105.706        2.732        0.001      330.116       -2.719      875.718
01/13/2014  05:30:00     -118.380      -17.318      -22.721       17.262       18.794       11.238      297.992      353.200      126.290        0.780        0.039      119.640        5.124        0.002      330.100       -2.744      875.711
01/13/2014  05:31:00     -107.624      -34.242      -14.288       32.455       21.289       14.971     1053.303      453.237      224.139        0.734        0.087      112.940       15.857        0.020      330.048       -2.827      875.726
01/13/2014  05:32:00     -111.839      -15.532      -15.957       18.289       13.823       12.041      334.470      191.085      144.989        0.684        0.034      112.912       10.923        0.009      330.065       -2.800      875.750
01/13/2014  05:33:00      -97.245      -28.048       -8.601       27.160       19.204       16.296      737.651      368.781      265.551        0.584        0.069      101.209       16.751        0.027      330.033       -2.853      875.764
01/13/2014  05:34:00     -114.172      -14.142      -11.272       19.856       13.203       12.094      394.277      174.323      146.265        0.704        0.036      115.044        9.359        0.007      330.001       -2.904      875.768
01/13/2014  05:35:00     -105.567      -14.352       -9.694       19.321       16.720       14.479      373.318      279.562      209.646        0.615        0.043      106.538        9.598        0.008      329.998       -2.910      875.761
01/13/2014  05:36:00      -93.077      -46.886      -17.013       23.150       17.238       16.910      535.901      297.161      285.944        0.613        0.056      104.219       12.334        0.014      329.981       -2.939      875.749
01/13/2014  05:37:00     -110.924      -33.500      -12.739       27.495       27.380       13.199      756.002      749.650      174.221        0.763        0.084      115.872       10.212        0.008      329.995       -2.915      875.740
01/13/2014  05:38:00     -124.942      -18.511      -20.009       25.034       19.489       13.645      626.677      379.821      186.191        0.877        0.060      126.305        9.025        0.005      329.964       -2.966      875.728
01/13/2014  05:39:00     -106.177       -5.663       -9.574       25.380       23.361       19.480      644.133      545.740      379.477        0.648        0.078      106.328       15.558        0.021      329.956       -2.979      875.724
01/13/2014  05:40:00     -127.103      -19.444      -10.346       21.998       20.142       13.232      483.902      405.691      175.084        0.885        0.053      128.582        8.421        0.004      329.879       -3.105      875.731
01/13/2014  05:41:00     -111.870      -18.458      -13.576       24.865       23.726       15.147      618.252      562.928      229.417        0.723        0.071      113.383        8.844        0.006      329.891       -3.087      875.752
01/13/2014  05:42:00      -72.901      -35.272      -16.240       18.329       18.913       15.264      335.954      357.699      232.981        0.387        0.046       80.986       11.747        0.021      329.899       -3.073      875.773
01/13/2014  05:43:00      -91.383      -29.181      -15.336       15.735       20.196       14.751      247.579      407.874      217.593        0.516        0.044       95.930        5.738        0.004      329.906       -3.063      875.779
01/13/2014  05:44:00     -109.764      -25.863      -14.373       22.307       20.745       14.781      497.591      430.374      218.489        0.703        0.057      112.770       13.232        0.014      329.918       -3.043      875.766
01/13/2014  05:45:00     -112.159      -14.745      -15.664       15.990       12.340        9.539      255.687      152.266       90.988        0.677        0.025      113.124        7.605        0.005      329.948       -2.994      875.753
01/13/2014  05:46:00      -62.322      -18.025       -6.502       23.018       16.435       15.515      529.809      270.111      240.700        0.265        0.052       64.876       14.768        0.052      330.082       -2.774      875.751
01/13/2014  05:47:00      -68.788      -16.065       -7.683       15.052       13.606       11.606      226.576      185.111      134.690        0.280        0.027       70.639        6.265        0.008      330.043       -2.837      875.764
01/13/2014  05:48:00      -76.308      -14.019      -12.955       14.448       14.047       13.773      208.756      197.312      189.709        0.339        0.030       77.586        8.099        0.011      329.983       -2.934      875.783
01/13/2014  05:49:00      -66.100       -7.899      -12.460        9.092        8.591        8.335       82.656       73.799       69.467        0.241        0.011       66.570        6.271        0.009      330.039       -2.843      875.793
01/13/2014  05:50:00      -65.424      -24.051      -12.242       16.254       13.520       10.731      264.203      182.790      115.146        0.279        0.028       69.705        5.330        0.006      330.038       -2.845      875.809
01/13/2014  05:51:00      -96.878      -10.802      -12.694       15.449       12.062       10.711      238.666      145.488      114.731        0.508        0.025       97.478        6.661        0.005      329.958       -2.977      875.841
01/13/2014  05:52:00     -109.002       -4.718      -10.819       15.085       10.479        9.015      227.562      109.804       81.271        0.622        0.021      109.104        8.156        0.006      329.955       -2.981      875.869
01/13/2014  05:53:00      -78.090      -13.313      -10.682       15.718       17.837       14.147      247.062      318.145      200.139        0.358        0.038       79.216       11.425        0.021      329.985       -2.932      875.895
01/13/2014  05:54:00      -51.637      -32.718      -12.818       21.426       17.624       12.147      459.086      310.591      147.546        0.241        0.046       61.130        9.931        0.026      330.040       -2.841      875.905
01/13/2014  05:55:00      -71.207      -25.297      -11.334       17.191       16.849       10.065      295.539      283.899      101.306        0.326        0.034       75.567        7.768        0.011      330.082       -2.772      875.891
01/13/2014  05:56:00      -71.280      -42.682       -7.430       22.892       20.330       16.600      524.055      413.297      275.574        0.409        0.061       83.082       14.311        0.030      330.096       -2.751      875.889
01/13/2014  05:57:00      -30.850      -25.548       -4.031       25.793       12.958       14.976      665.255      167.907      224.268        0.134        0.053       40.055       13.080        0.107      330.055       -2.816      875.896
01/13/2014  05:58:00      -65.265      -31.361       -2.509       17.122       13.587        9.708      293.152      184.595       94.255        0.291        0.029       72.409        6.867        0.009      330.062       -2.806      875.906
01/13/2014  05:59:00      -45.826      -20.554        0.483       21.551       19.768       11.782      464.458      390.765      138.813        0.176        0.050       50.224       10.997        0.048      330.076       -2.782      875.906
01/13/2014  06:00:00      -43.618      -12.944        3.135       22.637       15.212       11.109      512.425      231.396      123.420        0.147        0.043       45.498       11.836        0.068      330.070       -2.792      875.897
01/13/2014  06:01:00      -33.194      -14.107        2.542       17.806       12.770        9.140      317.036      163.081       83.531        0.094        0.028       36.067        4.573        0.016      330.054       -2.818      875.894
01/13/2014  06:02:00      -63.923      -41.589       -0.563       23.169       18.387       14.358      536.800      338.065      206.147        0.345        0.054       76.261        5.503        0.005      330.096       -2.750      875.896
01/13/2014  06:03:00      -30.703      -21.297        7.631       31.151       26.881       16.252      970.369      722.613      264.125        0.171        0.098       37.366       14.945        0.160      330.198       -2.582      875.903
01/13/2014  06:04:00      -72.328      -49.378       -2.606       31.592       20.488       23.937      998.051      419.775      572.961        0.483        0.100       87.576       14.958        0.029      330.069       -2.795      875.918
01/13/2014  06:05:00      -96.725      -50.365      -10.265       20.456       19.036       13.630      418.459      362.385      185.765        0.648        0.048      109.052        9.884        0.008      330.044       -2.835      875.934
01/13/2014  06:06:00      -65.584        4.689       -1.209       39.164       19.130       15.162     1533.844      365.961      229.882        0.323        0.106       65.751       18.065        0.075      329.991       -2.922      875.952
01/13/2014  06:07:00      -93.084      -11.409       -4.756       19.000       22.417       12.646      360.984      502.509      159.911        0.492        0.051       93.781        7.480        0.006      329.985       -2.932      875.962
01/13/2014  06:08:00     -111.939      -45.821       -6.793       26.570       18.636       13.811      705.978      347.300      190.757        0.796        0.062      120.954       11.716        0.009      330.019       -2.874      875.976
01/13/2014  06:09:00     -112.532      -52.124       -7.999       27.997       20.620       14.947      783.826      425.174      223.411        0.844        0.072      124.017       13.056        0.011      330.095       -2.753      875.973
01/13/2014  06:10:00     -131.895      -48.419       -1.996       26.658       29.731       19.899      710.663      883.925      395.954        1.087        0.100      140.501       17.326        0.015      330.045       -2.832      875.952
01/13/2014  06:11:00     -114.778      -40.719       -3.473       40.589       19.430       17.009     1647.451      377.538      289.313        0.858        0.116      121.787       19.394        0.025      330.054       -2.819      875.940
01/13/2014  06:12:00     -102.865      -29.071       -5.511       37.762       32.294       21.253     1425.959     1042.908      451.708        0.719        0.146      106.894       18.893        0.031      330.134       -2.689      875.936
01/13/2014  06:13:00     -108.032      -32.311       -7.278       41.839       29.239       20.269     1750.533      854.896      410.830        0.789        0.151      112.760       17.781        0.025      330.035       -2.849      875.946
01/13/2014  06:14:00     -128.066      -12.003       -3.652       43.462       27.392       17.342     1888.939      750.347      300.737        0.975        0.147      128.628       20.061        0.024      330.023       -2.869      875.997
01/13/2014  06:15:00      -98.319      -15.506       -4.015       41.606       30.277       21.177     1731.059      916.714      448.482        0.651        0.155       99.534       24.748        0.062      329.970       -2.957      876.010
01/13/2014  06:16:00     -123.042       -6.304      -13.877       22.472       24.358       15.336      505.012      593.300      235.197        0.835        0.067      123.203       10.148        0.007      329.916       -3.046      876.045
01/13/2014  06:17:00     -113.242        1.585       -6.862       26.237       25.890       15.584      688.374      670.276      242.874        0.724        0.080      113.253       10.590        0.009      329.896       -3.078      876.086
01/13/2014  06:18:00      -59.270      -12.010       -2.352       36.198       23.642       17.280     1310.311      558.923      298.593        0.291        0.108       60.474       20.398        0.114      329.838       -3.173      876.116
01/13/2014  06:19:00      -56.297      -18.903       -5.660       28.996       26.504       14.350      840.786      702.439      205.926        0.265        0.087       59.386       12.791        0.046      329.924       -3.032      876.119
01/13/2014  06:20:00      -63.019        9.253       -2.924       24.314       17.410       12.823      591.150      303.114      164.417        0.256        0.053       63.695        9.377        0.022      329.976       -2.945      876.090
01/13/2014  06:21:00      -40.533       -8.786       -2.264       20.130       17.819       12.766      405.200      317.514      162.968        0.131        0.044       41.474       11.263        0.074      329.917       -3.044      876.068
01/13/2014  06:22:00      -61.084      -30.342       -8.322       28.768       15.692       13.292      827.589      246.242      176.665        0.299        0.063       68.204       11.225        0.027      329.974       -2.950      876.041
01/13/2014  06:23:00      -39.388       -5.763       -7.401       16.683       12.054       11.465      278.311      145.304      131.452        0.110        0.028       39.807        5.558        0.019      329.989       -2.925      876.023
01/13/2014  06:24:00        4.010        7.750       11.034        9.455        9.644       14.418       89.388       93.013      207.872        0.029        0.020        8.726       11.591        1.765      329.926       -3.029      876.008
01/13/2014  06:25:00        2.032       13.066        5.130       10.894       16.098       13.328      118.687      259.144      177.645        0.038        0.028       13.223       12.884        0.949      329.961       -2.972      875.991
01/13/2014  06:26:00        2.870        7.452        6.332        7.667        8.224        7.194       58.782       67.634       51.759        0.014        0.009        7.985        3.097        0.150      330.136       -2.687      875.979
01/13/2014  06:27:00      -16.957        4.895        2.322       16.061       10.217        5.433      257.947      104.391       29.520        0.035        0.020       17.649        5.716        0.105      330.139       -2.679      875.962
01/13/2014  06:28:00      -50.132       -4.726       -9.324        7.276        8.717        6.989       52.936       75.979       48.845        0.140        0.009       50.354        4.293        0.007      330.044       -2.837      875.959
01/13/2014  06:29:00      -64.263      -13.956       -8.449       11.551       12.081       10.621      133.428      145.941      112.808        0.239        0.020       65.761        6.330        0.009      329.952       -2.985      875.971
01/13/2014  06:30:00      -56.199      -10.889       -6.690       20.004        8.704        7.922      400.160       75.762       62.764        0.193        0.027       57.244        9.827        0.029      329.956       -2.980      875.992
01/13/2014  06:31:00      -55.449       -0.045       -6.682       17.300       11.695        9.079      299.292      136.771       82.435        0.182        0.026       55.449        6.693        0.015      329.930       -3.022      876.013
01/13/2014  06:32:00      -66.171       -5.461       -6.071       13.531        8.166        7.146      183.075       66.691       51.059        0.237        0.015       66.396        6.818        0.011      329.947       -2.994      876.019
01/13/2014  06:33:00      -87.413       -3.627       -9.091       11.461        6.838        7.179      131.343       46.756       51.532        0.398        0.011       87.488        6.038        0.005      329.898       -3.074      876.024
01/13/2014  06:34:00     -102.401       -1.171      -11.176       11.689        8.656        8.555      136.637       74.921       73.186        0.545        0.014      102.408        4.728        0.002      329.861       -3.135      876.034
01/13/2014  06:35:00     -106.999       -5.446      -12.716       13.897       13.670       10.598      193.124      186.859      112.315        0.607        0.025      107.138        5.365        0.003      329.806       -3.224      876.045
01/13/2014  06:36:00     -115.243       -3.356      -13.970       22.771       13.204       12.871      518.519      174.350      165.651        0.717        0.043      115.291       12.699        0.012      329.770       -3.286      876.062
01/13/2014  06:37:00     -116.791       -0.784      -11.251       26.638       15.765       16.346      709.575      248.526      267.179        0.750        0.061      116.794       15.201        0.017      329.803       -3.230      876.070
01/13/2014  06:38:00      -95.150       -7.361       -7.067       34.980       22.297       19.900     1223.606      497.142      395.998        0.564        0.106       95.435       20.300        0.045      329.830       -3.186      876.078
01/13/2014  06:39:00      -91.163       -9.952       -3.716       33.276       27.328       17.426     1107.302      746.846      303.649        0.529        0.108       91.704       14.522        0.025      329.738       -3.338      876.083
01/13/2014  06:40:00      -90.189      -19.664       -1.104       39.551       27.690       20.588     1564.267      766.736      423.850        0.564        0.138       92.307       20.236        0.048      329.707       -3.386      876.095
01/13/2014  06:41:00     -105.465      -15.358        0.634       31.684       22.928       18.426     1003.906      525.703      339.499        0.661        0.093      106.577       17.432        0.027      329.675       -3.440      876.111
01/13/2014  06:42:00     -107.550       -5.914       -9.050       43.098       29.889       25.923     1857.442      893.351      672.027        0.755        0.171      107.712       27.487        0.065      329.728       -3.351      876.126
01/13/2014  06:43:00     -123.423       15.050      -10.020       43.959       30.381       26.471     1932.423      923.006      700.698        0.956        0.178      124.337       24.697        0.039      329.739       -3.336      876.151
01/13/2014  06:44:00     -155.110       11.039      -16.025       50.456       30.273       21.789     2545.850      916.481      474.766        1.419        0.197      155.502       21.431        0.019      329.675       -3.438      876.174
01/13/2014  06:45:00     -179.394       15.765      -18.992       28.274       25.067       19.283      799.431      628.332      371.833        1.730        0.090      180.085       12.215        0.005      329.681       -3.429      876.180
01/13/2014  06:46:00     -150.641       -4.920      -14.552       50.362       37.271       25.194     2536.331     1389.128      634.714        1.374        0.228      150.721       25.902        0.030      329.615       -3.536      876.172
01/13/2014  06:47:00     -133.469      -23.513       -7.937       34.274       32.074       25.846     1174.710     1028.732      668.000        1.065        0.144      135.524       16.809        0.015      329.629       -3.514      876.152
01/13/2014  06:48:00     -136.233      -14.454      -10.502       35.452       33.969       28.127     1256.846     1153.912      791.121        1.104        0.160      136.998       23.375        0.029      329.599       -3.562      876.141
01/13/2014  06:49:00     -150.429       17.054      -10.537       37.644       27.176       18.401     1417.088      738.512      338.597        1.276        0.125      151.392       16.336        0.012      329.575       -3.603      876.155
01/13/2014  06:50:00     -171.360       29.631      -15.605       23.574       22.652       15.506      555.746      513.100      240.421        1.590        0.065      173.903        8.064        0.002      329.645       -3.487      876.164
01/13/2014  06:51:00     -117.444        2.631      -14.170       32.283       35.500       16.504     1042.213     1260.235      272.389        0.829        0.129      117.474       14.985        0.016      329.688       -3.416      876.157
01/13/2014  06:52:00     -108.889      -17.062      -12.648       41.789       33.613       22.150     1746.340     1129.846      490.625        0.784        0.168      110.218       20.918        0.036      329.662       -3.460      876.144
01/13/2014  06:53:00     -122.564        5.430      -12.681       30.277       24.775       18.413      916.726      613.793      339.055        0.854        0.093      122.684       14.720        0.014      329.622       -3.525      876.137
01/13/2014  06:54:00      -88.152        3.797      -10.436       32.769       25.304       17.739     1073.840      640.311      314.680        0.496        0.101       88.234       14.744        0.028      329.616       -3.536      876.144
01/13/2014  06:55:00      -66.879        2.301      -10.502       26.661       25.027       21.296      710.820      626.337      453.508        0.319        0.090       66.919       15.380        0.053      329.745       -3.325      876.177
01/13/2014  06:56:00      -48.566      -14.558       -9.325       17.250       23.373       12.735      297.547      546.306      162.193        0.183        0.050       50.701        9.721        0.037      329.752       -3.311      876.203
01/13/2014  06:57:00      -25.873      -19.062       -3.381       18.796       15.419       12.636      353.291      237.759      159.664        0.090        0.038       32.137        7.335        0.052      329.769       -3.285      876.199
01/13/2014  06:58:00      -69.729      -29.253      -11.275       17.397       16.043        9.881      302.667      257.378       97.643        0.325        0.033       75.616        8.446        0.012      329.766       -3.291      876.175
01/13/2014  06:59:00      -66.722      -12.189       -7.022       21.199       20.922       14.416      449.412      437.741      207.823        0.287        0.055       67.826       13.293        0.038      329.813       -3.215      876.150
01/13/2014  07:00:00      -43.154      -23.931      -11.694       17.924       15.038       16.182      321.269      226.138      261.847        0.169        0.040       49.346        5.303        0.012      329.833       -3.182      876.154
01/13/2014  07:01:00      -38.588      -17.810       -4.015       21.245       16.045       11.853      451.334      257.451      140.502        0.134        0.042       42.500        8.046        0.036      329.846       -3.158      876.164
01/13/2014  07:02:00        1.577       -8.152        2.702       13.282        7.786        7.277      176.425       60.614       52.957        0.018        0.014        8.303        4.210        0.257      329.935       -3.013      876.161
01/13/2014  07:03:00      -36.750      -21.498       -3.314       16.536       11.170        8.123      273.455      124.777       65.979        0.114        0.023       42.576        7.461        0.031      329.967       -2.961      876.148
01/13/2014  07:04:00      -33.585      -15.973       -5.510       10.937       10.957        9.862      119.610      120.047       97.267        0.088        0.017       37.189        7.158        0.037      330.039       -2.843      876.144
01/13/2014  07:05:00      -40.377       -5.252        3.741        7.434        6.803        8.526       55.270       46.278       72.687        0.092        0.009       40.717        5.118        0.016      330.012       -2.887      876.135
01/13/2014  07:06:00      -35.358      -12.728       -3.918       15.565       11.549        9.529      242.257      133.385       90.795        0.095        0.023       37.579        7.131        0.036      330.022       -2.871      876.138
01/13/2014  07:07:00       -5.958       -7.544        1.100        7.666        8.481        6.254       58.760       71.922       39.118        0.013        0.008        9.613        2.628        0.075      330.030       -2.859      876.141
01/13/2014  07:08:00       -8.366        1.037       -2.567        3.710        2.238        3.959       13.763        5.009       15.672        0.006        0.002        8.430        2.321        0.076      330.002       -2.903      876.152
01/13/2014  07:09:00       -3.747        5.608        1.858        6.443        4.649        6.135       41.510       21.613       37.644        0.007        0.005        6.744        3.858        0.327      330.105       -2.739      876.157
01/13/2014  07:10:00        2.013        8.694       15.522       12.400        8.899        7.001      153.766       79.188       49.014        0.030        0.014        8.924        3.727        0.174      330.090       -2.761      876.163
01/13/2014  07:11:00       22.543       20.038       19.679       19.749       11.624        9.676      390.027      135.106       93.627        0.096        0.031       30.161        4.776        0.025      330.129       -2.696      876.161
01/13/2014  07:12:00       22.966       18.633        9.299       12.051       10.908       11.977      145.224      118.974      143.460        0.068        0.020       29.574        8.034        0.074      330.044       -2.836      876.169
01/13/2014  07:13:00        4.858        7.588        8.097       10.056        9.511        6.900      101.131       90.467       47.603        0.019        0.012        9.010        4.319        0.230      330.012       -2.888      876.181
01/13/2014  07:14:00       -3.073        9.566       18.935        9.803        7.150        6.138       96.095       51.118       37.680        0.032        0.009       10.048        5.164        0.264      330.022       -2.872      876.194
01/13/2014  07:15:00        6.577       15.776       14.245       10.963        7.641        6.335      120.176       58.379       40.138        0.036        0.011       17.092        4.366        0.065      330.050       -2.824      876.203
01/13/2014  07:16:00       33.162       28.157        6.453        7.692       10.452        8.194       59.166      109.237       67.134        0.108        0.012       43.504        6.587        0.023      330.054       -2.820      876.213
01/13/2014  07:17:00       34.058       19.758        8.420       17.624       11.598       10.763      310.600      134.521      115.839        0.109        0.028       39.374        4.439        0.013      330.003       -2.904      876.214
01/13/2014  07:18:00       56.630       28.744       21.266       21.465       11.670       15.757      460.735      136.197      248.276        0.267        0.042       63.507        9.736        0.024      330.110       -2.728      876.220
01/13/2014  07:19:00       34.283       27.983       30.711       21.605       18.287       14.478      466.757      334.413      209.600        0.196        0.051       44.254        8.340        0.036      330.091       -2.759      876.215
01/13/2014  07:20:00       24.392       34.466       44.216       24.090       20.508       14.443      580.319      420.563      208.602        0.247        0.060       42.225        6.017        0.020      330.112       -2.726      876.211
01/13/2014  07:21:00       10.199       40.455       57.252       21.396       24.415       16.634      457.805      596.072      276.676        0.317        0.067       41.721       16.191        0.151      330.148       -2.666      876.216
01/13/2014  07:22:00       16.660       62.746       78.381       32.588       31.033       21.690     1061.968      963.036      470.448        0.643        0.125       64.920       19.822        0.093      330.124       -2.705      876.234
01/13/2014  07:23:00       73.527       67.645       66.034       46.719       34.711       34.290     2182.693     1204.871     1175.793        0.945        0.228       99.910       27.429        0.075      330.066       -2.798      876.232
01/13/2014  07:24:00       79.038       65.830       64.971       33.998       33.110       29.906     1155.892     1096.284      894.385        0.897        0.157      102.862       20.483        0.040      330.056       -2.816      876.223
01/13/2014  07:25:00       64.284       35.461       29.213       38.918       38.131       37.916     1514.615     1454.006     1437.605        0.532        0.220       73.416       24.452        0.111      329.993       -2.917      876.223
01/13/2014  07:26:00       45.177       35.670       55.193       28.187       25.541       19.776      794.532      652.354      391.108        0.410        0.092       57.562       14.730        0.065      330.033       -2.854      876.237
01/13/2014  07:27:00       61.195       65.356       59.317       26.122       25.550       24.593      682.343      652.808      604.814        0.674        0.097       89.533       15.134        0.029      330.096       -2.751      876.255
01/13/2014  07:28:00       74.652       69.191       45.301       24.902       26.580       27.563      620.100      706.497      759.721        0.725        0.104      101.786       12.535        0.015      330.082       -2.772      876.262
01/13/2014  07:29:00       50.927       31.938       49.283       33.216       23.911       20.014     1103.334      571.724      400.552        0.406        0.104       60.113       15.049        0.063      330.022       -2.872      876.257
01/13/2014  07:30:00       39.412       33.159       43.232       32.286       30.607       16.482     1042.365      936.793      271.669        0.339        0.113       51.506       13.996        0.074      329.997       -2.913      876.272
01/13/2014  07:31:00       32.381       27.204       37.788       28.265       20.031       17.542      798.925      401.252      307.727        0.236        0.075       42.292       12.195        0.083      330.090       -2.760      876.289
01/13/2014  07:32:00       35.105       23.707       33.421       22.077       17.774       12.725      487.381      315.927      161.920        0.194        0.048       42.360        8.707        0.042      330.122       -2.707      876.315
01/13/2014  07:33:00       53.994       40.834       29.824       21.957       15.811       17.350      482.111      249.996      301.028        0.325        0.052       67.696       10.853        0.026      330.173       -2.624      876.336
01/13/2014  07:34:00       35.041       18.471       25.304       23.373       16.319       13.991      546.313      266.316      195.752        0.161        0.050       39.611        4.636        0.014      330.236       -2.522      876.344
01/13/2014  07:35:00       21.363       16.048       12.005       13.575       11.395       15.473      184.283      129.852      239.401        0.071        0.028       26.719        7.589        0.081      330.255       -2.490      876.324
01/13/2014  07:36:00       31.233       20.317       12.306       14.803       13.059        9.955      219.130      170.547       99.101        0.101        0.024       37.260        7.727        0.043      330.197       -2.584      876.299
01/13/2014  07:37:00       38.853       11.860       -2.677       12.458        6.300        5.338      155.193       39.691       28.489        0.094        0.011       40.623        1.892        0.002      330.157       -2.650      876.290
01/13/2014  07:38:00        7.186       11.065        2.681        8.421        7.018        6.943       70.906       49.256       48.211        0.017        0.008       13.193        4.485        0.116      330.223       -2.541      876.304
01/13/2014  07:39:00       -3.837       27.791       -0.263        7.634        9.931        4.299       58.272       98.623       18.481        0.048        0.009       28.055        2.942        0.011      330.232       -2.526      876.325
01/13/2014  07:40:00      -13.241       24.212       -2.473       10.529        9.701        8.283      110.853       94.107       68.606        0.052        0.014       27.596        6.884        0.062      330.133       -2.690      876.331
01/13/2014  07:41:00       11.748       39.111       -4.503       10.161       13.238        9.773      103.243      175.247       95.521        0.103        0.019       40.837        9.507        0.054      330.182       -2.611      876.333
01/13/2014  07:42:00       30.404       33.611        2.800       17.602       10.688        9.962      309.846      114.243       99.244        0.129        0.026       45.322        7.342        0.026      330.201       -2.577      876.343
01/13/2014  07:43:00       55.744       33.043        0.188       17.223       12.102       11.214      296.637      146.468      125.751        0.238        0.028       64.802        7.623        0.014      330.161       -2.645      876.358
01/13/2014  07:44:00       49.832       37.485        3.370       24.634       17.150       12.310      606.834      294.123      151.532        0.248        0.053       62.356        9.010        0.021      330.201       -2.579      876.366
01/13/2014  07:45:00       53.781       46.981       -2.946       22.424       20.108       15.685      502.819      404.346      246.019        0.313        0.058       71.412       12.752        0.032      330.217       -2.551      876.391
01/13/2014  07:46:00       41.629       31.018       -1.592       21.626       17.610       17.810      467.689      310.096      317.191        0.190        0.055       51.915        6.196        0.014      330.206       -2.569      876.425
01/13/2014  07:47:00       33.995       25.499        1.970       25.488       21.593       22.575      649.634      466.262      509.621        0.172        0.081       42.496        8.731        0.042      330.182       -2.610      876.459
01/13/2014  07:48:00       32.287       42.666        7.498       29.013       24.628       22.541      841.730      606.515      508.078        0.244        0.098       53.505       15.806        0.087      330.155       -2.654      876.465
01/13/2014  07:49:00       14.572       51.475        4.760       20.155       23.799       19.322      406.209      566.402      373.340        0.212        0.067       53.498       15.450        0.083      330.178       -2.616      876.468
01/13/2014  07:50:00       16.479       44.983       -4.048       27.572       24.774       18.468      760.228      613.771      341.084        0.201        0.086       47.907       13.545        0.080      330.129       -2.697      876.464
01/13/2014  07:51:00       11.056       75.336       -8.580       15.210       17.106        7.549      231.356      292.606       56.989        0.323        0.029       76.143        2.425        0.001      330.115       -2.720      876.475
01/13/2014  07:52:00       19.265       59.266        1.216       15.997       24.945       16.270      255.909      622.257      264.716        0.251        0.057       62.319       14.023        0.051      330.141       -2.679      876.510
01/13/2014  07:53:00       29.627       41.489        0.878       24.148       16.505       15.596      583.130      272.402      243.244        0.185        0.055       50.982       13.292        0.068      330.187       -2.600      876.570
01/13/2014  07:54:00       72.970       49.654        1.301       23.551       14.905       14.344      554.646      222.165      205.758        0.439        0.049       88.261       13.613        0.024      330.173       -2.625      876.612
01/13/2014  07:55:00       73.623       36.643        5.206       41.359       21.790       24.774     1710.588      474.790      613.729        0.479        0.140       82.238       24.037        0.085      330.165       -2.637      876.641
01/13/2014  07:56:00       63.334       33.041       -3.518       35.411       21.864       14.243     1253.966      478.055      202.876        0.352        0.097       71.434       11.082        0.024      330.122       -2.710      876.648
01/13/2014  07:57:00       28.268       54.850        0.408       29.258       30.977       20.206      856.005      959.602      408.293        0.302        0.111       61.706       16.877        0.075      330.129       -2.697      876.641
01/13/2014  07:58:00       29.119       47.043       -3.857       19.905       27.325       17.775      396.223      746.648      315.967        0.227        0.073       55.326       16.885        0.093      330.153       -2.656      876.635
01/13/2014  07:59:00       35.695       57.909       -2.340       14.724       23.313       17.591      216.796      543.478      309.450        0.285        0.053       68.027       12.406        0.033      330.133       -2.691      876.642
01/13/2014  08:00:00       45.998       34.741       -1.087       18.698       15.368       15.992      349.631      236.188      255.730        0.208        0.042       57.643       10.664        0.034      330.174       -2.623      876.657
01/13/2014  08:01:00       28.916       32.649        8.684       18.546       14.998       18.198      343.971      224.946      331.172        0.144        0.045       43.613       11.376        0.068      330.184       -2.606      876.673
01/13/2014  08:02:00       51.222       30.908       -1.955       10.290       11.383       10.649      105.884      129.582      113.407        0.197        0.017       59.824        6.062        0.010      330.206       -2.569      876.709
01/13/2014  08:03:00       62.246       42.926       11.054        7.678        8.576       10.698       58.947       73.550      114.456        0.304        0.012       75.612        4.242        0.003      330.221       -2.545      876.728
01/13/2014  08:04:00       67.754       45.472       13.466       16.942       12.374       15.802      287.027      153.126      249.714        0.376        0.034       81.598        4.849        0.004      330.282       -2.446      876.750
01/13/2014  08:05:00       72.831       45.797        6.982       15.639       12.279       20.187      244.564      150.782      407.529        0.413        0.040       86.034        9.645        0.013      330.291       -2.430      876.761
01/13/2014  08:06:00       80.644       54.681        1.627       15.259       12.221       11.924      232.831      149.363      142.176        0.501        0.026       97.434        4.203        0.002      330.291       -2.430      876.767
01/13/2014  08:07:00       86.317       45.654       -1.955       16.662       14.861       14.656      277.619      220.851      214.796        0.513        0.036       97.647        8.008        0.007      330.309       -2.402      876.776
01/13/2014  08:08:00       67.114       29.210        7.382       38.307       23.830       25.727     1467.430      567.872      661.886        0.405        0.135       73.195       20.393        0.078      330.343       -2.344      876.764
01/13/2014  08:09:00       49.551       30.974       10.490       26.568       16.646       20.502      705.834      277.093      420.314        0.246        0.070       58.435       18.134        0.096      330.349       -2.334      876.775
01/13/2014  08:10:00       13.577      -10.456        3.674       13.585       20.491       13.301      184.546      419.862      176.925        0.054        0.039       17.136        9.918        0.335      330.412       -2.231      876.801
01/13/2014  08:11:00       -0.023        6.291       18.787        7.794       13.725        6.940       60.744      188.386       48.160        0.034        0.015        6.291        6.508        1.070      330.558       -1.993      876.823
01/13/2014  08:12:00       36.531       34.295       31.707       20.590       15.282       11.937      423.943      233.546      142.494        0.216        0.040       50.107        3.862        0.006      330.442       -2.184      876.853
01/13/2014  08:13:00       73.710       47.132       13.119       14.518       14.627       13.171      210.772      213.946      173.480        0.421        0.030       87.490        4.312        0.002      330.391       -2.266      876.900
01/13/2014  08:14:00       55.398       36.399       13.668       14.136       15.225       16.695      199.820      231.790      278.715        0.265        0.036       66.286       11.873        0.032      330.407       -2.241      876.924
01/13/2014  08:15:00       74.522       43.347       -2.638        9.872        7.317        6.423       97.463       53.536       41.256        0.382        0.010       86.212        1.677        0.000      330.356       -2.321      876.937
01/13/2014  08:16:00       68.706       46.679        8.276       14.087       13.046       15.814      198.442      170.190      250.072        0.379        0.031       83.063        7.778        0.009      330.375       -2.294      876.953
01/13/2014  08:17:00       47.331       47.798       21.481       19.257       12.481       15.017      370.813      155.767      225.496        0.287        0.038       67.267       10.407        0.024      330.429       -2.205      876.951
01/13/2014  08:18:00       10.549       13.881       22.846       22.161       16.437       13.395      491.092      270.170      179.436        0.088        0.047       17.435       12.534        0.517      330.483       -2.117      876.945
01/13/2014  08:19:00       -3.044        6.563       22.820       11.467       15.766       17.959      131.501      248.562      322.535        0.064        0.035        7.235       12.888        3.173      330.640       -1.858      876.959
01/13/2014  08:20:00        3.756       13.142       18.246       13.667       10.527        7.333      186.786      110.825       53.772        0.044        0.018       13.668        6.795        0.247      330.584       -1.951      876.977
01/13/2014  08:21:00       -1.623       18.934        6.518        6.413        5.405        7.012       41.132       29.209       49.174        0.026        0.006       19.003        3.954        0.043      330.537       -2.026      876.991
01/13/2014  08:22:00      -23.951       28.413       -3.258       13.374       12.616       10.162      178.877      159.162      103.259        0.092        0.022       37.161        6.528        0.031      330.522       -2.052      877.009
01/13/2014  08:23:00      -17.535       10.761        0.617       18.547       17.155       14.298      343.999      294.310      204.435        0.063        0.042       20.574       11.306        0.302      330.659       -1.825      877.018
01/13/2014  08:24:00      -58.756       19.880        1.137       29.983       12.197       11.309      898.953      148.777      127.889        0.251        0.059       62.028       12.466        0.040      330.568       -1.975      877.004
01/13/2014  08:25:00      -50.295        6.731       -4.743       17.000       10.516        7.023      289.004      110.590       49.319        0.152        0.022       50.743        5.021        0.010      330.600       -1.922      877.004
01/13/2014  08:26:00      -21.836       15.052       -9.323       15.699       20.728        9.088      246.457      429.652       82.586        0.077        0.038       26.521        7.350        0.077      330.675       -1.801      877.008
01/13/2014  08:27:00       -2.060       17.409       16.677        7.148       25.284       12.112       51.095      639.271      146.694        0.071        0.042       17.531       14.725        0.706      331.073       -1.148      877.012
01/13/2014  08:28:00      -19.558       -1.821       11.090       20.847       10.272       10.688      434.618      105.509      114.231        0.058        0.033       19.642       11.934        0.369      330.905       -1.423      877.016
01/13/2014  08:29:00      -43.106       14.318       -0.562       25.719       21.422       14.409      661.454      458.910      207.606        0.170        0.066       45.422       11.907        0.069      330.702       -1.756      877.021
01/13/2014  08:30:00      -43.776       25.525       -4.572       20.766       19.729       13.571      431.242      389.228      184.164        0.180        0.050       50.674        7.877        0.024      330.649       -1.843      877.041
01/13/2014  08:31:00      -61.994       10.031       -7.731       18.354       14.591       12.188      336.874      212.909      148.551        0.235        0.035       62.800        8.881        0.020      330.604       -1.918      877.048
01/13/2014  08:32:00      -68.590       -4.787       -8.583       29.474       17.084       12.874      868.726      291.847      165.738        0.306        0.066       68.757       12.374        0.032      330.616       -1.898      877.066
01/13/2014  08:33:00     -108.862      -23.274       -7.926       26.580       21.719       15.417      706.516      471.695      237.678        0.694        0.071      111.322       15.616        0.020      330.624       -1.885      877.080
01/13/2014  08:34:00      -95.638      -11.951       -7.556       23.411       32.430       14.852      548.071     1051.703      220.571        0.558        0.091       96.382       14.138        0.022      330.662       -1.821      877.094
01/13/2014  08:35:00     -113.616        1.544      -15.596       26.871       37.540       11.998      722.042     1409.252      143.941        0.771        0.114      113.626        5.969        0.003      330.659       -1.828      877.100
01/13/2014  08:36:00     -126.461      -13.077      -11.302       25.198       23.731       18.408      634.941      563.166      338.858        0.891        0.077      127.135       13.359        0.011      330.671       -1.806      877.116
01/13/2014  08:37:00      -84.935      -19.839       -2.424       31.186       29.599       14.174      972.592      876.101      200.896        0.483        0.102       87.221       13.628        0.024      330.761       -1.659      877.116
01/13/2014  08:38:00      -55.493       47.325       -9.984       23.594       32.611       16.478      556.660     1063.473      271.531        0.365        0.095       72.932       11.663        0.026      330.883       -1.459      877.112
01/13/2014  08:39:00      -45.339       85.532       -8.538       21.035       30.210       21.906      442.471      912.649      479.861        0.564        0.092       96.805       17.254        0.032      330.927       -1.387      877.119
01/13/2014  08:40:00      -40.848       88.451       -7.839       28.415       41.720       19.059      807.425     1740.591      363.253        0.623        0.146       97.428       16.529        0.029      330.885       -1.454      877.128
01/13/2014  08:41:00      -61.289       22.975       -7.241       19.489       25.178       17.266      379.808      633.957      298.100        0.282        0.066       65.454       12.919        0.039      330.960       -1.332      877.129
01/13/2014  08:42:00      -55.539       59.696      -16.684       17.870       27.632       14.051      319.325      763.502      197.444        0.410        0.064       81.537       13.657        0.028      330.970       -1.315      877.135
01/13/2014  08:43:00      -55.588       66.826      -19.563       16.635       21.358       14.580      276.735      456.145      212.566        0.444        0.047       86.924       12.340        0.020      331.045       -1.193      877.142
01/13/2014  08:44:00      -17.779       64.544       -7.830       20.607       29.725       19.680      424.652      883.567      387.297        0.312        0.085       66.948       14.484        0.047      331.274       -0.817      877.161
01/13/2014  08:45:00       -4.870       24.810        3.508       16.366       30.079       19.368      267.830      904.726      375.115        0.110        0.077       25.284       18.089        0.512      331.584       -0.306      877.181
01/13/2014  08:46:00        5.313        5.138       12.698       22.736       16.530       11.903      516.947      273.228      141.674        0.057        0.047        7.391        6.416        0.754      331.576       -0.320      877.198
01/13/2014  08:47:00      -20.246        0.811        7.453       11.017        7.274        8.506      121.364       52.917       72.352        0.036        0.012       20.262        4.012        0.039      331.530       -0.396      877.209
01/13/2014  08:48:00       -4.373       -7.037        4.797       13.084       15.505       10.793      171.185      240.392      116.498        0.031        0.026        8.285        7.896        0.908      331.605       -0.272      877.198
01/13/2014  08:49:00       -2.761       -9.172       16.349       13.082       16.093       10.953      171.144      258.982      119.975        0.045        0.028        9.579       11.560        1.456      331.914        0.238      877.196
01/13/2014  08:50:00      -35.985        0.569        8.035       21.282       20.614       15.770      452.921      424.929      248.681        0.124        0.056       35.990       15.075        0.175      331.510       -0.428      877.204
01/13/2014  08:51:00       -6.655        5.911       22.094        9.649       12.304       12.023       93.105      151.397      144.561        0.048        0.019        8.901        7.387        0.689      332.136        0.602      877.218
01/13/2014  08:52:00      -22.801       -9.598        4.127       17.896       16.588       13.421      320.254      275.149      180.124        0.070        0.039       24.739       13.100        0.280      331.620       -0.247      877.241
01/13/2014  08:53:00        5.879      -12.471       22.099       38.659       33.407       30.962     1494.483     1116.035      958.673        0.212        0.178       13.787       19.574        2.016      331.768       -0.004      877.265
01/13/2014  08:54:00       31.148       52.915       67.963       30.325       29.307       22.866      919.604      858.905      522.871        0.534        0.115       61.402       16.942        0.076      331.867        0.159      877.282
01/13/2014  08:55:00       22.015        0.631       52.204       33.301       35.103       23.661     1108.981     1232.193      559.827        0.306        0.145       22.024       23.855        1.173      331.877        0.177      877.295
01/13/2014  08:56:00       23.910       18.465       35.010       31.558       30.402       20.433      995.931      924.280      417.511        0.224        0.117       30.210       17.162        0.323      331.949        0.294      877.296
01/13/2014  08:57:00        8.399       12.394       44.710       27.477       38.194       20.692      755.009     1458.784      428.145        0.243        0.132       14.971       10.162        0.461      332.040        0.443      877.298
01/13/2014  08:58:00        8.069       40.354       53.795       34.931       32.901       19.800     1220.186     1082.479      392.026        0.364        0.135       41.153       14.125        0.118      332.053        0.467      877.298
01/13/2014  08:59:00       94.848       76.353       53.949       58.078       46.417       41.073     3373.036     2154.501     1687.015        1.247        0.361      121.762       35.730        0.086      331.650       -0.198      877.308
01/13/2014  09:00:00      124.355       92.568       51.386       48.760       35.223       44.063     2377.578     1240.645     1941.528        1.612        0.278      155.026       35.548        0.053      331.462       -0.508      877.315
01/13/2014  09:01:00       85.761       90.196       70.370       75.092       33.488       37.452     5638.828     1121.477     1402.638        1.430        0.408      124.459       43.228        0.121      331.466       -0.499      877.307
01/13/2014  09:02:00       81.784       72.057       59.574       35.228       29.695       30.988     1241.018      881.815      960.284        0.926        0.154      109.000       24.470        0.050      331.314       -0.751      877.300
01/13/2014  09:03:00       71.432       53.733       34.781       37.119       25.341       33.714     1377.798      642.171     1136.605        0.618        0.158       89.385       18.856        0.044      331.328       -0.728      877.276
01/13/2014  09:04:00       27.941      -14.286       36.784       31.178       59.062       30.525      972.059     3488.355      931.786        0.386        0.270       31.381       28.942        0.851      331.678       -0.152      877.257
01/13/2014  09:05:00        1.863       27.819       72.795       29.925       46.458       24.193      895.502     2158.310      585.311        0.486        0.182       27.881       28.005        1.009      331.780        0.015      877.268
01/13/2014  09:06:00       33.099       -5.682       24.239       30.908       35.162       26.546      955.291     1236.360      704.697        0.231        0.145       33.584       22.272        0.440      331.778        0.012      877.279
01/13/2014  09:07:00       50.638       78.768       68.517       54.812       45.987       39.445     3004.308     2114.836     1555.933        1.007        0.334       93.640       28.854        0.095      331.766       -0.007      877.281
01/13/2014  09:08:00       64.046       74.905       40.860       36.709       22.915       27.856     1347.562      525.085      775.934        0.701        0.132       98.552       13.020        0.017      331.639       -0.217      877.291
01/13/2014  09:09:00       28.203       35.664       49.662       33.690       24.603       23.771     1135.025      605.324      565.064        0.342        0.115       45.468       18.323        0.162      331.837        0.109      877.287
01/13/2014  09:10:00        8.194       29.028       37.277       20.528       31.110       34.475      421.416      967.828     1188.532        0.244        0.129       30.162       28.753        0.909      331.955        0.303      877.283
01/13/2014  09:11:00       85.827       79.438       59.438       48.061       34.870       27.132     2309.870     1215.896      736.136        1.074        0.213      116.947       24.530        0.044      331.563       -0.341      877.279
01/13/2014  09:12:00       14.613       -1.020       53.517       26.670       49.338       22.941      711.294     2434.263      526.272        0.337        0.184       14.649       26.830        3.355      331.950        0.297      877.269
01/13/2014  09:13:00       38.973       44.107       50.739       45.858       28.553       31.369     2102.969      815.257      984.014        0.497        0.195       58.858       23.695        0.162      331.908        0.228      877.264
01/13/2014  09:14:00      -10.543       43.656       75.244       18.133       32.016       21.114      328.796     1025.018      445.813        0.474        0.090       44.911       21.632        0.232      332.093        0.532      877.271
01/13/2014  09:15:00       73.514       65.897       60.632       47.324       47.047       36.494     2239.548     2213.414     1331.802        0.960        0.289       98.725       30.716        0.097      331.853        0.137      877.292
01/13/2014  09:16:00       74.396       93.307       56.163       73.951       37.131       52.084     5468.809     1378.717     2712.747        1.348        0.478      119.335       53.580        0.202      331.777        0.012      877.319
01/13/2014  09:17:00        9.128       82.903       85.836       46.489       40.796       47.640     2161.273     1664.352     2269.556        1.021        0.305       83.404       43.425        0.271      331.946        0.289      877.344
01/13/2014  09:18:00      127.168       67.027        7.158       50.775       44.310       32.212     2578.108     1963.412     1037.623        1.315        0.279      143.751       19.450        0.018      331.762       -0.014      877.342
01/13/2014  09:19:00       79.669       53.245        5.546       37.655       34.953       29.582     1417.869     1221.714      875.122        0.636        0.176       95.824       22.168        0.054      331.830        0.099      877.335
01/13/2014  09:20:00       56.733       52.386       -1.771       37.822       38.262       27.349     1430.504     1463.967      747.975        0.480        0.182       77.220       13.505        0.031      331.995        0.370      877.331
01/13/2014  09:21:00        6.225        5.306        6.578       30.332       13.249       17.272      920.060      175.543      298.336        0.075        0.070        8.180        7.283        0.793      332.260        0.806      877.323
01/13/2014  09:22:00       37.055       29.754       10.940       30.409       31.229       29.923      924.691      975.231      895.361        0.259        0.140       47.523       16.170        0.116      332.126        0.585      877.325
01/13/2014  09:23:00       88.491       73.148       -5.863       32.677       24.226       29.835     1067.762      586.910      890.127        0.788        0.127      114.810       16.390        0.020      331.804        0.056      877.338
01/13/2014  09:24:00       72.436       79.015      -21.941       42.797       36.435       35.129     1831.544     1327.542     1234.049        0.818        0.220      107.193       25.699        0.057      332.082        0.514      877.332
01/13/2014  09:25:00       97.775       41.080        5.868       46.914       29.764       28.103     2200.920      885.866      789.765        0.758        0.194      106.054       14.082        0.018      332.122        0.579      877.336
01/13/2014  09:26:00       51.862       77.731        0.803       48.016       37.346       30.917     2305.534     1394.758      955.889        0.669        0.233       93.444       18.950        0.041      332.042        0.449      877.341
01/13/2014  09:27:00       57.572       60.017        3.787       36.226       32.436       34.909     1312.292     1052.082     1218.607        0.526        0.179       83.166       25.773        0.096      331.995        0.370      877.323
01/13/2014  09:28:00       38.149       76.447       -2.663       27.794       39.179       31.410      772.527     1534.962      986.612        0.530        0.165       85.437       27.665        0.105      332.073        0.499      877.306
01/13/2014  09:29:00       88.618       79.913        5.947       36.688       29.003       30.391     1345.990      841.198      923.600        0.869        0.156      119.329       16.516        0.019      331.791        0.035      877.295
01/13/2014  09:30:00       57.662       35.636       -4.147       37.862       28.624       20.248     1433.530      819.331      409.971        0.364        0.133       67.785       17.460        0.066      331.956        0.306      877.310
01/13/2014  09:31:00       27.928      102.003       -2.808       32.421       41.350       27.033     1051.139     1709.854      730.780        0.734        0.175      105.757       27.226        0.066      331.988        0.358      877.333
01/13/2014  09:32:00       91.973       77.125       16.631       51.748       36.980       38.705     2677.889     1367.544     1498.045        1.011        0.277      120.030       23.942        0.040      332.033        0.433      877.367
01/13/2014  09:33:00       79.594       86.894        7.637       52.689       37.453       33.070     2776.176     1402.708     1093.604        0.961        0.264      117.838       21.900        0.035      332.217        0.736      877.382
01/13/2014  09:34:00       43.091      103.951        0.731       35.519       35.007       33.858     1261.630     1225.480     1146.342        0.815        0.182      112.529       21.364        0.036      332.290        0.856      877.397
01/13/2014  09:35:00       64.306       62.387       32.632       46.040       44.402       41.721     2119.693     1971.553     1740.657        0.746        0.292       89.595       20.529        0.053      332.333        0.928      877.415
01/13/2014  09:36:00       20.160       39.803       60.249       45.239       49.010       35.294     2046.541     2402.025     1245.666        0.566        0.285       44.618       29.934        0.450      332.603        1.374      877.428
01/13/2014  09:37:00       18.470      106.462      109.149       50.797       42.967       33.757     2580.331     1846.189     1139.549        1.458        0.278      108.053       29.760        0.076      332.326        0.915      877.444
01/13/2014  09:38:00       76.636       65.747       53.863       57.515       32.741       43.831     3307.919     1071.943     1921.126        0.970        0.315      100.974       37.694        0.139      332.090        0.528      877.452
01/13/2014  09:39:00        9.088       86.209       98.167       35.311       41.640       34.866     1246.890     1733.925     1215.627        1.067        0.210       86.686       31.064        0.128      332.332        0.926      877.445
01/13/2014  09:40:00       88.759       89.565       61.190       75.007       44.220       32.309     5626.090     1955.450     1043.893        1.413        0.431      126.095       34.086        0.073      332.149        0.623      877.453
01/13/2014  09:41:00       87.682       81.326       54.106       55.064       39.899       42.362     3032.099     1591.894     1794.571        1.182        0.321      119.591       37.779        0.100      332.225        0.749      877.453
01/13/2014  09:42:00       79.265       68.443        7.573       32.073       25.941       25.688     1028.701      672.936      659.880        0.669        0.118      104.725       10.881        0.011      332.144        0.616      877.450
01/13/2014  09:43:00       75.873       40.959        6.756       32.838       23.564       28.410     1078.326      555.271      807.128        0.496        0.122       86.223       10.190        0.014      332.174        0.666      877.451
01/13/2014  09:44:00       29.401       49.623       42.942       44.995       27.269       38.439     2024.521      743.576     1477.540        0.471        0.212       57.679       34.101        0.350      332.637        1.428      877.473
01/13/2014  09:45:00       41.971       41.132       65.773       49.647       70.172       41.910     2464.831     4924.062     1756.479        0.846        0.457       58.765       36.506        0.386      332.522        1.239      877.484
01/13/2014  09:46:00       37.285       51.228       68.230       49.040       55.638       33.766     2404.874     3095.545     1140.140        0.765        0.332       63.360       26.763        0.178      332.610        1.385      877.503
01/13/2014  09:47:00       72.706       70.171       52.745       42.218       34.536       34.207     1782.349     1192.745     1170.100        0.857        0.207      101.045       25.495        0.064      332.451        1.122      877.513
01/13/2014  09:48:00       28.524       15.016       33.055       38.123       44.462       30.864     1453.391     1976.869      952.600        0.326        0.219       32.235       23.235        0.520      332.813        1.720      877.512
01/13/2014  09:49:00       21.197       42.087       79.308       38.564       40.157       25.875     1487.212     1612.571      669.495        0.614        0.188       47.124       18.123        0.148      332.891        1.849      877.498
01/13/2014  09:50:00       30.177       77.277       88.995       46.004       41.804       30.226     2116.359     1747.581      913.619        0.979        0.239       82.960       27.308        0.108      332.528        1.249      877.483
01/13/2014  09:51:00       50.502      -39.726       27.175       43.279       48.871       43.298     1873.036     2388.410     1874.689        0.550        0.307       64.254       30.217        0.221      332.733        1.588      877.474
01/13/2014  09:52:00      138.739      119.722       47.898       44.551       31.454       48.148     1984.828      989.359     2318.244        2.058        0.265      183.254       28.428        0.024      332.200        0.705      877.471
01/13/2014  09:53:00       60.734       70.417       59.194       53.266       31.631       31.922     2837.216     1000.492     1019.005        0.850        0.243       92.990       31.432        0.114      332.541        1.272      877.472
01/13/2014  09:54:00       49.561       24.429       56.844       39.291       38.379       32.583     1543.820     1472.948     1061.626        0.518        0.204       55.254       24.266        0.193      332.487        1.182      877.485
01/13/2014  09:55:00       40.996        4.325       25.901       28.720       36.416       38.576      824.852     1326.139     1488.100        0.300        0.182       41.224       33.627        0.665      332.516        1.229      877.495
01/13/2014  09:56:00       22.375       12.463       33.288       21.332       39.088       19.238      455.039     1527.840      370.095        0.206        0.118       25.612       19.852        0.601      332.861        1.799      877.508
01/13/2014  09:57:00       18.661       18.360       44.728       31.339       50.538       39.042      982.108     2554.122     1524.244        0.387        0.253       26.179       35.067        1.794      332.970        1.980      877.545
01/13/2014  09:58:00       21.197       54.302       83.275       46.363       64.012       36.164     2149.516     4097.491     1307.868        0.894        0.378       58.292       37.666        0.418      332.750        1.617      877.571
01/13/2014  09:59:00       15.371       20.738       48.434       33.961       36.177       21.027     1153.316     1308.773      442.133        0.296        0.145       25.814       11.654        0.204      333.049        2.110      877.592
01/13/2014  10:00:00       45.918        0.708       37.138       57.469       42.341       40.799     3302.688     1792.764     1664.571        0.512        0.338       45.923       29.717        0.419      332.706        1.542      877.610
01/13/2014  10:01:00       37.914       29.036       37.824       40.568       44.160       44.287     1645.738     1950.115     1961.345        0.463        0.278       47.755       33.414        0.490      332.845        1.773      877.612
01/13/2014  10:02:00       -7.217       -9.142       22.745       16.886       31.144       34.412      285.126      969.931     1184.205        0.155        0.122       11.648       26.431        5.149      332.886        1.840      877.602
01/13/2014  10:03:00        2.645       39.664       59.614       21.152       29.367       15.874      447.396      862.446      251.982        0.335        0.078       39.752       14.273        0.129      332.996        2.022      877.596
01/13/2014  10:04:00       34.710        3.002       37.492       47.777       30.818       31.521     2282.645      949.740      993.579        0.342        0.211       34.840       35.247        1.024      333.182        2.330      877.589
01/13/2014  10:05:00       -5.587       39.577       70.292       30.791       35.022       25.212      948.098     1226.573      635.665        0.467        0.141       39.970       17.497        0.192      333.319        2.557      877.580
01/13/2014  10:06:00       78.337      -83.745       14.870       45.670       46.424       38.480     2085.705     2155.199     1480.701        0.955        0.286      114.673       28.274        0.061      332.850        1.780      877.565
01/13/2014  10:07:00       71.916       13.094        9.155       49.870       50.946       35.576     2486.983     2595.525     1265.627        0.589        0.317       73.098       22.411        0.094      332.694        1.522      877.547
01/13/2014  10:08:00       28.915       50.865       38.562       47.827       49.599       28.542     2287.408     2460.058      814.654        0.524        0.278       58.509       18.697        0.102      333.142        2.263      877.532
01/13/2014  10:09:00       47.990       47.477       64.423       54.297       62.344       49.384     2948.216     3886.725     2438.782        0.899        0.464       67.507       46.097        0.466      332.976        1.990      877.552
01/13/2014  10:10:00       34.420       18.039       15.105       36.269       20.553       19.634     1315.474      422.432      385.513        0.193        0.106       38.860       11.995        0.095      332.886        1.840      877.566
01/13/2014  10:11:00       57.947       51.654       29.456       35.459       35.311       37.325     1257.349     1246.842     1393.167        0.539        0.195       77.627       18.188        0.055      332.904        1.871      877.590
01/13/2014  10:12:00       84.332       96.934       89.913       52.870       41.218       31.835     2795.188     1698.939     1013.497        1.505        0.275      128.483       14.644        0.013      332.930        1.912      877.613
01/13/2014  10:13:00      123.102       83.482       15.395       35.383       29.581       40.896     1251.959      875.048     1672.514        1.308        0.190      148.739       23.237        0.024      332.810        1.715      877.635
01/13/2014  10:14:00       41.021       57.158        7.576       48.586       29.335       26.881     2360.595      860.558      722.572        0.447        0.197       70.355       25.886        0.135      333.159        2.292      877.663
01/13/2014  10:15:00       42.602       52.783       66.096       57.858       53.872       37.569     3347.550     2902.241     1411.441        0.831        0.383       67.830       33.410        0.243      333.297        2.520      877.678
01/13/2014  10:16:00      104.066       66.831       15.804       41.206       24.497       29.066     1697.933      600.125      844.840        0.934        0.157      123.678       17.601        0.020      332.732        1.587      877.709
01/13/2014  10:17:00       29.886       -1.180       -0.423       33.997       31.938       25.959     1155.765     1020.056      673.870        0.187        0.142       29.909       15.007        0.252      333.355        2.615      877.743
01/13/2014  10:18:00      109.245       93.102       22.055       45.705       45.388       43.994     2088.971     2060.053     1935.447        1.359        0.304      143.536       24.410        0.029      332.924        1.903      877.755
01/13/2014  10:19:00       82.483       60.624       35.604       59.539       36.518       48.188     3544.951     1333.584     2322.119        0.947        0.360      102.366       23.181        0.051      333.069        2.143      877.756
01/13/2014  10:20:00       99.487       62.006       13.668       31.895       26.282       32.369     1017.273      690.725     1047.748        0.834        0.138      117.228       14.282        0.015      332.771        1.651      877.752
01/13/2014  10:21:00       28.452       42.428       11.614       47.366       22.765       26.526     2243.498      518.254      703.652        0.310        0.173       51.085       19.992        0.153      333.048        2.109      877.754
01/13/2014  10:22:00        3.458       69.216       83.376       21.304       34.551       18.226      453.843     1193.749      332.184        0.687        0.099       69.303       19.662        0.080      333.357        2.620      877.758
01/13/2014  10:23:00       52.612       43.755       69.001       50.525       54.118       32.127     2552.767     2928.800     1032.174        0.798        0.326       68.429       33.841        0.245      333.214        2.383      877.767
01/13/2014  10:24:00      116.281       77.925        4.771       69.331       49.143       29.127     4806.797     2415.038      848.409        1.384        0.404      139.977       14.387        0.011      333.069        2.142      877.768
01/13/2014  10:25:00      118.530       80.880       10.074       45.149       39.819       29.237     2038.471     1585.561      854.778        1.258        0.224      143.496        8.821        0.004      333.236        2.418      877.765
01/13/2014  10:26:00      127.838       69.707        7.493       43.890       35.746       33.844     1926.349     1277.800     1145.391        1.280        0.217      145.608       23.152        0.025      333.023        2.067      877.768
01/13/2014  10:27:00       -3.819       73.777      103.199       38.930       41.950       44.141     1515.579     1759.843     1948.444        1.066        0.261       73.876       37.432        0.257      333.518        2.884      877.753
01/13/2014  10:28:00       20.164       77.483       91.589       59.717       44.176       37.054     3566.153     1951.487     1373.020        1.084        0.345       80.064       35.100        0.192      333.497        2.850      877.750
01/13/2014  10:29:00       -4.704       92.794      109.613       29.649       49.557       29.349      879.037     2455.882      861.384        1.242        0.210       92.913       25.747        0.077      333.554        2.945      877.736
01/13/2014  10:30:00       47.433       85.949       91.505       35.635       44.664       23.121     1269.846     1994.917      534.583        1.090        0.190       98.169       28.741        0.086      333.356        2.619      877.713
01/13/2014  10:31:00       61.608       22.016       54.849       47.714       44.227       33.026     2276.623     1956.004     1090.744        0.631        0.266       65.424       34.163        0.273      333.505        2.865      877.690
01/13/2014  10:32:00       77.416       81.380       80.770       38.875       40.808       40.070     1511.241     1665.257     1605.567        1.196        0.239      112.321       28.588        0.065      333.457        2.785      877.674
01/13/2014  10:33:00       83.235       80.637       55.510       45.385       34.135       37.582     2059.843     1165.165     1412.413        1.057        0.232      115.890       31.387        0.073      333.371        2.642      877.657
01/13/2014  10:34:00      109.769       69.670       19.859       16.672       19.698       22.339      277.960      388.031      499.017        0.923        0.058      130.012        8.612        0.004      333.242        2.429      877.635
01/13/2014  10:35:00       72.539       47.029       -6.533       33.800       26.031       13.551     1142.455      677.631      183.626        0.476        0.100       86.450        7.956        0.008      333.209        2.375      877.620
01/13/2014  10:36:00       -9.887        3.823       22.907       30.460       43.326       30.035      927.842     1877.144      902.117        0.217        0.185       10.601       19.549        3.401      333.822        3.388      877.602
01/13/2014  10:37:00       23.781       36.360       99.128       43.276       79.726       36.871     1872.837     6356.208     1359.477        1.065        0.479       43.446       44.289        1.039      333.946        3.594      877.577
01/13/2014  10:38:00       20.640       59.442       82.134       44.238       45.160       31.230     1957.037     2039.461      975.331        0.784        0.249       62.924       29.770        0.224      333.904        3.524      877.591
01/13/2014  10:39:00       27.522       -2.939       22.621       26.669       43.409       33.674      711.216     1884.353     1133.950        0.250        0.186       27.679       33.388        1.455      333.718        3.218      877.589
01/13/2014  10:40:00       13.221       69.283       -7.065       22.107       31.955       19.576      488.717     1021.122      383.238        0.346        0.095       70.533       11.004        0.024      333.720        3.220      877.600
01/13/2014  10:41:00        7.706       24.342       12.936       27.323       30.250       33.522      746.531      915.088     1123.702        0.180        0.139       25.533       18.199        0.508      334.184        3.988      877.605
01/13/2014  10:42:00       31.355       46.142       77.769       52.587       54.007       40.855     2765.346     2916.755     1669.160        0.825        0.368       55.787       40.742        0.533      334.243        4.087      877.587
01/13/2014  10:43:00        9.083       65.983       81.591       38.708       41.052       40.174     1498.303     1685.281     1613.982        0.794        0.240       66.605       33.194        0.248      334.289        4.164      877.575
01/13/2014  10:44:00       42.535       35.049       57.513       71.885       40.058       34.837     5167.432     1604.641     1213.582        0.716        0.399       55.115       25.691        0.217      334.062        3.787      877.552
01/13/2014  10:45:00        3.536      -33.145       28.253       31.122       54.941       36.103      968.556     3018.538     1303.418        0.360        0.265       33.334       16.337        0.240      334.397        4.342      877.514
01/13/2014  10:46:00       56.340     -113.620      -28.735       59.062       61.644       43.202     3488.361     3799.974     1866.443        1.303        0.458      126.821       34.687        0.075      333.855        3.442      877.477
01/13/2014  10:47:00       45.369      -21.675       31.795       65.520       77.530       65.186     4292.841     6010.954     4249.278        0.904        0.728       50.281       69.360        1.903      334.164        3.955      877.433
01/13/2014  10:48:00       16.746       34.590       77.267       41.943       59.059       35.174     1759.219     3488.005     1237.198        0.696        0.324       38.431       39.328        1.047      334.097        3.844      877.402
01/13/2014  10:49:00       34.236       -6.085       45.810       31.518       56.658       38.249      993.395     3210.175     1462.994        0.449        0.283       34.773       35.325        1.032      334.161        3.950      877.388
01/13/2014  10:50:00       63.867       44.293       32.224       29.853       35.246       29.127      891.174     1242.249      848.383        0.503        0.149       77.723       20.028        0.066      333.716        3.213      877.360
01/13/2014  10:51:00       41.603       39.140       35.839       43.309       29.775       28.731     1875.661      886.539      825.447        0.407        0.179       57.121       28.866        0.255      333.949        3.600      877.337
01/13/2014  10:52:00       46.531      -88.692       10.546       32.243       42.781       37.870     1039.626     1830.189     1434.107        0.722        0.215      100.157       27.174        0.074      334.006        3.694      877.324
01/13/2014  10:53:00        8.215        6.162       40.123       30.946       41.224       40.211      957.653     1699.449     1616.913        0.299        0.214       10.269       33.027       10.344      334.207        4.028      877.305
01/13/2014  10:54:00      -11.987      -89.007      -17.355       41.949       37.840       31.191     1759.716     1431.830      972.871        0.627        0.208       89.811       24.634        0.075      334.060        3.783      877.294
01/13/2014  10:55:00      -29.176       -4.464       -6.286       32.330       43.119       24.372     1045.201     1859.224      593.992        0.220        0.175       29.516       14.392        0.238      334.026        3.727      877.285
01/13/2014  10:56:00      -59.811      -26.908       -3.669       34.322       41.866       15.135     1177.987     1752.729      229.071        0.374        0.158       65.585       15.339        0.055      333.994        3.674      877.274
01/13/2014  10:57:00      -69.753      -35.511        1.771       18.030       25.813       16.849      325.082      666.289      283.888        0.370        0.064       78.272        7.889        0.010      333.881        3.487      877.262
01/13/2014  10:58:00      -51.672       -4.230        5.116       25.696       35.512       23.743      660.296     1261.082      563.707        0.260        0.124       51.845       13.044        0.063      334.083        3.822      877.251
01/13/2014  10:59:00      -44.074      -18.304       -1.406       48.675       37.475       22.898     2369.296     1404.381      524.340        0.329        0.215       47.724       14.246        0.089      334.265        4.123      877.230
01/13/2014  11:00:00      -87.167      -62.742        2.983       63.388       48.786       32.940     4018.041     2380.061     1085.029        0.951        0.374      107.399       34.529        0.103      334.132        3.902      877.212
01/13/2014  11:01:00      -36.972      -36.356        3.190       55.051       42.481       23.808     3030.568     1804.668      566.842        0.405        0.270       51.853       27.797        0.287      334.183        3.988      877.192
01/13/2014  11:02:00      -39.125       -7.541        7.462       36.753       51.031       28.819     1350.813     2604.174      830.540        0.321        0.239       39.845       30.902        0.601      334.312        4.203      877.176
01/13/2014  11:03:00      -43.013       13.164       16.197       35.200       37.289       33.662     1239.058     1390.499     1133.132        0.302        0.188       44.983       19.272        0.184      334.369        4.297      877.170
01/13/2014  11:04:00       10.133      -17.857       16.798       25.603       36.727       27.329      655.508     1348.908      746.866        0.173        0.138       20.532       25.745        1.572      334.601        4.681      877.162
01/13/2014  11:05:00        6.046      -26.679        3.279       33.033       44.466       23.701     1091.203     1977.218      561.751        0.219        0.182       27.355       21.923        0.642      334.687        4.823      877.160
01/13/2014  11:06:00        6.236      -22.319       12.262       29.748       44.059       41.110      884.954     1941.191     1690.013        0.260        0.226       23.174       33.487        2.088      334.498        4.511      877.152
01/13/2014  11:07:00       37.692       14.884       32.323       42.354       59.040       33.479     1793.876     3485.720     1120.829        0.454        0.320       40.525       33.074        0.666      334.822        5.048      877.146
01/13/2014  11:08:00        5.797      -22.565       55.161       41.466       63.360       41.966     1719.466     4014.465     1761.135        0.554        0.375       23.298       39.991        2.946      334.982        5.315      877.139
01/13/2014  11:09:00       41.514       48.381       47.438       36.508       60.033       43.508     1332.816     3603.905     1892.907        0.657        0.341       63.751       38.116        0.357      334.503        4.518      877.167
01/13/2014  11:10:00        6.792       15.090        4.205       51.208       26.356       23.821     2622.222      694.613      567.437        0.209        0.194       16.548       20.050        1.468      334.146        3.927      877.179
01/13/2014  11:11:00       59.900       73.222       10.190       45.563       34.318       28.736     2075.980     1177.709      825.739        0.657        0.204       94.602       23.129        0.060      334.408        4.361      877.185
01/13/2014  11:12:00      101.485       68.911        7.875       41.407       29.892       30.149     1714.569      893.515      908.954        0.931        0.176      122.670       15.155        0.015      334.342        4.250      877.186
01/13/2014  11:13:00       57.783       37.262       -1.186       39.173       36.018       26.824     1534.551     1297.328      719.524        0.414        0.178       68.756       24.840        0.131      334.654        4.770      877.183
01/13/2014  11:14:00       63.066       59.280       10.163       39.827       33.500       31.915     1586.177     1122.267     1018.561        0.566        0.186       86.553       20.955        0.059      334.479        4.478      877.166
01/13/2014  11:15:00       49.010       34.699       11.015       44.735       28.028       29.134     2001.257      785.572      848.763        0.368        0.182       60.050       15.683        0.068      334.767        4.957      877.134
01/13/2014  11:16:00       36.357       27.826       16.906       38.936       31.258       36.241     1516.003      977.038     1313.418        0.309        0.190       45.783       21.918        0.229      335.090        5.494      877.103
01/13/2014  11:17:00       16.863       20.967       47.036       29.077       28.366       34.292      845.500      804.612     1175.919        0.288        0.141       26.907       24.283        0.814      335.066        5.453      877.086
01/13/2014  11:18:00       49.762      -25.852       25.837       49.049       88.798       55.326     2405.795     7885.065     3061.021        0.858        0.668       56.076       66.163        1.392      334.442        4.416      877.073
01/13/2014  11:19:00       -5.521      -21.177       15.835       33.907       48.508       21.509     1149.697     2353.005      462.618        0.235        0.198       21.885       28.242        1.665      334.690        4.830      877.043
01/13/2014  11:20:00       38.344       42.456       44.104       56.181       37.189       37.048     3156.276     1383.002     1372.523        0.556        0.296       57.208       34.210        0.358      335.067        5.454      877.032
01/13/2014  11:21:00       49.492       79.810       74.857       62.425       43.622       60.246     3896.911     1902.860     3629.624        1.192        0.471       93.910       41.042        0.191      334.724        4.885      877.002
01/13/2014  11:22:00       96.247       64.085       67.339       77.807       64.031       48.101     6053.853     4100.016     2313.714        1.518        0.623      115.630       51.130        0.196      334.541        4.579      877.009
01/13/2014  11:23:00      149.050       99.050       23.823       48.642       40.108       40.903     2366.016     1608.614     1673.090        1.912        0.282      178.960       33.014        0.034      334.361        4.282      877.009
01/13/2014  11:24:00      141.140       96.648        1.755       45.743       44.759       43.131     2092.422     2003.408     1860.311        1.761        0.298      171.060       27.074        0.025      334.476        4.474      876.989
01/13/2014  11:25:00      142.290      103.914        8.582       52.599       39.621       30.579     2766.687     1569.852      935.074        1.819        0.264      176.194       18.825        0.011      334.553        4.601      876.972
01/13/2014  11:26:00      107.861       97.172       57.896       66.144       46.598       50.787     4375.023     2171.327     2579.302        1.678        0.456      145.177       38.842        0.072      334.612        4.700      876.955
01/13/2014  11:27:00       19.439       83.527       71.223       33.585       38.454       28.816     1127.943     1478.679      830.345        0.793        0.172       85.759       17.016        0.039      334.891        5.163      876.943
01/13/2014  11:28:00       54.455       75.626       13.920       42.449       53.690       34.759     1801.894     2882.633     1208.215        0.738        0.295       93.191       36.428        0.153      334.757        4.940      876.912
01/13/2014  11:29:00       68.749       90.443       -3.901       37.423       35.056       29.529     1400.471     1228.916      871.976        0.821        0.175      113.606       17.650        0.024      334.649        4.761      876.875
01/13/2014  11:30:00        7.447       21.875       18.769       24.266       27.498       26.510      588.824      756.129      702.784        0.147        0.102       23.108       23.953        1.074      335.186        5.653      876.840
01/13/2014  11:31:00        8.744       20.513        5.112       19.486       23.496       20.606      379.706      552.055      424.587        0.094        0.068       22.298       13.084        0.344      335.006        5.355      876.801
01/13/2014  11:32:00       20.585       31.202       40.751       34.965       32.198       26.511     1222.562     1036.724      702.826        0.301        0.148       37.381       14.165        0.144      335.272        5.797      876.772
01/13/2014  11:33:00       25.098        1.996       48.814       38.327       60.043       27.744     1468.987     3605.152      769.724        0.443        0.292       25.178       29.774        1.398      335.231        5.729      876.744
01/13/2014  11:34:00        8.079       78.579       89.823       28.470       52.750       30.860      810.548     2782.522      952.318        0.943        0.227       78.993       32.899        0.173      335.335        5.900      876.733
01/13/2014  11:35:00       46.466       89.640       98.541       47.154       42.633       26.734     2223.535     1817.552      714.695        1.233        0.238      100.967       25.422        0.063      334.984        5.317      876.714
01/13/2014  11:36:00       98.478       77.450       54.016       56.659       38.293       41.589     3210.196     1466.364     1729.622        1.251        0.320      125.285       39.245        0.098      334.827        5.055      876.714
01/13/2014  11:37:00       73.511       41.568       -1.962       40.466       36.193       34.383     1637.534     1309.924     1182.218        0.563        0.206       84.450       33.775        0.160      334.655        4.772      876.715
01/13/2014  11:38:00       18.825       38.763        7.233       28.154       25.434       23.455      792.628      646.873      550.135        0.195        0.099       43.092       19.069        0.196      335.021        5.381      876.712
01/13/2014  11:39:00       56.907       44.438       30.545       46.948       49.706       39.840     2204.155     2470.650     1587.243        0.620        0.313       72.203       25.748        0.127      335.263        5.781      876.694
01/13/2014  11:40:00       21.968       57.284       82.298       49.629       50.093       27.807     2463.006     2509.350      773.249        0.814        0.287       61.352       27.922        0.207      335.486        6.153      876.690
01/13/2014  11:41:00       34.946       26.624       51.973       27.681       51.774       25.524      766.237     2680.560      651.465        0.436        0.205       43.932       29.177        0.441      335.476        6.135      876.674
01/13/2014  11:42:00      108.689       69.746       28.294       66.199       44.816       47.907     4382.256     2008.465     2295.060        1.308        0.434      129.143       33.131        0.066      335.198        5.672      876.657
01/13/2014  11:43:00       75.106       78.334        3.271       53.312       38.712       31.375     2842.191     1498.597      984.394        0.856        0.266      108.522       20.995        0.037      335.289        5.823      876.632
01/13/2014  11:44:00       34.261       89.077       56.600       62.689       54.290       64.548     3929.888     2947.365     4166.451        1.168        0.552       95.438       37.288        0.153      335.339        5.908      876.622
01/13/2014  11:45:00       75.649       71.514       34.747       44.736       36.209       36.851     2001.314     1311.073     1357.973        0.836        0.234      104.101       26.435        0.064      335.212        5.697      876.617
01/13/2014  11:46:00       64.436       57.516       -1.442       33.145       23.519       25.247     1098.573      553.121      637.391        0.488        0.114       86.372       13.936        0.026      334.887        5.156      876.628
01/13/2014  11:47:00       41.488       42.689       26.745       39.596       35.336       28.347     1567.844     1248.610      803.526        0.394        0.181       59.528       19.065        0.103      335.196        5.669      876.605
01/13/2014  11:48:00       13.139      -18.552       22.063       56.624       50.147       28.324     3206.262     2514.675      802.262        0.376        0.326       22.733       30.927        1.851      335.313        5.865      876.584
01/13/2014  11:49:00       40.135      -13.647       10.624       39.778       31.743       24.768     1582.283     1007.622      613.440        0.256        0.160       42.392       23.018        0.295      335.379        5.974      876.551
01/13/2014  11:50:00       48.308       32.571       45.126       32.295       27.481       34.623     1042.995      755.211     1198.734        0.421        0.150       58.263       15.819        0.074      335.370        5.959      876.514
01/13/2014  11:51:00       44.503       31.355       15.849       33.364       26.582       33.360     1113.171      706.580     1112.906        0.307        0.147       54.439       19.785        0.132      335.232        5.729      876.458
01/13/2014  11:52:00      100.343       61.044       16.485       42.878       32.037       32.864     1838.520     1026.345     1080.055        0.901        0.197      117.453       13.975        0.014      335.063        5.448      876.426
01/13/2014  11:53:00       11.721        5.894        5.757       36.607       24.565       16.648     1340.090      603.461      277.167        0.121        0.111       13.120       14.837        1.279      335.469        6.124      876.391
01/13/2014  11:54:00       34.308       24.708       57.727       35.385       71.963       52.847     1252.093     5178.682     2792.799        0.717        0.461       42.280       54.453        1.659      335.644        6.414      876.364
01/13/2014  11:55:00       19.573       27.064       51.020       44.690       55.594       48.626     1997.156     3090.676     2364.517        0.558        0.373       33.400       43.577        1.702      335.566        6.285      876.366
01/13/2014  11:56:00       44.459       -7.805       31.672       50.287       47.105       34.057     2528.787     2218.911     1159.908        0.447        0.295       45.139       33.192        0.541      335.517        6.203      876.360
01/13/2014  11:57:00       93.825       78.925       64.033       54.117       41.739       33.909     2928.653     1742.123     1149.833        1.248        0.291      122.606       30.359        0.061      335.268        5.789      876.362
01/13/2014  11:58:00      103.115       89.649       50.652       23.382       20.032       30.507      546.720      401.262      930.648        1.156        0.094      136.637       17.418        0.016      334.964        5.285      876.345
01/13/2014  11:59:00       95.267       62.176       22.655       36.115       29.214       31.574     1304.320      853.442      996.927        0.830        0.158      113.762       15.058        0.018      335.162        5.613      876.336
01/13/2014  12:00:00        8.728       16.425       41.319       27.608       36.433       25.257      762.203     1327.390      637.933        0.239        0.136       18.600       15.252        0.672      335.734        6.566      876.322
01/13/2014  12:01:00       65.327       70.491       52.176       48.314       24.573       33.200     2334.243      603.855     1102.268        0.800        0.202       96.107       35.594        0.137      335.321        5.876      876.299
01/13/2014  12:02:00       58.554       53.986       17.717       31.810       22.471       25.708     1011.862      504.937      660.881        0.442        0.109       79.643       11.732        0.022      335.281        5.811      876.277
01/13/2014  12:03:00       65.314       52.290       20.276       40.859       34.653       30.058     1669.485     1200.818      903.478        0.559        0.189       83.667       15.451        0.034      335.622        6.378      876.250
01/13/2014  12:04:00       39.799       67.259       38.436       47.428       42.134       46.971     2249.441     1775.258     2206.243        0.691        0.312       78.152       27.169        0.121      335.732        6.561      876.235
01/13/2014  12:05:00       88.808       87.006       21.285       61.702       31.221       50.151     3807.102      974.731     2515.084        1.160        0.365      124.326       48.456        0.152      335.467        6.122      876.215
01/13/2014  12:06:00       65.660       48.142       13.917       39.085       38.816       32.079     1527.653     1506.648     1029.043        0.544        0.203       81.418       21.182        0.068      335.380        5.975      876.203
01/13/2014  12:07:00        7.449       77.714        0.952       27.033       36.141       26.644      730.784     1306.202      709.910        0.442        0.137       78.070       24.193        0.096      335.550        6.257      876.192
01/13/2014  12:08:00       32.160       76.636       -6.684       35.060       41.709       26.447     1229.222     1739.627      699.459        0.531        0.183       83.110       18.750        0.051      335.584        6.317      876.165
01/13/2014  12:09:00       69.741       42.632       45.631       37.374       30.117       33.040     1396.784      907.029     1091.647        0.608        0.170       81.739       15.741        0.037      335.753        6.598      876.141
01/13/2014  12:10:00       48.972       18.548       33.472       58.223       48.837       42.506     3389.882     2385.086     1806.793        0.572        0.379       52.367       46.357        0.784      335.717        6.537      876.092
01/13/2014  12:11:00       46.238      -31.773       23.021       39.023       59.955       26.423     1522.795     3594.628      698.194        0.475        0.291       56.103       18.098        0.104      335.914        6.865      876.069
01/13/2014  12:12:00      -25.189       -9.251       14.878       42.592       45.289       22.255     1814.100     2051.081      495.297        0.265        0.218       26.835       12.446        0.215      336.157        7.270      876.036
01/13/2014  12:13:00      -14.585      -33.655       -0.130       35.328       33.445       23.510     1248.056     1118.596      552.700        0.213        0.146       36.679       16.763        0.209      335.706        6.517      876.000
01/13/2014  12:14:00      -53.313      -37.522        3.739       43.946       27.043       19.231     1931.212      731.305      369.835        0.365        0.152       65.193       21.352        0.107      335.618        6.371      875.974
01/13/2014  12:15:00      -64.573       23.198      -12.871       29.259       29.519       17.513      856.098      871.392      306.696        0.345        0.102       68.614       10.077        0.022      335.337        5.903      875.941
01/13/2014  12:16:00       15.263       40.118        7.332       28.260       28.239       24.603      798.615      797.458      605.297        0.205        0.110       42.923       19.216        0.200      335.863        6.781      875.910
01/13/2014  12:17:00       19.148       20.669       25.783       19.292       17.434       17.404      372.164      303.928      302.897        0.122        0.049       28.176       10.632        0.142      336.061        7.111      875.886
01/13/2014  12:18:00       -4.936       31.852       21.947       24.321       23.565       19.678      591.528      555.307      387.206        0.153        0.077       32.232       18.478        0.329      336.140        7.242      875.848
01/13/2014  12:19:00      -50.654       -3.125       -3.064       18.331       16.690       19.125      336.025      278.560      365.769        0.178        0.049       50.750       12.887        0.064      335.701        6.509      875.834
01/13/2014  12:20:00      -22.075        1.491       -0.561       19.346       15.526       16.008      374.264      241.048      256.259        0.068        0.044       22.125       16.819        0.578      335.944        6.915      875.810
01/13/2014  12:21:00       20.024      -19.127       17.032       22.576       31.420       19.572      509.694      987.192      383.052        0.147        0.094       27.691       21.736        0.616      336.322        7.546      875.807
01/13/2014  12:22:00       11.403       16.815       17.907       27.573       23.797       33.194      760.243      566.291     1101.867        0.158        0.121       20.317       24.196        1.418      336.352        7.596      875.796
01/13/2014  12:23:00       23.539       85.097        2.568       34.818       34.967       29.998     1212.308     1222.681      899.868        0.557        0.167       88.292       23.544        0.071      336.026        7.052      875.781
01/13/2014  12:24:00       35.269       68.706       -7.092       40.169       44.322       22.965     1613.549     1964.478      527.393        0.506        0.205       77.229       15.680        0.041      335.961        6.943      875.779
01/13/2014  12:25:00       59.364       48.683       22.759       35.960       26.108       33.327     1293.089      681.650     1110.720        0.475        0.154       76.774       19.551        0.065      336.042        7.079      875.756
01/13/2014  12:26:00       -5.840       35.995        5.376       18.626       29.501       25.637      346.946      870.326      657.250        0.162        0.094       36.466       21.381        0.344      336.155        7.267      875.738
01/13/2014  12:27:00       -6.056       26.874       55.058       24.869       32.277       23.737      618.471     1041.780      563.443        0.301        0.111       27.547       17.682        0.412      336.662        8.115      875.709
01/13/2014  12:28:00       94.769      102.938       80.478       80.691       46.389       47.905     6511.101     2151.926     2294.931        1.850        0.548      139.919       46.977        0.113      335.897        6.836      875.702
01/13/2014  12:29:00       77.326       56.498       -7.044       64.961       55.591       27.125     4219.931     3090.314      735.750        0.863        0.402       95.767       10.413        0.012      335.657        6.438      875.697
01/13/2014  12:30:00        2.024       75.636        5.742       44.042       64.598       38.368     1939.655     4172.903     1472.087        0.667        0.379       75.663       34.231        0.205      335.949        6.923      875.681
01/13/2014  12:31:00      110.579       67.629       -3.252       58.508       46.424       36.182     3423.171     2155.160     1309.135        1.185        0.344      129.620       14.487        0.012      335.932        6.895      875.663
01/13/2014  12:32:00       89.239       55.046        2.033       32.231       29.267       26.554     1038.810      856.530      705.139        0.680        0.130      104.851       13.541        0.017      335.659        6.441      875.665
01/13/2014  12:33:00      124.183       71.199       15.769       43.076       46.310       33.023     1855.519     2144.615     1090.544        1.291        0.255      143.146       25.650        0.032      335.746        6.583      875.653
01/13/2014  12:34:00       42.251       96.093        5.073       49.406       50.456       37.076     2440.938     2545.761     1374.615        0.870        0.318      104.972       36.403        0.120      335.854        6.765      875.661
01/13/2014  12:35:00       37.371       63.266        8.608       50.963       44.670       39.914     2597.263     1995.394     1593.093        0.583        0.309       73.479       19.926        0.074      336.046        7.085      875.646
01/13/2014  12:36:00      133.580       94.819       57.569       95.165       53.823       67.077     9056.396     2896.887     4499.268        2.330        0.823      163.812       64.645        0.156      335.927        6.884      875.642
01/13/2014  12:37:00      119.316       91.553        8.498       37.965       38.177       43.478     1441.337     1457.471     1890.375        1.374        0.239      150.393       20.237        0.018      335.950        6.924      875.642
01/13/2014  12:38:00      125.239       82.602        7.150       21.300       21.310       19.928      453.687      454.136      397.120        1.193        0.065      150.027       12.995        0.008      335.685        6.484      875.628
01/13/2014  12:39:00       55.790       26.169       -1.164       23.076       21.242       16.402      532.483      451.216      269.028        0.253        0.063       61.623       10.747        0.030      335.779        6.640      875.621
01/13/2014  12:40:00       33.329       48.337       50.021       43.120       38.609       31.545     1859.358     1490.665      995.081        0.515        0.217       58.713       25.905        0.195      336.482        7.813      875.590
01/13/2014  12:41:00       30.048       84.485       83.184       50.188       47.854       36.312     2518.832     2290.022     1318.571        1.054        0.306       89.670       31.790        0.126      336.284        7.482      875.568
01/13/2014  12:42:00       82.869      103.407      -14.118       39.067       34.578       32.951     1526.265     1195.662     1085.740        1.078        0.190      132.515       17.249        0.017      336.148        7.255      875.541
01/13/2014  12:43:00       34.763       48.346       -3.934       34.843       45.054       34.498     1214.043     2029.840     1190.105        0.400        0.222       59.547       25.618        0.185      336.364        7.617      875.527
01/13/2014  12:44:00       54.669       47.235       -6.062       41.715       37.087       23.566     1740.135     1375.471      555.361        0.446        0.184       72.249       14.755        0.042      336.126        7.220      875.512
01/13/2014  12:45:00       54.852       56.728        8.739       37.268       28.096       31.400     1388.929      789.391      985.929        0.473        0.158       78.910       21.666        0.075      336.112        7.194      875.508
01/13/2014  12:46:00       20.491       53.111        7.012       23.790       32.603       21.930      565.954     1062.974      480.929        0.270        0.105       56.927       17.752        0.097      336.249        7.425      875.515
01/13/2014  12:47:00       -1.561       17.540       -0.583       21.597       21.179       24.020      466.443      448.569      576.953        0.090        0.075       17.609        9.899        0.316      336.283        7.480      875.510
01/13/2014  12:48:00      -22.468      -10.182      -11.623       23.685       15.376       11.777      560.956      236.433      138.689        0.084        0.047       24.668       13.205        0.287      336.340        7.575      875.493
01/13/2014  12:49:00       -0.034       31.060       23.231       64.595       24.619       34.970     4172.497      606.111     1222.871        0.375        0.300       31.060       31.285        1.015      336.447        7.754      875.487
01/13/2014  12:50:00      113.326       82.176       10.863       26.945       26.429       25.200      726.059      698.488      635.058        1.089        0.103      139.985       15.537        0.012      336.008        7.022      875.478
01/13/2014  12:51:00       81.165       69.013       26.425       69.169       57.032       42.624     4784.289     3252.625     1816.769        1.095        0.493      106.539       33.130        0.097      336.423        7.715      875.467
01/13/2014  12:52:00       19.918       84.694       -7.639       42.473       54.594       29.159     1803.983     2980.460      850.262        0.663        0.282       87.005       24.853        0.082      336.447        7.754      875.472
01/13/2014  12:53:00      -25.353       18.441       19.118       30.637       35.368       31.056      938.629     1250.870      964.488        0.225        0.158       31.351       24.638        0.618      336.952        8.598      875.468
01/13/2014  12:54:00       49.854       99.649       92.497       51.648       43.713       44.471     2667.547     1910.811     1977.682        1.376        0.328      111.424       38.738        0.121      336.344        7.582      875.474
01/13/2014  12:55:00      110.135       81.219       67.163       69.617       40.716       48.641     4846.523     1657.753     2365.965        1.605        0.444      136.844       39.275        0.082      336.251        7.427      875.462
01/13/2014  12:56:00       66.864       19.650       11.821       59.272       41.690       35.516     3513.183     1738.028     1261.403        0.575        0.326       69.692       11.690        0.028      336.233        7.397      875.473
01/13/2014  12:57:00       34.862       44.028       28.614       22.381       28.056       25.609      500.905      787.125      655.828        0.296        0.097       56.159       16.959        0.091      336.226        7.386      875.457
01/13/2014  12:58:00        7.832       66.978        6.969       31.760       37.295       28.247     1008.682     1390.905      797.877        0.390        0.160       67.434       25.830        0.147      336.423        7.714      875.439
01/13/2014  12:59:00      -27.542       58.763        5.359       23.366       36.831       28.305      545.950     1356.556      801.152        0.347        0.135       64.897       23.864        0.135      336.725        8.219      875.426
01/13/2014  13:00:00      -65.321       22.196      -15.266       25.684       27.193       18.444      659.667      739.433      340.175        0.337        0.087       68.989        7.786        0.013      336.298        7.506      875.417
01/13/2014  13:01:00       -8.668       15.047       -7.839       28.446       22.215       20.128      809.181      493.488      405.142        0.104        0.085       17.365       14.916        0.738      336.499        7.843      875.408
01/13/2014  13:02:00       85.967       37.979       10.459       41.467       37.329       23.726     1719.503     1393.425      562.911        0.631        0.184       93.983       12.580        0.018      336.311        7.527      875.412
01/13/2014  13:03:00       96.247       75.550       -3.127       34.426       25.641       28.166     1185.131      657.465      793.316        0.881        0.132      122.357       19.248        0.025      336.222        7.379      875.416
01/13/2014  13:04:00       12.768       42.425       17.682       23.409       30.816       28.321      547.977      949.610      802.085        0.229        0.115       44.305        9.415        0.045      336.605        8.019      875.408
01/13/2014  13:05:00       69.650       36.935       39.596       38.961       42.474       38.019     1517.941     1804.031     1445.478        0.627        0.238       78.837       32.702        0.172      336.416        7.703      875.411
01/13/2014  13:06:00        0.899       33.051       48.685       27.449       31.539       26.890      753.431      994.739      723.096        0.297        0.124       33.063       21.457        0.421      336.804        8.351      875.401
01/13/2014  13:07:00       35.681       25.204       24.588       28.920       40.145       42.929      836.387     1611.584     1842.866        0.340        0.215       43.685       37.986        0.756      336.584        7.984      875.374
01/13/2014  13:08:00       25.984        2.607        0.320       18.874       16.583       26.760      356.227      275.005      716.073        0.101        0.067       26.114        9.708        0.138      336.610        8.027      875.349
01/13/2014  13:09:00       -3.367       16.919       -2.559       23.264       29.129       16.212      541.216      848.480      262.837        0.098        0.083       17.250       12.597        0.533      336.911        8.530      875.312
01/13/2014  13:10:00        8.604       10.107       25.980       21.039       15.960       14.398      442.639      254.721      207.303        0.088        0.045       13.273        8.827        0.442      337.381        9.317      875.279
01/13/2014  13:11:00       26.239       30.757       14.952       17.001       21.121       21.067      289.018      446.087      443.830        0.152        0.059       40.429       13.709        0.115      336.826        8.389      875.259
01/13/2014  13:12:00       35.465      -28.193       18.960       31.694       35.630       22.646     1004.520     1269.480      512.830        0.260        0.139       45.306       25.122        0.307      337.223        9.051      875.242
01/13/2014  13:13:00        3.170      -16.968       20.481       27.334       44.351       30.667      747.123     1966.986      940.455        0.219        0.183       17.261       30.791        3.182      337.298        9.179      875.221
01/13/2014  13:14:00       -1.176       21.346       12.175       23.071       16.323       29.635      532.286      266.434      878.223        0.114        0.084       21.378       12.619        0.348      337.072        8.800      875.222
01/13/2014  13:15:00       13.229       44.533       54.481       33.347       35.326       38.184     1112.029     1247.916     1458.015        0.447        0.191       46.457       27.433        0.349      337.052        8.766      875.223
01/13/2014  13:16:00       64.283       58.710       39.168       48.931       27.465       30.698     2394.206      754.314      942.368        0.660        0.205       87.058       23.650        0.074      336.704        8.182      875.222
01/13/2014  13:17:00       27.836       26.791       33.242       33.046       29.632       20.943     1092.029      878.071      438.595        0.250        0.120       38.634       17.763        0.211      337.052        8.765      875.211
01/13/2014  13:18:00       18.117       32.634        1.227       47.096       26.276       25.508     2218.024      690.435      650.648        0.248        0.178       37.326       18.963        0.258      336.964        8.618      875.202
01/13/2014  13:19:00       44.059       26.692       24.481       51.917       25.124       26.901     2695.369      631.222      723.688        0.365        0.203       51.514       19.394        0.142      337.135        8.904      875.201
01/13/2014  13:20:00       11.576       41.295       46.161       40.382       38.114       21.231     1630.683     1452.668      450.737        0.375        0.177       42.887        4.707        0.012      337.261        9.117      875.219
01/13/2014  13:21:00       25.773       14.189       36.965       45.807       40.898       30.675     2098.264     1672.653      940.955        0.347        0.236       29.421       24.079        0.670      337.087        8.826      875.237
01/13/2014  13:22:00       -2.106       30.579       15.003       25.179       41.814       23.387      633.972     1748.435      546.941        0.205        0.146       30.651       13.389        0.191      337.253        9.102      875.244
01/13/2014  13:23:00      -27.722       30.662       -3.836       32.418       55.850       27.227     1050.912     3119.237      741.321        0.332        0.246       41.336       20.478        0.245      337.102        8.849      875.247
01/13/2014  13:24:00       23.785       13.024        6.276       38.673       40.160       32.631     1495.633     1612.837     1064.803        0.247        0.209       27.118       17.979        0.440      337.302        9.184      875.235
01/13/2014  13:25:00       58.193       28.375       10.349       46.419       36.437       31.747     2154.751     1327.635     1007.864        0.439        0.225       64.742       20.517        0.100      336.928        8.560      875.222
01/13/2014  13:26:00       81.528       73.791       59.463       80.168       46.463       55.463     6426.860     2158.844     3076.151        1.364        0.583      109.963       55.787        0.257      336.867        8.457      875.213
01/13/2014  13:27:00      103.235       35.396       23.678       46.138       48.365       35.054     2128.726     2339.165     1228.748        0.908        0.285      109.135       22.225        0.041      336.845        8.420      875.184
01/13/2014  13:28:00       46.704       26.730       -7.240       49.329       43.303       31.277     2433.326     1875.134      978.278        0.412        0.264       53.812       23.454        0.190      337.220        9.048      875.161
01/13/2014  13:29:00       23.937       47.543       40.702       58.603       40.137       28.632     3434.270     1610.987      819.777        0.518        0.293       53.229       13.712        0.066      337.339        9.246      875.151
01/13/2014  13:30:00      142.191       95.571        4.027       45.927       40.669       42.316     2109.247     1653.966     1790.681        1.746        0.278      171.325       26.848        0.025      336.876        8.469      875.152
01/13/2014  13:31:00      103.510       56.803       29.613       38.654       48.170       43.015     1494.123     2320.356     1850.329        1.024        0.283      118.072       13.391        0.013      336.787        8.324      875.162
01/13/2014  13:32:00      -40.195       44.906       -8.640       33.955       35.728       31.379     1152.939     1276.523      984.627        0.356        0.171       60.267       28.854        0.229      337.083        8.818      875.148
01/13/2014  13:33:00      -30.001       38.733       15.566       23.799       20.893       25.498      566.412      436.517      650.129        0.215        0.083       48.993       16.198        0.109      337.390        9.332      875.131
01/13/2014  13:34:00       28.682       27.120       21.648       29.545       21.971       23.896      872.904      482.735      571.010        0.198        0.096       39.473       18.480        0.219      337.104        8.854      875.106
01/13/2014  13:35:00       54.527       80.895       84.216       53.674       51.492       51.247     2880.934     2651.458     2626.278        1.238        0.408       97.556       43.967        0.203      336.910        8.528      875.081
01/13/2014  13:36:00       32.797      -18.269       28.491       33.613       80.512       39.916     1129.802     6482.174     1593.290        0.571        0.460       37.542       42.123        1.259      337.213        9.035      875.047
01/13/2014  13:37:00       41.769      -48.979       15.225       38.156       57.220       35.541     1455.863     3274.146     1263.187        0.518        0.300       64.371       33.455        0.270      337.218        9.045      875.031
01/13/2014  13:38:00       80.274      -76.172        7.691       80.401       79.060       43.244     6464.267     6250.536     1870.031        1.344        0.729      110.662       48.325        0.191      337.104        8.852      875.003
01/13/2014  13:39:00       60.288      -86.360        2.832       51.130       65.687       35.922     2614.307     4314.746     1290.392        0.966        0.411      105.322       20.583        0.038      337.209        9.029      874.986
01/13/2014  13:40:00       30.907      -19.173       36.231       38.275       83.571       44.270     1464.972     6984.119     1959.814        0.652        0.520       36.371       57.661        2.513      337.268        9.128      874.981
01/13/2014  13:41:00       52.468       31.971       25.927       42.947       37.890       44.072     1844.411     1435.642     1942.324        0.483        0.261       61.441       17.579        0.082      337.122        8.883      874.980
01/13/2014  13:42:00      138.841      105.306       19.035       56.839       44.428       39.622     3230.677     1973.876     1569.942        1.875        0.339      174.259       13.267        0.006      336.990        8.660      874.964
01/13/2014  13:43:00       85.002       74.795       10.586       84.353       50.539       43.105     7115.478     2554.188     1858.029        1.223        0.576      113.224       25.257        0.050      337.031        8.730      874.959
01/13/2014  13:44:00      122.924       83.593        4.441       28.010       29.847       24.359      784.541      890.854      593.357        1.219        0.113      148.654       14.835        0.010      336.953        8.600      874.970
01/13/2014  13:45:00      102.998       66.931       40.238       40.550       34.734       40.540     1644.327     1206.475     1643.503        1.060        0.225      122.835       31.104        0.064      337.125        8.887      874.970
01/13/2014  13:46:00       50.897       45.232       29.600       42.728       39.145       38.461     1825.700     1532.327     1479.223        0.517        0.242       68.091       21.737        0.102      337.297        9.177      874.969
01/13/2014  13:47:00        5.068       66.957       -7.860       14.904       25.096       21.124      222.141      629.811      446.209        0.293        0.065       67.149       15.648        0.054      337.058        8.775      874.973
01/13/2014  13:48:00      -18.204       46.222      -19.228       26.759       34.471       22.038      716.038     1188.232      485.668        0.261        0.119       49.677       18.546        0.139      337.087        8.824      874.983
01/13/2014  13:49:00        5.949       22.690       16.251       24.057       28.641       16.865      578.753      820.301      284.420        0.125        0.084       23.457        7.117        0.092      337.469        9.465      874.997
01/13/2014  13:50:00       46.101       62.427       -9.457       39.734       33.701       21.406     1578.806     1135.732      458.225        0.464        0.159       77.604       16.598        0.046      337.315        9.207      875.015
01/13/2014  13:51:00       40.959       50.230       -3.586       26.788       27.570       24.975      717.581      760.079      623.764        0.316        0.105       64.813       15.845        0.060      337.231        9.066      875.044
01/13/2014  13:52:00       41.096        6.971       -5.796       26.037       23.032       17.076      677.917      530.463      291.593        0.164        0.075       41.683       10.540        0.064      337.131        8.897      875.058
01/13/2014  13:53:00       23.791       41.791      -14.088       25.785       35.218       24.700      664.861     1240.313      610.090        0.251        0.126       48.088       24.504        0.260      337.334        9.237      875.067
01/13/2014  13:54:00       24.635       -4.832        4.276       22.358       18.062       13.749      499.872      326.250      189.036        0.083        0.051       25.104       11.768        0.220      337.472        9.469      875.077
01/13/2014  13:55:00        4.108       11.793        7.093       23.273       25.596       14.627      541.622      655.181      213.949        0.081        0.071       12.488       14.981        1.439      337.821       10.054      875.071
01/13/2014  13:56:00      -29.339       19.042        4.992       24.279       18.246       19.428      589.493      332.918      377.445        0.127        0.065       34.977       13.063        0.139      337.542        9.586      875.057
01/13/2014  13:57:00       33.559      -27.761        0.258       18.195       21.269       15.466      331.049      452.355      239.208        0.146        0.051       43.553        4.333        0.010      337.442        9.418      875.038
01/13/2014  13:58:00       64.310       59.223       52.777       62.685       51.041       40.067     3929.425     2605.140     1605.372        0.928        0.407       87.425       33.641        0.148      337.495        9.508      875.026
01/13/2014  13:59:00       41.019       45.561       12.075       59.605       46.862       28.934     3552.699     2196.039      837.199        0.524        0.329       61.306       19.922        0.106      337.426        9.391      875.031
01/13/2014  14:00:00       58.591       31.883       13.798       36.997       24.323       24.761     1368.754      591.613      613.098        0.361        0.129       66.704       14.033        0.044      337.178        8.975      875.024
01/13/2014  14:01:00        2.485       36.775        2.131       12.975       16.928       10.102      168.339      286.554      102.059        0.096        0.028       36.858        8.100        0.048      337.340        9.248      875.014
01/13/2014  14:02:00       15.157       30.418       25.439       15.820       23.181       26.932      250.272      537.349      725.354        0.166        0.076       33.985       17.205        0.256      337.493        9.504      875.009
01/13/2014  14:03:00        5.026       22.693       41.447       34.477       40.936       44.965     1188.687     1675.774     2021.868        0.357        0.244       23.243       38.855        2.795      337.632        9.737      875.004
01/13/2014  14:04:00       10.872       20.136       28.935       32.083       35.165       29.969     1029.295     1236.575      898.159        0.226        0.158       22.884       25.503        1.242      337.634        9.740      875.017
01/13/2014  14:05:00        6.030       55.117       76.780       41.298       55.938       46.411     1705.520     3129.065     2153.944        0.798        0.349       55.446       42.734        0.594      337.757        9.946      874.990
01/13/2014  14:06:00       99.914      100.271       58.855       49.626       44.144       38.653     2462.783     1948.673     1494.058        1.470        0.295      141.553       28.293        0.040      337.300        9.182      874.981
01/13/2014  14:07:00       83.479       74.376       44.122       49.940       36.952       51.344     2493.960     1365.447     2636.176        1.047        0.325      111.806       30.811        0.076      337.317        9.209      874.976
01/13/2014  14:08:00       88.013       34.234        9.723       32.788       33.291       32.181     1075.060     1108.274     1035.622        0.612        0.161       94.436       11.977        0.016      337.401        9.350      874.962
01/13/2014  14:09:00       39.843       78.708       85.097       45.273       49.460       41.994     2049.663     2446.304     1763.461        1.064        0.313       88.218       33.472        0.144      337.424        9.388      874.941
01/13/2014  14:10:00        8.275       44.908       74.106       28.559       44.915       32.605      815.599     2017.393     1063.083        0.574        0.195       45.664       34.851        0.582      337.568        9.630      874.942
01/13/2014  14:11:00       71.866       96.485       80.941       50.206       52.984       34.804     2520.680     2807.347     1211.285        1.378        0.327      120.308       31.341        0.068      337.422        9.385      874.947
01/13/2014  14:12:00       49.456       84.958       83.830       42.410       36.926       27.314     1798.568     1363.554      746.070        1.030        0.195       98.304       16.002        0.026      337.448        9.431      874.938
01/13/2014  14:13:00       46.765       86.000       87.636       32.347       36.535       24.648     1046.325     1334.819      607.542        1.013        0.149       97.892       19.243        0.039      337.530        9.565      874.927
01/13/2014  14:14:00       79.275       93.450       71.439       47.089       33.789       38.015     2217.388     1141.724     1445.146        1.246        0.240      122.545       23.988        0.038      337.417        9.377      874.922
01/13/2014  14:15:00       74.212      105.982       68.420       40.627       41.247       49.679     1650.581     1701.329     2467.967        1.362        0.291      129.382       41.174        0.101      337.433        9.403      874.913
01/13/2014  14:16:00       62.260       23.055       17.859       43.207       39.029       38.634     1866.809     1523.275     1492.559        0.480        0.244       66.392       31.057        0.219      337.491        9.500      874.915
01/13/2014  14:17:00       27.694       25.408       44.043       45.610       37.377       26.464     2080.235     1397.076      700.363        0.376        0.209       37.583       13.211        0.124      337.855       10.110      874.920
01/13/2014  14:18:00       28.794       21.960       58.889       55.395       50.310       26.569     3068.557     2531.143      705.938        0.554        0.315       36.212       23.747        0.430      337.837       10.082      874.917
01/13/2014  14:19:00       22.109       13.012       14.338       32.909       42.340       20.688     1082.973     1792.645      427.999        0.208        0.165       25.653       16.732        0.425      337.770        9.968      874.913
01/13/2014  14:20:00       77.328     -109.724       -6.265       59.137       57.093       43.322     3497.145     3259.599     1876.801        1.334        0.432      134.235       37.796        0.079      337.609        9.698      874.898
01/13/2014  14:21:00      129.691     -105.031       -5.408       43.684       50.677       33.807     1908.332     2568.180     1142.914        1.675        0.281      166.887       30.956        0.034      337.387        9.325      874.911
01/13/2014  14:22:00       -1.000      -42.607       15.563       21.445       54.681       34.001      459.883     2989.999     1156.035        0.333        0.230       42.619       38.077        0.798      337.703        9.856      874.903
01/13/2014  14:23:00        5.313       50.866       65.988       41.105       40.785       26.532     1689.651     1663.390      703.956        0.551        0.203       51.142       22.877        0.200      337.932       10.241      874.897
01/13/2014  14:24:00       33.667       48.518       45.541       31.653       34.793       23.768     1001.899     1210.581      564.903        0.417        0.139       59.055       19.423        0.108      337.655        9.775      874.909
01/13/2014  14:25:00       79.752       24.344       38.358       54.670       44.926       41.095     2988.776     2018.375     1688.810        0.756        0.335       83.385       32.300        0.150      337.600        9.684      874.911
01/13/2014  14:26:00       46.180       -7.821       -4.378       36.557       17.839       25.147     1336.424      318.246      632.366        0.225        0.114       46.838       16.807        0.129      337.697        9.846      874.917
01/13/2014  14:27:00        1.348        9.349       20.430       13.814       15.810       12.234      190.815      249.955      149.680        0.055        0.030        9.445        8.666        0.842      338.174       10.646      874.912
01/13/2014  14:28:00       13.684      -26.249       12.368       28.709       33.337       21.869      824.201     1111.369      478.255        0.172        0.121       29.602       21.099        0.508      338.186       10.667      874.909
01/13/2014  14:29:00       33.656      -56.479       18.971       41.697       47.983       38.906     1738.669     2302.380     1513.679        0.512        0.278       65.746       32.775        0.249      337.946       10.263      874.901
01/13/2014  14:30:00       59.962       83.165       72.625       50.822       50.719       41.198     2582.853     2572.457     1697.235        1.132        0.343      102.528       33.206        0.105      337.768        9.966      874.901
01/13/2014  14:31:00      102.832       95.686       82.648       60.035       56.019       53.192     3604.205     3138.101     2829.350        1.806        0.479      140.465       44.705        0.101      337.528        9.563      874.899
01/13/2014  14:32:00       97.433        9.120       31.314       37.525       47.339       40.357     1408.120     2240.942     1628.711        0.792        0.264       97.858       30.836        0.099      337.497        9.512      874.925
01/13/2014  14:33:00       68.852       41.601        9.346       45.833       35.856       27.613     2100.632     1285.667      762.453        0.535        0.207       80.444       23.536        0.086      337.662        9.787      874.942
01/13/2014  14:34:00      105.278       70.904        0.877       57.563       47.746       30.832     3313.529     2279.681      950.599        1.133        0.327      126.928       24.431        0.037      337.590        9.666      874.958
01/13/2014  14:35:00       57.773       55.072       32.502       53.106       37.476       39.220     2820.290     1404.457     1538.215        0.659        0.288       79.816       27.349        0.117      337.764        9.959      874.968
01/13/2014  14:36:00       -4.879       93.190      119.215       36.801       58.289       45.030     1354.289     3397.592     2027.687        1.485        0.339       93.317       45.115        0.234      337.836       10.080      874.976
01/13/2014  14:37:00      110.266       87.908       57.169       37.812       37.283       40.344     1429.732     1390.034     1627.638        1.380        0.222      141.019       38.031        0.073      337.548        9.596      874.987
01/13/2014  14:38:00       49.621       90.212       84.142       51.611       44.533       33.171     2663.703     1983.178     1100.291        1.171        0.287      102.958       27.571        0.072      337.714        9.875      874.979
01/13/2014  14:39:00       65.782       67.657       77.032       53.579       46.146       36.265     2870.656     2129.475     1315.139        1.058        0.316       94.365       35.541        0.142      337.628        9.731      874.979
01/13/2014  14:40:00       31.232       84.417       91.700       42.626       40.980       29.291     1816.953     1679.392      857.942        1.043        0.218       90.009       29.209        0.105      337.716        9.877      874.976
01/13/2014  14:41:00       35.398       60.358       63.314       70.147       38.964       38.091     4920.655     1518.168     1450.931        0.840        0.394       69.972       33.252        0.226      337.897       10.182      874.968
01/13/2014  14:42:00       65.941       16.296        0.637       43.579       35.134       38.046     1899.168     1234.400     1447.515        0.460        0.229       67.925       15.718        0.054      337.700        9.850      874.977
01/13/2014  14:43:00       46.201        8.956       -8.500       35.941       33.008       30.965     1291.785     1089.499      958.846        0.281        0.167       47.061       16.887        0.129      337.777        9.980      874.972
01/13/2014  14:44:00      101.833       52.468       17.268       55.714       37.127       36.020     3104.029     1378.437     1297.406        0.960        0.289      114.555        7.680        0.004      337.749        9.934      874.964
01/13/2014  14:45:00       55.007       90.902       57.168       70.870       32.791       49.990     5022.623     1075.258     2498.997        1.158        0.430      106.250       54.321        0.261      337.809       10.035      874.957
01/13/2014  14:46:00       29.013       36.553       66.850       40.439       64.847       32.553     1635.340     4205.119     1059.684        0.677        0.345       46.668       43.231        0.858      337.871       10.140      874.965
01/13/2014  14:47:00       85.395       55.204       56.673       55.181       54.925       48.157     3044.931     3016.797     2319.063        1.096        0.419      101.684       45.146        0.197      337.727        9.897      874.970
01/13/2014  14:48:00       68.739       27.899       55.561       51.307       49.388       33.900     2632.369     2439.199     1149.196        0.740        0.311       74.185       33.049        0.198      337.701        9.853      874.983
01/13/2014  14:49:00       66.579       46.992       66.816       59.424       53.701       41.264     3531.167     2883.808     1702.717        0.961        0.406       81.493       42.932        0.278      337.720        9.885      874.995
01/13/2014  14:50:00       68.746       48.582       74.015       52.199       51.804       40.555     2724.703     2683.682     1644.710        0.981        0.353       84.179       38.859        0.213      337.744        9.926      874.982
01/13/2014  14:51:00       63.962       43.201       55.524       51.517       49.542       36.474     2653.959     2454.445     1330.346        0.774        0.322       77.184       27.217        0.124      337.815       10.044      874.985
01/13/2014  14:52:00       89.033      106.297       90.376       54.161       50.078       53.615     2933.374     2507.758     2874.543        1.785        0.416      138.658       39.025        0.079      337.768        9.965      874.986
01/13/2014  14:53:00       70.601       49.061       68.877       49.132       45.083       34.071     2413.924     2032.487     1160.826        0.887        0.280       85.974       30.792        0.128      337.840       10.085      875.000
01/13/2014  14:54:00       68.798       63.489       65.329       53.952       68.263       48.002     2910.839     4659.837     2304.194        1.145        0.494       93.616       46.821        0.250      337.861       10.120      875.009
01/13/2014  14:55:00       61.222       56.334       73.405       59.416       53.241       37.406     3530.247     2834.630     1399.202        1.004        0.388       83.196       33.485        0.162      337.912       10.207      874.999
01/13/2014  14:56:00       68.207       62.803       49.047       46.800       45.566       35.987     2190.207     2076.264     1295.047        0.828        0.278       92.717       20.835        0.050      337.839       10.085      875.003
01/13/2014  14:57:00       60.475       14.231       26.055       54.420       37.580       37.128     2961.566     1412.287     1378.455        0.514        0.288       62.126       25.658        0.171      337.885       10.161      874.989
01/13/2014  14:58:00        2.051       45.036       56.942       26.867       33.655       32.486      721.850     1132.647     1055.317        0.409        0.145       45.083       19.456        0.186      338.181       10.658      874.998
01/13/2014  14:59:00       82.368       41.997       52.673       60.202       47.621       48.554     3624.270     2267.794     2357.536        0.978        0.412       92.457       42.332        0.210      337.852       10.107      875.010
01/13/2014  15:00:00       59.311        2.296       28.634       37.185       32.236       21.717     1382.747     1039.148      471.614        0.362        0.145       59.355       19.842        0.112      337.935       10.245      875.031
01/13/2014  15:01:00       11.623       41.372       67.503       35.992       63.198       46.880     1295.406     3993.982     2197.752        0.694        0.374       42.974       49.033        1.302      338.112       10.542      875.034
01/13/2014  15:02:00        1.775       93.385      105.916       32.057       48.468       23.851     1027.655     2349.144      568.875        1.194        0.197       93.401       25.917        0.077      337.977       10.317      875.044
01/13/2014  15:03:00       64.308       58.186       60.453       34.651       56.104       35.992     1200.687     3147.696     1295.390        0.841        0.282       86.724       39.400        0.206      337.929       10.235      875.043
01/13/2014  15:04:00       38.264       21.855       38.966       39.279       25.618       21.054     1542.830      656.290      443.285        0.305        0.132       44.066       17.839        0.164      337.982       10.323      875.060
01/13/2014  15:05:00       80.632       38.416       33.496       45.505       39.643       33.566     2070.663     1571.584     1126.676        0.693        0.238       89.316       27.611        0.096      338.069       10.469      875.081
01/13/2014  15:06:00       73.569       68.294        7.190       53.638       39.749       31.861     2877.079     1579.984     1015.095        0.780        0.274      100.382       26.681        0.071      338.090       10.506      875.095
01/13/2014  15:07:00       79.778       81.265        5.657       56.403       35.842       30.019     3181.260     1284.653      901.165        0.918        0.268      113.879       18.651        0.027      338.041       10.423      875.107
01/13/2014  15:08:00       80.721       74.081       22.407       44.365       30.558       30.919     1968.279      933.770      955.982        0.818        0.193      109.563       21.750        0.039      337.982       10.324      875.101
01/13/2014  15:09:00       89.614       83.087        1.674       56.082       45.379       34.213     3145.163     2059.212     1170.545        1.065        0.319      122.206       29.510        0.058      337.992       10.340      875.105
01/13/2014  15:10:00       69.330       41.036        3.676       33.858       48.721       31.796     1146.374     2373.714     1010.994        0.552        0.227       80.564       22.662        0.079      338.016       10.380      875.128
01/13/2014  15:11:00       39.743       42.571       22.152       38.853       22.830       25.306     1509.571      521.188      640.394        0.328        0.134       58.239       12.331        0.045      338.105       10.530      875.135
01/13/2014  15:12:00       23.138       23.733        1.502       35.988       36.150       23.727     1295.127     1306.816      562.955        0.213        0.158       33.146        7.074        0.046      338.085       10.497      875.145
01/13/2014  15:13:00       17.782       73.727      -17.107       49.028       28.447       16.144     2403.750      809.247      260.642        0.476        0.174       75.841       18.652        0.060      337.957       10.281      875.137
01/13/2014  15:14:00        8.064       30.460        1.336       28.933       20.379       17.182      837.090      415.294      295.230        0.127        0.077       31.509       16.691        0.281      338.056       10.447      875.113
01/13/2014  15:15:00       -0.902       67.082       81.814       30.395       56.530       45.280      923.841     3195.645     2050.273        0.868        0.308       67.088       41.352        0.380      338.129       10.571      875.096
01/13/2014  15:16:00       84.541       87.537       93.615       60.160       52.852       45.760     3619.193     2793.383     2093.935        1.604        0.425      121.696       43.811        0.130      338.036       10.413      875.097
01/13/2014  15:17:00      118.665      119.276       97.981       60.125       49.247       32.789     3614.960     2425.238     1075.135        2.251        0.356      168.251       27.490        0.027      338.043       10.426      875.076
01/13/2014  15:18:00       58.126       98.319       97.706       67.523       44.206       39.244     4559.354     1954.127     1540.112        1.532        0.403      114.215       35.711        0.098      338.175       10.648      875.068
01/13/2014  15:19:00      119.674       88.423       64.657       57.101       58.161       49.283     3260.506     3382.750     2428.820        1.769        0.454      148.797       33.873        0.052      338.002       10.356      875.071
01/13/2014  15:20:00      101.565       53.917       29.303       61.322       51.252       43.250     3760.380     2626.770     1870.578        1.117        0.413      114.989       24.758        0.046      338.038       10.418      875.071
01/13/2014  15:21:00       52.199       34.250       48.507       58.578       50.791       40.712     3431.331     2579.693     1657.474        0.696        0.383       62.432       40.728        0.426      338.184       10.663      875.089
01/13/2014  15:22:00       55.800       40.915       59.382       54.814       54.865       39.303     3004.545     3010.128     1544.716        0.794        0.378       69.193       41.858        0.366      338.140       10.589      875.103
01/13/2014  15:23:00       36.270       30.969       36.272       33.100       29.556       21.548     1095.611      873.531      464.330        0.301        0.122       47.692       14.503        0.092      338.175       10.649      875.120
01/13/2014  15:24:00       88.766      113.889      116.594       66.631       68.357       51.182     4439.662     4672.668     2619.620        2.309        0.587      144.395       43.345        0.090      338.044       10.426      875.124
01/13/2014  15:25:00      112.395       95.511      100.057       56.513       51.375       48.176     3193.712     2639.423     2320.904        1.996        0.408      147.496       32.911        0.050      337.959       10.284      875.145
01/13/2014  15:26:00      128.986       50.021       31.667       65.594       60.037       43.120     4302.523     3604.390     1859.353        1.495        0.488      138.346       35.206        0.065      337.984       10.326      875.165
01/13/2014  15:27:00       22.460       19.575       14.494       23.363       19.183       16.972      545.845      368.001      288.064        0.115        0.060       29.793        9.577        0.103      338.141       10.591      875.174
01/13/2014  15:28:00       12.523       20.356       45.994       31.822       45.665       26.119     1012.653     2085.325      682.215        0.323        0.189       23.900       27.840        1.357      338.342       10.929      875.169
01/13/2014  15:29:00       11.615        6.490       34.120       31.944       38.536       30.005     1020.391     1485.042      900.311        0.237        0.170       13.306       18.154        1.861      338.392       11.013      875.157
01/13/2014  15:30:00       51.191      -48.888       21.796       52.375       76.308       42.824     2743.142     5822.963     1833.929        0.794        0.520       70.785       35.002        0.245      338.350       10.942      875.150
01/13/2014  15:31:00       44.517       40.692       29.912       48.466       57.767       33.456     2348.989     3337.081     1119.291        0.567        0.340       60.313       30.820        0.261      338.260       10.791      875.163
01/13/2014  15:32:00       75.451       85.444       59.035       53.910       36.923       37.766     2906.237     1363.276     1426.290        1.109        0.285      113.989       32.883        0.083      338.139       10.589      875.184
01/13/2014  15:33:00      100.041       50.973       49.945       88.252       50.723       56.974     7788.359     2572.866     3246.020        1.435        0.680      112.278       63.698        0.322      338.114       10.545      875.193
01/13/2014  15:34:00       44.428       85.042       88.020       51.243       34.630       30.331     2625.823     1199.216      919.965        1.085        0.237       95.948       25.108        0.068      338.116       10.550      875.219
01/13/2014  15:35:00       92.605       51.138       50.706       42.220       34.946       44.250     1782.554     1221.253     1958.063        0.936        0.248      105.787       33.219        0.099      338.083       10.494      875.240
01/13/2014  15:36:00       72.266       47.916       21.803       39.324       30.974       28.678     1546.354      959.403      822.450        0.566        0.166       86.708       18.501        0.046      338.121       10.558      875.248
01/13/2014  15:37:00       68.995       37.408       34.292       52.658       40.369       34.231     2772.867     1629.667     1171.777        0.645        0.279       78.483       30.258        0.149      338.202       10.692      875.247
01/13/2014  15:38:00       17.003       18.168       39.106       43.688       34.639       24.589     1908.665     1199.882      604.635        0.293        0.186       24.883       24.210        0.947      338.296       10.851      875.246
01/13/2014  15:39:00       32.534      -15.641       41.883       41.985       68.440       38.092     1762.772     4684.015     1451.016        0.548        0.395       36.099       41.713        1.335      338.375       10.983      875.245
01/13/2014  15:40:00       65.922       21.820       51.670       60.909       67.993       47.063     3709.899     4623.053     2214.938        0.902        0.527       69.439       55.313        0.635      338.257       10.785      875.242
01/13/2014  15:41:00       66.501       -2.161       36.345       80.751       50.719       33.711     6520.706     2572.447     1136.445        0.799        0.511       66.536       36.783        0.306      338.367       10.969      875.242
01/13/2014  15:42:00       44.623       50.630       71.774       43.149       35.461       27.760     1861.843     1257.478      770.604        0.680        0.194       67.488       22.646        0.113      338.269       10.806      875.262
01/13/2014  15:43:00       18.554       -8.046       17.644       36.340       55.717       31.070     1320.618     3104.394      965.366        0.305        0.270       20.223       20.470        1.025      338.401       11.027      875.265
01/13/2014  15:44:00       25.135      -15.456       27.045       31.723       47.015       27.879     1006.344     2210.398      777.245        0.280        0.200       29.507       25.746        0.761      338.344       10.931      875.270
01/13/2014  15:45:00       32.659      -54.929       -8.978       50.129       64.310       30.560     2512.906     4135.754      933.884        0.587        0.379       63.905       24.897        0.152      338.336       10.919      875.270
01/13/2014  15:46:00       95.084     -110.085      -21.695       44.394       43.250       21.017     1970.824     1870.573      441.702        1.296        0.214      145.463       21.240        0.021      338.206       10.701      875.261
01/13/2014  15:47:00       48.722      -28.972       31.591       53.532       95.347       50.576     2865.631     9091.025     2557.922        0.936        0.726       56.686       65.387        1.331      338.331       10.911      875.256
01/13/2014  15:48:00       36.285       15.770       48.390       35.616       61.341       32.694     1268.484     3762.772     1068.919        0.500        0.305       39.564       36.768        0.864      338.374       10.981      875.261
01/13/2014  15:49:00       54.965      -29.370       24.492       49.936       44.541       36.054     2493.581     1983.863     1299.923        0.513        0.289       62.319       27.687        0.197      338.362       10.963      875.254
01/13/2014  15:50:00       20.949       39.780       54.616       38.234       36.274       27.992     1461.817     1315.837      783.535        0.428        0.178       44.959       25.294        0.317      338.327       10.903      875.251
01/13/2014  15:51:00       53.502       48.052       39.370       43.653       30.332       36.735     1905.597      920.007     1349.453        0.545        0.209       71.913       25.147        0.122      338.254       10.781      875.246
01/13/2014  15:52:00       -4.361        5.775       21.178       22.069       35.596       26.716      487.039     1267.093      713.748        0.148        0.123        7.237       21.337        8.693      338.372       10.979      875.240
01/13/2014  15:53:00       38.263       65.209       58.967       46.508       41.735       23.387     2163.022     1741.820      546.930        0.682        0.223       75.606       20.683        0.075      338.333       10.914      875.245
01/13/2014  15:54:00       40.752       52.351       50.040       47.158       37.483       29.711     2223.842     1404.988      882.745        0.571        0.226       66.343       25.242        0.145      338.285       10.832      875.249
01/13/2014  15:55:00       15.813       56.818       69.789       32.701       39.609       31.839     1069.386     1568.855     1013.695        0.600        0.183       58.977       28.585        0.235      338.264       10.797      875.255
01/13/2014  15:56:00       74.015       39.411       30.883       34.391       31.436       29.049     1182.707      988.224      843.830        0.550        0.151       83.854       19.475        0.054      338.176       10.649      875.256
01/13/2014  15:57:00      101.230       54.576       12.792       45.067       34.416       30.511     2031.028     1184.482      930.917        0.877        0.207      115.004       18.799        0.027      338.181       10.659      875.246
01/13/2014  15:58:00        6.792        8.431       10.258       25.408       23.631       15.474      645.573      558.446      239.444        0.083        0.072       10.826        5.130        0.225      338.223       10.729      875.249
01/13/2014  15:59:00        5.275      -13.421       20.348       14.461       31.333       17.917      209.109      981.739      321.033        0.107        0.076       14.421       10.484        0.529      338.217       10.719      875.255
01/13/2014  16:00:00       30.557      -20.037       16.652       35.431       35.599       24.021     1255.357     1267.265      577.013        0.236        0.155       36.541       21.335        0.341      338.230       10.742      875.260
01/13/2014  16:01:00       66.512      -82.153       -4.896       37.232       48.812       19.655     1386.232     2382.609      386.300        0.768        0.208      105.703       21.802        0.043      338.224       10.729      875.269
01/13/2014  16:02:00       78.682      -74.472        4.527       22.063       27.719       23.151      486.780      768.338      535.973        0.677        0.090      108.337       11.708        0.012      338.277       10.820      875.267
01/13/2014  16:03:00       16.042       -6.264       17.246       22.195       32.995       18.679      492.615     1088.664      348.899        0.126        0.097       17.221        5.654        0.108      338.164       10.631      875.264
01/13/2014  16:04:00       17.630      -33.358       10.443       31.523       37.031       24.403      993.724     1371.258      595.503        0.225        0.148       37.730       18.204        0.233      338.250       10.773      875.249
01/13/2014  16:05:00       -0.249        5.519        6.155       18.437       21.470       22.412      339.921      460.956      502.314        0.069        0.065        5.525       16.223        8.622      338.167       10.636      875.249
01/13/2014  16:06:00       27.058      -14.010       10.482       28.390       32.875       20.248      805.989     1080.790      409.985        0.167        0.115       30.469       18.766        0.379      338.153       10.612      875.252
01/13/2014  16:07:00       63.929      -66.319        0.198       26.842       25.525       19.601      720.519      651.542      384.199        0.512        0.088       92.115        9.391        0.010      338.220       10.722      875.261
01/13/2014  16:08:00       42.835      -14.119       13.727       33.103       38.971       30.621     1095.801     1518.704      937.663        0.289        0.178       45.102       28.767        0.407      338.166       10.634      875.291
01/13/2014  16:09:00       44.043      -37.444        5.944       43.892       32.393       24.032     1926.474     1049.307      577.539        0.346        0.178       57.809       18.499        0.102      338.295       10.850      875.308
01/13/2014  16:10:00       26.652      -12.860       25.854       27.202       35.127       24.757      739.975     1233.894      612.906        0.206        0.129       29.592       24.655        0.694      338.255       10.782      875.309
01/13/2014  16:11:00       26.100       -1.978       23.544       23.714       18.769       20.923      562.359      352.290      437.752        0.130        0.068       26.175       16.938        0.419      338.253       10.778      875.311
01/13/2014  16:12:00       48.694      -59.075       -3.646       24.609       28.712       24.140      605.578      824.392      582.748        0.394        0.101       76.557       18.124        0.056      338.288       10.838      875.321
01/13/2014  16:13:00       34.947        8.132       22.367       23.364       42.222       20.880      545.900     1782.720      435.962        0.228        0.138       35.881       20.440        0.325      338.190       10.674      875.339
01/13/2014  16:14:00       30.143      -14.483       17.237       26.948       50.394       32.851      726.195     2539.581     1079.205        0.288        0.217       33.441       37.492        1.257      338.259       10.790      875.350
01/13/2014  16:15:00       70.553      -71.861      -18.769       24.700       28.888       16.152      610.102      834.523      260.900        0.610        0.085      100.706        4.328        0.002      338.279       10.821      875.367
01/13/2014  16:16:00        5.519      -28.135       -3.647       22.965       28.333       22.127      527.378      802.745      489.587        0.133        0.091       28.671       15.211        0.281      338.369       10.973      875.389
01/13/2014  16:17:00       -4.998       -3.497       15.486       13.862       23.336       15.832      192.150      544.559      250.664        0.063        0.049        6.099       10.107        2.746      338.432       11.078      875.415
01/13/2014  16:18:00        4.966        9.161        3.346       19.074       16.077       11.865      363.832      258.471      140.789        0.044        0.038       10.420        5.516        0.280      338.399       11.024      875.419
01/13/2014  16:19:00       20.609       12.850       17.815       11.366       11.908       11.281      129.196      141.794      127.264        0.065        0.020       24.287        8.637        0.126      338.267       10.802      875.419
01/13/2014  16:20:00       31.276       20.711       17.909       13.437       14.835       16.807      180.557      220.076      282.479        0.121        0.034       37.512        9.464        0.064      338.162       10.627      875.410
01/13/2014  16:21:00       27.624       24.062       30.199       20.619       19.543       13.520      425.135      381.918      182.794        0.162        0.049       36.634        7.556        0.043      338.189       10.671      875.382
01/13/2014  16:22:00        7.756       11.981       21.237       12.323       16.436       13.363      151.846      270.152      178.575        0.063        0.030       14.272       12.413        0.756      338.159       10.622      875.352
01/13/2014  16:23:00       -1.944       17.159       28.632       10.166       17.449       14.452      103.347      304.456      208.873        0.087        0.031       17.269       13.938        0.651      338.265       10.799      875.339
01/13/2014  16:24:00        1.340       -6.816        6.970        6.937       11.017        8.356       48.120      121.383       69.817        0.017        0.012        6.947        8.514        1.502      338.359       10.958      875.335
01/13/2014  16:25:00       11.134      -16.939        3.187        9.509       13.855       11.190       90.418      191.973      125.208        0.041        0.020       20.270        8.172        0.163      338.334       10.916      875.323
01/13/2014  16:26:00       39.480       -8.155       -1.824       11.981       13.910        9.631      143.537      193.477       92.755        0.103        0.021       40.314        6.378        0.025      338.247       10.770      875.326
01/13/2014  16:27:00        4.722        2.308        4.812        6.692        8.911        5.912       44.781       79.413       34.956        0.010        0.008        5.256        4.712        0.804      338.410       11.041      875.341
01/13/2014  16:28:00       -3.370       17.409       -1.084        4.819        9.165        4.239       23.223       83.997       17.972        0.022        0.006       17.732        4.427        0.062      338.327       10.904      875.362
01/13/2014  16:29:00       -6.116       22.192       -3.773        7.435        9.070        6.725       55.272       82.262       45.224        0.036        0.009       23.020        1.789        0.006      338.324       10.897      875.394
01/13/2014  16:30:00      -10.885       15.212      -13.060       11.145        7.118        5.137      124.208       50.671       26.392        0.036        0.010       18.706        4.086        0.048      338.329       10.906      875.409
01/13/2014  16:31:00        0.883       13.208       -5.075        7.544       10.435        6.665       56.911      108.899       44.420        0.021        0.011       13.238        3.405        0.066      338.289       10.841      875.411
01/13/2014  16:32:00       -2.442       17.592        0.801        5.329        9.129        6.321       28.398       83.331       39.952        0.023        0.008       17.761        6.749        0.144      338.321       10.893      875.414
01/13/2014  16:33:00       -5.960       16.602       -1.652        7.386        6.125        5.784       54.549       37.520       33.457        0.022        0.006       17.639        3.499        0.039      338.277       10.819      875.411
01/13/2014  16:34:00       -6.989       16.756        2.699       13.608       10.032        6.578      185.175      100.648       43.272        0.033        0.016       18.155        4.756        0.069      338.287       10.835      875.418
01/13/2014  16:35:00        3.191        8.726       -3.369        3.210        6.723        3.252       10.302       45.193       10.573        0.008        0.003        9.292        3.503        0.142      338.205       10.695      875.438
01/13/2014  16:36:00      -17.052       -0.896        1.476       13.893        7.575        7.991      193.024       57.382       63.851        0.030        0.016       17.075        7.781        0.208      338.280       10.825      875.470
01/13/2014  16:37:00      -37.708       24.033        0.549       14.964       13.817        9.272      223.927      190.904       85.964        0.125        0.025       44.716        6.210        0.019      338.233       10.746      875.499
01/13/2014  16:38:00      -55.866       14.991       -3.079       12.992       11.377        7.255      168.784      129.435       52.632        0.185        0.018       57.843        5.154        0.008      338.261       10.793      875.533
01/13/2014  16:39:00      -45.254       14.030       -3.782       13.094       10.453        7.950      171.442      109.264       63.203        0.130        0.017       47.379        4.717        0.010      338.208       10.704      875.554
01/13/2014  16:40:00      -60.393        6.705       -3.804        8.274        8.284        6.902       68.458       68.625       47.635        0.195        0.009       60.764        5.219        0.007      338.206       10.697      875.580
01/13/2014  16:41:00      -73.940        1.547       -7.987       11.986        9.504        9.541      143.670       90.328       91.022        0.293        0.016       73.956        6.798        0.008      337.939       10.252      875.600
01/13/2014  16:42:00      -65.297       -9.252      -12.311       22.179       21.112       14.757      491.900      445.710      217.764        0.283        0.058       65.949       12.882        0.038      337.576        9.643      875.624
01/13/2014  16:43:00      -78.110       -8.407       -9.357       32.983       22.410       19.610     1087.909      502.215      384.535        0.412        0.099       78.562       16.155        0.042      337.595        9.675      875.637
01/13/2014  16:44:00      -87.478        0.226       -6.702       38.396       28.217       20.905     1474.241      796.203      437.000        0.520        0.135       87.479       21.351        0.060      337.663        9.790      875.652
01/13/2014  16:45:00     -114.076       -1.389      -11.905       30.634       31.159       23.041      938.434      970.889      530.909        0.780        0.122      114.084       15.320        0.018      337.634        9.743      875.659
01/13/2014  16:46:00      -99.797        4.916      -15.707       37.946       27.147       17.310     1439.913      736.979      299.622        0.635        0.124       99.918        6.950        0.005      337.552        9.601      875.657
01/13/2014  16:47:00      -80.254        7.599      -14.477       29.225       24.950       21.358      854.079      622.491      456.146        0.432        0.097       80.613       15.502        0.037      337.508        9.529      875.661
01/13/2014  16:48:00     -119.839       -6.121      -10.609       34.258       23.832       16.636     1173.578      567.965      276.743        0.826        0.101      119.995        8.579        0.005      337.417        9.377      875.670
01/13/2014  16:49:00     -108.083        0.596      -16.712       50.061       34.469       23.807     2506.070     1188.129      566.761        0.811        0.213      108.085       25.720        0.057      337.328        9.229      875.671
01/13/2014  16:50:00     -135.972       39.331       -6.922       57.735       32.362       26.676     3333.322     1047.321      711.590        1.259        0.255      141.546       21.712        0.024      337.278        9.144      875.663
01/13/2014  16:51:00     -162.559       56.467       -9.976       48.121       32.211       20.220     2315.590     1037.563      408.835        1.674        0.188      172.087       22.811        0.018      337.216        9.040      875.672
01/13/2014  16:52:00     -133.408       18.024      -15.628       37.170       30.149       18.630     1381.611      908.946      347.067        1.050        0.132      134.620       12.409        0.008      337.202        9.018      875.661
01/13/2014  16:53:00     -115.207       10.299       -8.597       37.684       33.845       17.244     1420.086     1145.453      297.368        0.816        0.143      115.667       14.902        0.017      337.164        8.953      875.655
01/13/2014  16:54:00     -110.478      -11.529       -8.849       30.083       28.414       21.075      904.969      807.367      444.158        0.729        0.108      111.078       17.856        0.026      337.082        8.815      875.644
01/13/2014  16:55:00     -156.847        3.443      -18.783       23.485       25.717       16.452      551.526      661.358      270.667        1.322        0.074      156.885       11.637        0.006      336.964        8.618      875.640
01/13/2014  16:56:00     -124.157        9.332       -8.587       40.906       38.226       24.914     1673.289     1461.197      620.724        0.966        0.188      124.507       20.775        0.028      336.852        8.433      875.650
01/13/2014  16:57:00     -140.476      -15.642      -20.916       48.775       40.813       19.967     2379.047     1665.675      398.698        1.243        0.222      141.345       15.350        0.012      336.768        8.292      875.661
01/13/2014  16:58:00     -124.264       -9.505       -9.141       47.244       34.918       24.481     2231.991     1219.295      599.308        0.983        0.203      124.627       22.857        0.034      336.775        8.302      875.667
01/13/2014  16:59:00     -127.065      -16.957      -11.451       37.342       31.058       24.601     1394.395      964.619      605.211        0.976        0.148      128.191       24.810        0.037      336.606        8.021      875.670
01/13/2014  17:00:00     -129.951      -21.314       -7.553       41.087       34.604       27.575     1688.176     1197.406      760.354        1.052        0.182      131.688       27.099        0.042      336.557        7.939      875.655
01/13/2014  17:01:00     -151.738      -23.574      -18.149       34.840       23.828       17.596     1213.832      567.750      309.627        1.300        0.105      153.559       14.796        0.009      336.572        7.964      875.650
01/13/2014  17:02:00     -157.308      -16.473      -11.646       36.503       28.096       18.871     1332.449      789.372      356.127        1.381        0.124      158.168       18.012        0.013      336.550        7.927      875.657
01/13/2014  17:03:00     -158.734       -1.245      -17.348       38.230       28.075       18.753     1461.565      788.202      351.693        1.405        0.130      158.739       20.039        0.016      336.560        7.944      875.665
01/13/2014  17:04:00     -139.361        8.171      -13.088       25.315       22.464       17.103      640.849      504.618      292.500        1.055        0.072      139.600       14.029        0.010      336.559        7.943      875.673
01/13/2014  17:05:00     -140.611        1.038      -14.454       18.349       21.530       12.801      336.693      463.521      163.869        1.047        0.048      140.614        8.797        0.004      336.519        7.876      875.664
01/13/2014  17:06:00     -138.657        4.866       -8.480       31.847       23.608       20.676     1014.246      557.346      427.517        1.066        0.100      138.742       18.251        0.017      336.519        7.877      875.651
01/13/2014  17:07:00     -125.179       -0.716       -4.820       34.669       33.335       22.682     1201.949     1111.235      514.483        0.926        0.141      125.181       21.323        0.029      336.498        7.840      875.640
01/13/2014  17:08:00     -125.420       -4.495      -10.100       37.703       32.667       18.978     1421.479     1067.118      360.163        0.935        0.142      125.501       17.372        0.019      336.479        7.809      875.628
01/13/2014  17:09:00     -112.023      -13.084      -10.676       27.462       24.877       19.869      754.154      618.845      394.774        0.730        0.088      112.785       19.909        0.031      336.443        7.749      875.616
01/13/2014  17:10:00      -98.340      -18.717       -1.284       33.092       19.705       16.654     1095.097      388.296      277.359        0.589        0.088      100.106       17.526        0.031      336.423        7.714      875.615
01/13/2014  17:11:00      -84.675      -13.364       -1.549       25.140       17.176       14.452      632.032      295.009      208.857        0.424        0.057       85.724       14.028        0.027      336.450        7.759      875.626
01/13/2014  17:12:00      -77.606      -26.256        0.615       22.212       21.550       15.716      493.382      464.402      246.983        0.396        0.060       81.927       13.450        0.027      336.427        7.721      875.628
01/13/2014  17:13:00      -65.627      -36.304       -1.935       24.317       15.128       12.014      591.336      228.842      144.330        0.330        0.048       74.999        2.890        0.001      336.371        7.627      875.623
01/13/2014  17:14:00      -77.530      -66.842       -3.513       37.359       25.922       17.499     1395.662      671.938      306.219        0.643        0.119      102.366       11.826        0.013      336.448        7.757      875.621
01/13/2014  17:15:00     -125.421      -67.831       -7.626       28.589       15.226       13.158      817.353      231.834      173.140        1.081        0.061      142.588       12.195        0.007      336.651        8.095      875.622
01/13/2014  17:16:00     -157.885      -61.162       -6.817       32.305       22.028       15.931     1043.608      485.239      253.786        1.525        0.089      169.318       14.784        0.008      336.836        8.405      875.626
01/13/2014  17:17:00     -184.075      -54.637      -16.979       28.477       32.704       24.897      810.945     1069.548      619.881        1.983        0.125      192.013       14.404        0.006      336.841        8.411      875.630
01/13/2014  17:18:00     -149.702      -66.039       -5.428       35.378       32.041       20.329     1251.617     1026.653      413.263        1.475        0.135      163.621       19.239        0.014      336.765        8.288      875.629
01/13/2014  17:19:00     -143.268      -22.227       -4.574       25.154       32.855       15.626      632.712     1079.458      244.157        1.150        0.098      144.982       12.379        0.007      336.812        8.367      875.623
01/13/2014  17:20:00     -117.257      -60.017       -0.531       34.807       22.097       18.836     1211.493      488.257      354.785        0.970        0.103      131.724       18.649        0.020      336.748        8.258      875.623
01/13/2014  17:21:00     -121.060      -44.270       -9.884       31.759       17.623       14.659     1008.622      310.580      214.892        0.912        0.077      128.901       14.401        0.012      336.691        8.163      875.630
01/13/2014  17:22:00     -126.268      -25.289       -9.256       28.499       20.771       13.922      812.208      431.423      193.816        0.905        0.072      128.776        8.814        0.005      336.690        8.163      875.648
01/13/2014  17:23:00     -111.698      -56.603       -7.436       50.669       29.019       23.225     2567.395      842.128      539.414        0.984        0.197      125.221       27.116        0.047      336.584        7.984      875.658
01/13/2014  17:24:00      -85.105       -5.595       -4.958       24.845       21.536       16.384      617.271      463.787      268.440        0.432        0.067       85.288       15.018        0.031      336.486        7.821      875.658
01/13/2014  17:25:00      -99.094      -12.349       -4.930       25.645       22.852       14.613      657.686      522.196      213.525        0.569        0.070       99.860       10.909        0.012      336.424        7.717      875.661
01/13/2014  17:26:00      -97.822      -11.197       -5.424       44.357       17.289       20.114     1967.575      298.921      404.577        0.620        0.134       98.460       23.708        0.058      336.192        7.328      875.663
01/13/2014  17:27:00     -107.734        1.888       -4.631       45.149       31.742       22.918     2038.434     1007.550      525.221        0.760        0.179      107.750       22.608        0.044      336.116        7.201      875.656
01/13/2014  17:28:00     -122.289        2.649      -19.537       40.802       27.051       23.649     1664.841      731.776      559.259        0.915        0.148      122.317       23.030        0.035      336.026        7.052      875.643
01/13/2014  17:29:00     -136.785       -0.154      -15.903       37.582       20.475       23.523     1412.414      419.240      553.351        1.067        0.119      136.785       22.251        0.026      335.945        6.915      875.630
01/13/2014  17:30:00     -135.580       -6.151      -13.051       40.852       32.418       23.903     1668.921     1050.949      571.348        1.094        0.165      135.720       23.309        0.029      335.859        6.773      875.610
01/13/2014  17:31:00     -126.283       -9.786      -18.448       33.699       29.444       15.385     1135.610      866.922      236.695        0.931        0.112      126.662       14.197        0.013      335.794        6.664      875.609
01/13/2014  17:32:00      -78.563       -7.933       -0.625       53.250       28.495       20.937     2835.533      811.970      438.377        0.516        0.204       78.963       20.978        0.071      335.667        6.455      875.609
01/13/2014  17:33:00      -84.513      -13.426       -2.728       39.997       29.798       19.805     1599.771      887.897      392.223        0.510        0.144       85.572       18.503        0.047      335.631        6.394      875.619
01/13/2014  17:34:00      -79.775      -18.375       -0.074       51.076       34.189       26.731     2608.759     1168.886      714.533        0.560        0.225       81.864       24.130        0.087      335.606        6.352      875.637
01/13/2014  17:35:00      -74.394       -9.788       -3.023       47.531       38.686       20.805     2259.186     1496.641      432.846        0.491        0.209       75.035       15.828        0.044      335.689        6.489      875.655
01/13/2014  17:36:00     -120.436       49.814      -22.836       81.244       38.030       32.502     6600.599     1446.292     1056.364        1.330        0.455      130.331       25.092        0.037      335.865        6.782      875.674
01/13/2014  17:37:00     -189.154       46.722      -12.939       37.165       33.958       21.999     1381.260     1153.141      483.977        2.057        0.151      194.839       17.501        0.008      335.768        6.620      875.698
01/13/2014  17:38:00     -174.464       -3.631      -20.325       52.922       46.415       26.172     2800.759     2154.364      684.957        1.825        0.282      174.502       24.851        0.020      335.792        6.661      875.725
01/13/2014  17:39:00     -179.298       37.416      -14.966       29.342       42.157       20.511      860.980     1777.201      420.721        1.841        0.153      183.160       15.610        0.007      335.827        6.719      875.746
01/13/2014  17:40:00     -141.640        7.212      -13.762       45.174       41.785       31.440     2040.670     1746.024      988.472        1.254        0.239      141.823       27.251        0.037      335.747        6.586      875.765
01/13/2014  17:41:00     -151.473       -5.593      -18.650       40.591       63.878       33.231     1647.654     4080.402     1104.330        1.508        0.342      151.577       29.968        0.039      335.699        6.507      875.774
01/13/2014  17:42:00      -97.639      -20.304      -10.378       39.177       42.334       23.202     1534.850     1792.152      538.316        0.696        0.193       99.728       18.857        0.036      335.652        6.430      875.776
01/13/2014  17:43:00     -102.310      -10.285      -15.757       20.267       29.210       19.031      410.739      853.198      362.175        0.622        0.081      102.825       14.037        0.019      335.687        6.486      875.790
01/13/2014  17:44:00      -99.365       -8.813       -3.931       24.552       32.108       20.256      602.807     1030.925      410.303        0.600        0.102       99.755       11.280        0.013      335.767        6.620      875.803
01/13/2014  17:45:00     -118.677      -20.799      -14.867       24.441       22.413       15.856      597.362      502.330      251.417        0.804        0.068      120.485       15.512        0.017      335.566        6.285      875.802
01/13/2014  17:46:00      -89.790      -10.683      -13.576       38.224       37.273       23.734     1461.052     1389.248      563.293        0.589        0.171       90.423       17.709        0.038      335.522        6.211      875.803
01/13/2014  17:47:00      -91.442        4.617      -21.695       32.867       32.870       23.091     1080.240     1080.458      533.189        0.577        0.135       91.558       15.526        0.029      335.663        6.447      875.813
01/13/2014  17:48:00      -38.450       -1.876       -6.390       24.605       30.276       16.630      605.398      916.637      276.560        0.166        0.090       38.496        9.947        0.067      335.856        6.769      875.816
01/13/2014  17:49:00      -91.208       -7.931       -8.758       25.844       28.486       19.971      667.925      811.452      398.822        0.517        0.094       91.552       13.843        0.023      335.652        6.428      875.817
01/13/2014  17:50:00      -85.119      -29.051       -8.762       29.456       34.607       17.585      867.677     1197.642      309.245        0.527        0.119       89.940       13.087        0.021      335.412        6.029      875.823
01/13/2014  17:51:00     -127.117      -28.477       -3.196       32.756       30.711       19.178     1072.984      943.136      367.804        0.968        0.119      130.268       14.563        0.012      335.359        5.940      875.820
01/13/2014  17:52:00      -92.525        5.665       -4.705       53.574       45.391       24.717     2870.175     2060.341      610.935        0.708        0.277       92.698       23.417        0.064      335.695        6.501      875.814
01/13/2014  17:53:00     -101.620        2.084      -12.049       51.922       48.762       29.834     2695.862     2377.722      890.091        0.822        0.298      101.642       31.049        0.093      335.673        6.463      875.819
01/13/2014  17:54:00     -124.150        0.157      -19.582       48.689       32.915       23.989     2370.570     1083.413      575.488        0.991        0.201      124.150       20.646        0.028      335.650        6.427      875.824
01/13/2014  17:55:00     -103.211       20.530      -12.818       54.895       30.885       22.993     3013.453      953.908      528.696        0.787        0.225      105.233       17.667        0.028      335.708        6.523      875.830
01/13/2014  17:56:00      -71.129        6.456      -12.090       47.294       42.547       25.869     2236.710     1810.263      669.200        0.498        0.236       71.421       22.549        0.100      335.594        6.333      875.845
01/13/2014  17:57:00      -64.686       32.273      -17.679       28.871       45.907       23.682      833.542     2107.477      560.831        0.452        0.175       72.290       16.217        0.050      335.636        6.403      875.879
01/13/2014  17:58:00      -65.651        9.563      -19.910       18.107       27.062       18.474      327.854      732.361      341.300        0.310        0.070       66.344       15.082        0.052      335.568        6.288      875.931
01/13/2014  17:59:00      -60.757       -6.733      -16.720       15.161       13.700        9.814      229.865      187.701       96.312        0.226        0.026       61.129        5.484        0.008      335.480        6.142      875.985
01/13/2014  18:00:00      -63.311      -12.911      -18.746       16.203       17.016       17.879      262.550      289.536      319.672        0.270        0.044       64.614        6.947        0.012      335.458        6.105      876.026
01/13/2014  18:01:00      -50.317       -3.123       -7.040       19.390       16.933       15.691      375.974      286.736      246.214        0.175        0.045       50.414       10.903        0.047      335.522        6.212      876.065
01/13/2014  18:02:00      -44.516      -20.152       -4.291       16.276       20.883       16.339      264.903      436.099      266.949        0.169        0.048       48.865        5.566        0.013      335.534        6.232      876.098
01/13/2014  18:03:00      -64.801      -36.897      -15.391       22.222       18.583       14.471      493.803      345.326      209.399        0.342        0.052       74.569       10.429        0.020      335.257        5.770      876.106
01/13/2014  18:04:00      -93.912      -29.355      -15.560       16.103       17.202       14.702      259.313      295.917      216.156        0.535        0.039       98.393        6.981        0.005      335.192        5.663      876.106
01/13/2014  18:05:00      -97.123       -3.977      -14.481       29.476       22.616       16.425      868.847      511.502      269.778        0.565        0.083       97.204       13.581        0.020      335.096        5.504      876.106
01/13/2014  18:06:00      -93.812        4.413      -21.219       26.207       23.409       14.762      686.814      547.996      217.918        0.536        0.073       93.916       11.573        0.015      335.185        5.651      876.103
01/13/2014  18:07:00      -75.494        3.088      -21.206       28.506       20.360       18.897      812.609      414.520      357.110        0.387        0.079       75.558       16.377        0.047      335.127        5.556      876.097
01/13/2014  18:08:00      -65.146       -5.211      -14.340       33.355       31.811       22.736     1112.572     1011.956      516.946        0.356        0.132       65.354       20.350        0.097      335.042        5.414      876.077
01/13/2014  18:09:00      -81.226      -14.387      -20.749       33.923       28.090       19.968     1150.774      789.022      398.719        0.479        0.117       82.490       14.191        0.030      334.967        5.290      876.057
01/13/2014  18:10:00      -70.418      -21.889      -10.497       47.962       33.535       25.378     2300.322     1124.628      644.019        0.481        0.203       73.741       29.758        0.163      334.897        5.174      876.061
01/13/2014  18:11:00      -31.125      -11.755       -0.474       50.550       45.495       24.545     2555.263     2069.803      602.440        0.317        0.261       33.270       23.775        0.511      334.925        5.218      876.061
01/13/2014  18:12:00      -60.522       19.315      -23.186       37.395       38.483       20.874     1398.362     1480.920      435.715        0.394        0.166       63.529       16.797        0.070      335.094        5.500      876.089
01/13/2014  18:13:00      -65.134       10.055      -15.563       22.200       28.490       15.933      492.859      811.678      253.854        0.307        0.078       65.905       10.722        0.026      335.260        5.776      876.117
01/13/2014  18:14:00      -39.411       13.955      -11.358       19.538       24.698       14.420      381.725      610.011      207.929        0.154        0.060       41.809       14.479        0.120      335.291        5.825      876.146
01/13/2014  18:15:00      -17.546      -24.249       -0.693       24.311       23.205       15.338      591.012      538.489      235.258        0.113        0.068       29.931        8.914        0.089      335.243        5.747      876.181
01/13/2014  18:16:00       -2.017      -47.256       -1.121       10.252       23.106       11.999      105.108      533.878      143.966        0.151        0.039       47.299        8.492        0.032      335.122        5.548      876.199
01/13/2014  18:17:00       -7.104      -55.008       -7.685       14.568       13.821       13.199      212.223      191.010      174.214        0.186        0.029       55.465        8.727        0.025      335.056        5.437      876.215
01/13/2014  18:18:00        0.643      -75.200        3.530       12.370       16.536        8.958      153.025      273.437       80.242        0.309        0.025       75.203        5.787        0.006      335.261        5.777      876.220
01/13/2014  18:19:00      -63.044      -19.228       -8.632       24.253       16.612       17.805      588.189      275.943      317.035        0.280        0.059       65.911       14.464        0.048      335.032        5.397      876.222
01/13/2014  18:20:00      -77.720      -40.433       -8.974       20.768       13.050       10.086      431.295      170.314      101.718        0.423        0.035       87.608        5.608        0.004      335.057        5.438      876.216
01/13/2014  18:21:00      -69.438      -34.224       -9.269       11.131        7.116        6.971      123.894       50.636       48.596        0.315        0.011       77.414        3.062        0.002      335.206        5.684      876.221
01/13/2014  18:22:00      -40.024      -41.210       -5.117       15.657       17.588       10.388      245.157      309.327      107.919        0.199        0.033       57.447        6.315        0.012      335.355        5.932      876.226
01/13/2014  18:23:00      -62.113      -10.477       -7.753       26.844       16.107       11.824      720.614      259.439      139.813        0.257        0.056       62.991       12.665        0.040      335.095        5.501      876.240
01/13/2014  18:24:00      -52.583      -38.622       -4.381       19.713       13.870       10.126      388.619      192.374      102.544        0.248        0.034       65.242        8.741        0.018      335.141        5.578      876.276
01/13/2014  18:25:00      -87.357      -34.067      -14.483       14.228       15.316        7.889      202.429      234.573       62.234        0.475        0.025       93.765        7.848        0.007      335.148        5.590      876.311
01/13/2014  18:26:00      -49.093      -46.735       -2.963       29.045       19.019       12.064      843.585      361.712      145.550        0.298        0.068       67.781       14.257        0.044      335.284        5.814      876.351
01/13/2014  18:27:00      -18.930      -18.104       -8.755       21.210       14.009       10.543      449.877      196.242      111.160        0.076        0.038       26.193       12.140        0.215      335.130        5.561      876.365
01/13/2014  18:28:00      -33.645      -26.821       -3.850       32.527       32.303       20.188     1057.997     1043.464      407.574        0.219        0.125       43.027       21.290        0.245      335.413        6.030      876.376
01/13/2014  18:29:00      -61.268      -36.910       -8.948       10.791       15.190       13.041      116.442      230.741      170.058        0.286        0.026       71.527        6.312        0.008      335.246        5.750      876.381
01/13/2014  18:30:00      -45.567      -36.212       -2.356       49.174       22.334       13.656     2418.089      498.789      186.498        0.325        0.155       58.204       19.056        0.107      335.132        5.563      876.381
01/13/2014  18:31:00      -62.521      -32.802       -2.173       38.276       23.521       13.058     1465.054      553.225      170.522        0.359        0.109       70.603       13.908        0.039      335.037        5.406      876.384
01/13/2014  18:32:00      -67.358      -35.991       -9.576       30.586       22.295       16.070      935.505      497.073      258.242        0.381        0.085       76.370       15.615        0.042      335.181        5.644      876.384
01/13/2014  18:33:00      -28.988      -39.031       -5.424       43.970       25.490       18.772     1933.344      649.726      352.400        0.266        0.147       48.619       23.206        0.228      335.200        5.677      876.385
01/13/2014  18:34:00       -9.705      -22.647        5.635       33.709       22.309       25.184     1136.314      497.701      634.257        0.145        0.113       24.639       26.396        1.148      335.457        6.103      876.385
01/13/2014  18:35:00       -4.511      -13.762        3.385       11.902       10.700        9.086      141.652      114.490       82.556        0.028        0.017       14.482        6.597        0.208      335.444        6.080      876.390
01/13/2014  18:36:00      -10.756      -26.352       -3.884        9.908       12.033        6.539       98.164      144.800       42.764        0.056        0.014       28.462        7.374        0.067      335.491        6.160      876.389
01/13/2014  18:37:00      -35.105      -32.766       -0.575       24.447       13.075        9.858      597.661      170.946       97.175        0.159        0.043       48.021       12.106        0.064      335.455        6.100      876.390
01/13/2014  18:38:00      -36.785      -44.762       -6.853       18.216       15.257       10.564      331.806      232.776      111.592        0.204        0.034       57.938        8.916        0.024      335.395        5.999      876.397
01/13/2014  18:39:00      -20.101      -23.370        3.811       17.380       13.752       14.802      302.056      189.127      219.106        0.084        0.036       30.825       10.994        0.127      335.313        5.862      876.383
01/13/2014  18:40:00      -67.920      -53.535       -0.653       30.203       16.701       17.324      912.203      278.911      300.116        0.449        0.075       86.482       14.890        0.030      335.242        5.745      876.360
01/13/2014  18:41:00      -66.651      -63.357      -10.730       32.021       29.548       17.483     1025.353      873.077      305.649        0.539        0.110       91.960       13.764        0.022      335.244        5.748      876.338
01/13/2014  18:42:00      -78.088      -56.881        1.874       54.597       20.933       26.146     2980.792      438.197      683.639        0.672        0.205       96.608       30.304        0.098      335.313        5.863      876.312
01/13/2014  18:43:00      -63.364      -67.813        1.377       40.600       45.797       25.749     1648.366     2097.398      663.030        0.651        0.220       92.809       23.258        0.063      335.236        5.735      876.299
01/13/2014  18:44:00      -79.493      -60.530       -1.002       28.075       36.932       19.764      788.220     1363.979      390.597        0.626        0.127       99.915       17.584        0.031      335.261        5.776      876.292
01/13/2014  18:45:00      -77.778      -76.092       -8.517       28.734       26.899       22.790      825.671      723.537      519.392        0.699        0.103      108.809       12.562        0.013      335.271        5.793      876.268
01/13/2014  18:46:00     -100.617      -64.761       -4.754       43.099       28.344       22.024     1857.513      803.367      485.060        0.874        0.157      119.657       18.041        0.023      335.142        5.579      876.252
01/13/2014  18:47:00     -146.575      -89.236       -3.447       57.620       38.159       34.115     3320.060     1456.113     1163.853        1.770        0.297      171.602       33.207        0.037      335.065        5.452      876.234
01/13/2014  18:48:00     -138.118     -110.956        5.679       74.218       55.482       34.991     5508.311     3078.270     1224.351        2.061        0.491      177.166       32.884        0.034      335.027        5.387      876.209
01/13/2014  18:49:00     -206.884     -107.753      -10.591       64.855       81.012       35.244     4206.232     6562.950     1242.159        3.327        0.601      233.264       39.133        0.028      334.977        5.303      876.205
01/13/2014  18:50:00     -153.440     -109.851       -2.020       67.722       57.980       35.122     4586.302     3361.704     1233.577        2.240        0.459      188.709       36.968        0.038      334.978        5.305      876.197
01/13/2014  18:51:00     -131.888      -41.269        2.728       59.302       52.851       32.204     3516.757     2793.274     1037.071        1.322        0.367      138.194       34.808        0.063      334.920        5.210      876.188
01/13/2014  18:52:00     -123.242     -107.457       -9.758       69.732       65.010       39.350     4862.589     4226.290     1548.391        1.873        0.532      163.510       35.835        0.048      334.933        5.231      876.189
01/13/2014  18:53:00     -103.097      -76.299       -5.501       61.951       48.003       31.134     3837.948     2304.277      969.299        1.179        0.356      128.259       27.059        0.045      334.963        5.283      876.192
01/13/2014  18:54:00     -112.324      -98.121        3.368       69.918       53.970       37.329     4888.568     2912.807     1393.451        1.572        0.460      149.146       34.409        0.053      334.929        5.227      876.186
01/13/2014  18:55:00     -146.736      -80.848       -8.127       59.218       60.132       27.760     3506.767     3615.879      770.623        1.801        0.395      167.535       29.063        0.030      334.901        5.179      876.192
01/13/2014  18:56:00     -130.625      -70.521       -6.807       54.753       41.606       27.055     2997.869     1731.022      731.984        1.377        0.273      148.445       27.033        0.033      334.955        5.270      876.196
01/13/2014  18:57:00     -149.407      -27.261       -2.692       34.070       31.505       23.017     1160.766      992.576      529.796        1.288        0.134      151.873       16.250        0.011      334.824        5.052      876.208
01/13/2014  18:58:00     -123.306      -33.635       -1.367       36.280       27.872       19.498     1316.273      776.851      380.162        0.940        0.124      127.811       15.544        0.015      334.831        5.065      876.195
01/13/2014  18:59:00      -94.909      -38.124        1.798       33.044       27.555       19.195     1091.874      759.292      368.461        0.634        0.111      102.279       14.325        0.020      334.965        5.286      876.174
01/13/2014  19:00:00      -73.040      -50.550        8.497       61.886       42.174       25.243     3829.852     1778.654      637.198        0.710        0.312       88.827       30.856        0.121      335.109        5.524      876.148
01/13/2014  19:01:00      -70.925      -52.765        5.211       55.695       35.721       19.026     3101.905     1275.970      361.977        0.629        0.237       88.400       22.857        0.067      335.127        5.553      876.142
01/13/2014  19:02:00      -59.971      -85.730        6.462       50.930       39.684       27.952     2593.848     1574.854      781.318        0.797        0.248      104.624       25.825        0.061      335.076        5.471      876.151
01/13/2014  19:03:00      -99.044      -85.824       -2.308       35.389       32.721       21.289     1252.375     1070.692      453.234        0.998        0.139      131.056       21.238        0.026      335.015        5.369      876.151
01/13/2014  19:04:00      -65.556      -89.914       -4.947       30.028       43.507       22.841      901.707     1892.855      521.727        0.786        0.166      111.275       18.868        0.029      334.904        5.184      876.149
01/13/2014  19:05:00      -94.160      -41.802       -0.080       30.780       25.586       17.583      947.434      654.664      309.149        0.626        0.096      103.022       17.967        0.030      334.875        5.136      876.124
01/13/2014  19:06:00      -76.384      -30.942        4.025       61.874       18.915       20.293     3828.369      357.790      411.798        0.570        0.230       82.413       28.972        0.124      334.763        4.950      876.109
01/13/2014  19:07:00      -97.269      -54.400       -8.575       39.884       19.364       13.760     1590.739      374.953      189.349        0.732        0.108      111.448       14.998        0.018      334.716        4.872      876.107
01/13/2014  19:08:00     -100.542      -56.034       -4.055       30.996       24.142       20.557      960.771      582.854      422.583        0.762        0.098      115.102       17.552        0.023      334.712        4.866      876.103
01/13/2014  19:09:00      -79.712      -35.670      -10.852       33.742       23.798       20.304     1138.542      566.348      412.234        0.493        0.106       87.329        7.859        0.008      334.693        4.834      876.113
01/13/2014  19:10:00      -81.451      -26.795       -5.612       14.867       18.678       11.393      221.020      348.880      129.811        0.404        0.035       85.746        7.996        0.009      334.682        4.816      876.131
01/13/2014  19:11:00      -58.731      -13.093      -11.623       17.188       13.996        9.831      295.415      195.880       96.645        0.217        0.029       60.173        5.771        0.009      334.719        4.878      876.128
01/13/2014  19:12:00      -52.113      -13.139      -10.919       20.243       10.863       14.068      409.775      118.002      197.912        0.187        0.036       53.744       13.707        0.065      334.771        4.964      876.135
01/13/2014  19:13:00      -29.724       -5.677       -5.358        9.856       14.368        6.487       97.143      206.451       42.085        0.064        0.017       30.261        3.770        0.016      334.735        4.903      876.137
01/13/2014  19:14:00      -34.159       -6.123        1.260        9.317       12.158        7.282       86.808      147.809       53.031        0.075        0.014       34.704        6.526        0.035      334.758        4.943      876.136
01/13/2014  19:15:00      -19.921      -11.618       -2.268       15.372        7.040        5.674      236.285       49.557       32.196        0.043        0.016       23.061        3.823        0.027      334.758        4.941      876.145
01/13/2014  19:16:00       -3.827       -7.163       -2.605        3.840        5.597        3.185       14.744       31.325       10.142        0.006        0.003        8.121        1.007        0.015      334.750        4.931      876.164
01/13/2014  19:17:00       15.898        7.338        4.573       15.313        6.843        7.292      234.501       46.822       53.168        0.033        0.017       17.510        5.386        0.095      334.659        4.775      876.177
01/13/2014  19:18:00       25.349       14.106       10.473        9.893        6.555        8.950       97.870       42.973       80.103        0.059        0.011       29.010        5.589        0.037      334.485        4.489      876.182
01/13/2014  19:19:00       45.543        9.493        6.925       14.020       14.728       13.770      196.558      216.901      189.600        0.141        0.030       46.522       11.320        0.059      334.518        4.544      876.193
01/13/2014  19:20:00       29.423       -6.052        3.242       14.157       11.229       10.269      200.428      126.081      105.454        0.067        0.022       30.039        6.866        0.052      334.681        4.814      876.224
01/13/2014  19:21:00        3.369       11.051       18.038        8.706       10.320        9.864       75.787      106.510       97.308        0.037        0.014       11.553        8.209        0.505      334.543        4.584      876.242
01/13/2014  19:22:00       16.585       -8.021       14.820       13.917       26.665       15.998      193.670      711.007      255.922        0.086        0.058       18.423       19.951        1.173      334.551        4.598      876.261
01/13/2014  19:23:00      -15.221      -35.677       -0.618       32.756       13.486        9.901     1072.981      181.882       98.025        0.143        0.068       38.788        7.475        0.037      334.486        4.491      876.281
01/13/2014  19:24:00      -50.177      -21.870       -8.697        4.639        6.878        4.644       21.521       47.310       21.567        0.158        0.005       54.736        2.166        0.002      334.233        4.071      876.295
01/13/2014  19:25:00      -53.123      -17.343       -5.853        9.742       11.220        8.441       94.902      125.894       71.249        0.172        0.015       55.882        7.271        0.017      334.221        4.051      876.299
01/13/2014  19:26:00      -50.441       -6.689       -4.721       10.441        9.901        6.388      109.019       98.024       40.811        0.143        0.012       50.882        4.448        0.008      334.157        3.944      876.313
01/13/2014  19:27:00      -42.644      -28.904       -6.932       11.038        6.585        8.399      121.843       43.362       70.547        0.147        0.012       51.517        3.854        0.006      334.110        3.866      876.334
01/13/2014  19:28:00      -47.148      -29.345       -6.550        8.756        6.646        5.030       76.664       44.163       25.301        0.164        0.007       55.535        1.682        0.001      334.194        4.005      876.360
01/13/2014  19:29:00      -56.087      -27.899      -10.664       16.421       13.562        8.362      269.634      183.916       69.918        0.228        0.026       62.643        7.210        0.013      334.358        4.279      876.374
01/13/2014  19:30:00      -53.614      -23.471       -9.911        7.861       11.216       10.740       61.799      125.804      115.341        0.191        0.015       58.527        7.005        0.014      334.323        4.221      876.374
01/13/2014  19:31:00      -71.686      -31.196       -9.739       11.657       10.768        7.432      135.878      115.961       55.233        0.326        0.015       78.180        6.078        0.006      334.243        4.087      876.371
01/13/2014  19:32:00      -96.141      -51.084       -9.545       16.162       17.834        8.518      261.212      318.046       72.554        0.630        0.033      108.870        5.088        0.002      334.116        3.876      876.362
01/13/2014  19:33:00     -132.948      -61.213      -17.067       11.502       14.762        8.144      132.288      217.904       66.320        1.106        0.021      146.363        5.885        0.002      334.059        3.782      876.371
01/13/2014  19:34:00     -134.551      -60.081      -13.392       17.952       19.212       11.483      322.266      369.082      131.865        1.136        0.041      147.355        5.699        0.001      333.936        3.577      876.377
01/13/2014  19:35:00     -103.248      -29.129      -13.772       18.982       19.673       13.042      360.334      387.012      170.101        0.631        0.046      107.278       10.606        0.010      333.883        3.490      876.375
01/13/2014  19:36:00      -97.132      -24.639       -8.049       31.741       21.226        9.858     1007.498      450.531       97.186        0.583        0.078      100.208       13.004        0.017      333.856        3.444      876.373
01/13/2014  19:37:00      -53.267       -9.215       -1.805       18.457       14.304       11.303      340.652      204.602      127.767        0.180        0.034       54.058       10.242        0.036      333.807        3.364      876.377
01/13/2014  19:38:00      -60.496       -1.481       -0.545       25.474       12.980       11.637      648.947      168.479      135.423        0.231        0.048       60.514       13.380        0.049      333.780        3.319      876.381
01/13/2014  19:39:00     -100.055       11.270      -11.176       32.919       15.428       11.067     1083.684      238.027      122.484        0.585        0.072      100.688        9.177        0.008      333.866        3.462      876.369
01/13/2014  19:40:00     -138.754      -29.059      -14.952       34.279       26.112       16.056     1175.041      681.835      257.806        1.122        0.106      141.765       14.517        0.010      333.808        3.366      876.339
01/13/2014  19:41:00     -178.794      -51.885      -11.661       33.018       36.405       19.161     1090.165     1325.294      367.158        1.879        0.139      186.170       18.885        0.010      333.721        3.219      876.317
01/13/2014  19:42:00     -156.123      -96.351       -1.912       57.504       32.096       23.010     3306.763     1030.133      529.454        1.926        0.243      183.461       21.629        0.014      333.698        3.181      876.292
01/13/2014  19:43:00     -157.460      -89.036       -3.921       52.451       32.474       26.139     2751.070     1054.543      683.265        1.861        0.224      180.889       11.497        0.004      333.806        3.360      876.266
01/13/2014  19:44:00     -171.565      -73.099       -0.899       49.123       39.915       26.557     2413.107     1593.242      705.277        1.974        0.236      186.489       20.919        0.013      333.862        3.455      876.242
01/13/2014  19:45:00     -131.942      -82.742       -3.122       40.285       29.805       19.305     1622.873      888.331      372.700        1.357        0.144      155.740       19.169        0.015      333.940        3.585      876.236
01/13/2014  19:46:00      -89.108      -47.559        1.122       48.050       28.307       22.716     2308.779      801.272      516.013        0.691        0.181      101.005       19.830        0.039      333.990        3.667      876.226
01/13/2014  19:47:00      -86.466      -45.810       -1.349       45.219       41.548       19.814     2044.736     1726.269      392.599        0.687        0.208       97.852       21.097        0.046      334.052        3.770      876.220
01/13/2014  19:48:00      -94.999      -46.924       -0.717       25.739       20.909       14.942      662.492      437.206      223.271        0.627        0.066      105.956       12.927        0.015      334.081        3.818      876.239
01/13/2014  19:49:00      -71.473      -35.841        4.710       32.086       15.179       12.929     1029.481      230.408      167.161        0.392        0.071       79.957       15.576        0.038      334.081        3.819      876.250
01/13/2014  19:50:00      -50.655      -37.585        6.173       38.398       19.749       14.470     1474.382      390.030      209.370        0.304        0.104       63.076       12.595        0.040      334.178        3.980      876.251
01/13/2014  19:51:00       -0.762      -11.055        4.984       12.694        7.713        9.021      161.132       59.495       81.371        0.022        0.015       11.081        4.809        0.188      334.124        3.889      876.253
01/13/2014  19:52:00       -4.336       -9.310        0.969       15.201       10.704       10.845      231.077      114.572      117.605        0.028        0.023       10.270        9.043        0.775      334.076        3.812      876.275
01/13/2014  19:53:00      -17.133       -8.071       -0.687        8.224        5.510        3.901       67.631       30.362       15.220        0.024        0.006       18.939        1.953        0.011      334.042        3.754      876.295
01/13/2014  19:54:00        5.422       -5.239       -3.068        6.871        7.102        4.829       47.206       50.445       23.321        0.009        0.006        7.539        2.839        0.142      334.356        4.274      876.326
01/13/2014  19:55:00       26.414        9.396        5.263       12.117        7.128        8.195      146.824       50.814       67.160        0.054        0.013       28.035        4.310        0.024      334.343        4.254      876.375
01/13/2014  19:56:00       20.761        9.699        6.208       14.819        7.110        6.028      219.610       50.547       36.338        0.044        0.015       22.915        5.630        0.060      334.181        3.983      876.398
01/13/2014  19:57:00       -1.314      -21.734        6.708        7.533       10.027        9.440       56.741      100.531       89.110        0.038        0.012       21.774        6.115        0.079      334.184        3.989      876.397
01/13/2014  19:58:00        0.275      -25.433        4.520        7.205       10.501        7.214       51.913      110.274       52.039        0.044        0.011       25.434        7.120        0.078      334.222        4.054      876.399
01/13/2014  19:59:00       -1.117      -34.017       -1.769       12.648       11.327       10.380      159.962      128.309      107.750        0.078        0.020       34.035        7.612        0.050      334.185        3.991      876.393
01/13/2014  20:00:00      -12.637      -16.954       -0.071        9.167        6.929        6.385       84.033       48.017       40.774        0.031        0.009       21.145        2.892        0.019      334.392        4.336      876.375
01/13/2014  20:01:00      -13.227      -15.581       -4.206        8.540        8.251        7.002       72.928       68.084       49.030        0.031        0.010       20.438        5.895        0.083      334.225        4.057      876.366
01/13/2014  20:02:00      -15.262       -6.655       -0.323       10.968        6.449        7.154      120.290       41.587       51.181        0.025        0.011       16.650        5.431        0.106      334.173        3.971      876.366
01/13/2014  20:03:00      -27.285        4.608       -0.292        5.054        6.994        5.721       25.541       48.922       32.730        0.044        0.005       27.672        3.488        0.016      334.152        3.938      876.373
01/13/2014  20:04:00      -25.287       -1.893        1.558        8.094        9.958        8.042       65.515       99.160       64.676        0.044        0.011       25.358        8.021        0.100      333.935        3.575      876.363
01/13/2014  20:05:00      -34.277      -12.203       -2.646        7.753        8.473        4.288       60.107       71.798       18.386        0.074        0.008       36.385        2.405        0.004      333.933        3.573      876.350
01/13/2014  20:06:00      -25.661      -26.262        0.300       12.812        7.621        6.583      164.139       58.076       43.340        0.081        0.013       36.717        2.677        0.005      334.186        3.992      876.343
01/13/2014  20:07:00       -9.847       -9.587       -2.415       21.310        8.856        9.703      454.105       78.435       94.146        0.041        0.031       13.743        4.905        0.127      334.217        4.045      876.365
01/13/2014  20:08:00      -23.023      -17.674       -6.009       20.824       16.752       10.907      433.629      280.640      118.955        0.086        0.042       29.025       12.835        0.196      334.255        4.107      876.394
01/13/2014  20:09:00      -12.541       11.754        6.184       16.579       16.922       11.613      274.851      286.369      134.873        0.051        0.035       17.188       11.584        0.454      334.327        4.229      876.430
01/13/2014  20:10:00        8.445       11.541        7.138       14.389        9.011        8.748      207.038       81.205       76.534        0.031        0.018       14.300        6.394        0.200      334.125        3.890      876.462
01/13/2014  20:11:00       14.830       15.839        9.474        8.306       11.264        7.315       68.983      126.882       53.511        0.040        0.012       21.698        6.046        0.078      334.015        3.708      876.489
01/13/2014  20:12:00       26.015       15.212        2.556       11.526        7.478        4.708      132.839       55.915       22.170        0.056        0.011       30.136        4.103        0.019      333.914        3.541      876.517
01/13/2014  20:13:00       -7.848       32.955       -6.605       15.869        7.503        6.089      251.819       56.290       37.081        0.077        0.017       33.877        8.029        0.056      333.920        3.552      876.537
01/13/2014  20:14:00      -22.004       14.097        3.816       11.355        6.020        7.773      128.934       36.238       60.420        0.046        0.011       26.132        5.822        0.050      334.161        3.953      876.549
01/13/2014  20:15:00      -40.120       21.177       -6.980       19.080       15.333        9.018      364.049      235.104       81.332        0.139        0.034       45.366        7.281        0.026      334.172        3.970      876.567
01/13/2014  20:16:00      -51.895       19.135      -10.611       10.272       15.524        7.433      105.520      240.995       55.253        0.179        0.020       55.310        3.194        0.003      334.028        3.729      876.573
01/13/2014  20:17:00      -52.245      -34.437      -12.469       14.163       14.446       11.059      200.586      208.677      122.298        0.230        0.027       62.573        7.832        0.016      333.576        2.982      876.564
01/13/2014  20:18:00      -59.742      -39.210      -14.355       15.229       14.840       11.572      231.930      220.240      133.913        0.295        0.029       71.460        5.304        0.006      333.271        2.475      876.542
01/13/2014  20:19:00      -76.906      -25.716      -14.401       26.418       18.766        8.546      697.917      352.148       73.037        0.395        0.056       81.091        9.647        0.014      333.332        2.577      876.545
01/13/2014  20:20:00      -98.572       -4.458      -18.532       18.665       16.081       11.143      348.382      258.588      124.158        0.541        0.037       98.673        6.700        0.005      333.530        2.905      876.565
01/13/2014  20:21:00      -66.071       -9.445      -18.266       10.787       11.997       14.046      116.361      143.917      197.288        0.262        0.023       66.743        9.633        0.021      333.395        2.682      876.603
01/13/2014  20:22:00      -76.144      -15.150      -18.020       11.112       13.545       11.802      123.469      183.471      139.287        0.340        0.022       77.636        7.196        0.009      333.464        2.796      876.632
01/13/2014  20:23:00      -85.485      -28.746      -13.171       11.902       13.234        9.884      141.652      175.132       97.684        0.436        0.021       90.189        5.760        0.004      333.507        2.866      876.642
01/13/2014  20:24:00      -89.957       -4.653      -21.208       14.532        9.117       10.183      211.177       83.127      103.699        0.448        0.020       90.078        6.110        0.005      333.677        3.147      876.648
01/13/2014  20:25:00      -70.183      -15.990      -10.146       10.175       13.562        9.858      103.529      183.914       97.180        0.283        0.019       71.981        7.160        0.010      333.641        3.089      876.662
01/13/2014  20:26:00      -62.992      -13.440      -14.009        8.639       10.024        7.560       74.627      100.485       57.160        0.229        0.012       64.409        6.006        0.009      333.647        3.099      876.680
01/13/2014  20:27:00      -71.729       -7.491       -9.762       11.589        6.854        3.933      134.299       46.977       15.467        0.275        0.010       72.119        3.785        0.003      333.731        3.239      876.710
01/13/2014  20:28:00      -44.969      -17.316      -13.643       13.217        6.176        5.294      174.682       38.143       28.030        0.137        0.012       48.188        5.450        0.013      333.661        3.121      876.725
01/13/2014  20:29:00      -60.063      -12.405       -8.629        9.246       11.014        5.184       85.483      121.310       26.870        0.203        0.012       61.331        4.682        0.006      333.550        2.936      876.722
01/13/2014  20:30:00      -72.423      -13.849      -10.092       16.183        8.960        8.261      261.897       80.273       68.241        0.297        0.021       73.735        5.148        0.005      333.477        2.816      876.734
01/13/2014  20:31:00     -109.825      -31.190      -16.394       14.340       10.356        6.553      205.621      107.253       42.940        0.683        0.018      114.168        4.468        0.002      333.545        2.931      876.755
01/13/2014  20:32:00     -101.166      -42.454       -9.068       14.655       10.245       10.038      214.765      104.959      100.759        0.627        0.021      109.713        6.056        0.003      333.537        2.917      876.766
01/13/2014  20:33:00     -107.902      -33.400       -9.052       16.070       13.347       11.660      258.253      178.131      135.957        0.671        0.029      112.953       10.183        0.008      333.517        2.882      876.758
01/13/2014  20:34:00     -123.769      -43.517      -10.849       13.599       16.217       10.926      184.942      262.994      119.387        0.895        0.028      131.197        8.009        0.004      333.481        2.823      876.744
01/13/2014  20:35:00     -149.038      -32.891      -14.257       30.464       18.750       13.747      928.042      351.565      188.978        1.248        0.073      152.624       12.081        0.006      333.219        2.389      876.716
01/13/2014  20:36:00     -159.825      -44.866       -9.654       28.013       23.325       16.622      784.736      544.042      276.296        1.463        0.080      166.003       13.261        0.006      333.040        2.095      876.684
01/13/2014  20:37:00     -150.845      -29.834      -11.239       30.615       27.893       21.477      937.300      778.010      461.270        1.297        0.109      153.766       14.536        0.009      332.884        1.837      876.664
01/13/2014  20:38:00     -135.332      -16.114      -10.163       39.264       30.194       20.666     1541.696      911.656      427.084        1.078        0.144      136.288       20.617        0.023      332.832        1.753      876.671
01/13/2014  20:39:00     -121.327       -7.013       -7.757       34.290       28.235       21.953     1175.770      797.241      481.926        0.864        0.123      121.529       20.580        0.029      333.082        2.165      876.693
01/13/2014  20:40:00     -116.985      -26.029       -5.115       30.289       23.521       20.563      917.438      553.257      422.837        0.814        0.095      119.845       18.092        0.023      333.118        2.223      876.709
01/13/2014  20:41:00     -112.676      -47.722       -4.015       22.484       27.322       16.527      505.529      746.516      273.129        0.826        0.076      122.366       10.238        0.007      333.096        2.187      876.701
01/13/2014  20:42:00     -121.691      -30.810      -11.455       36.103       36.374       18.317     1303.456     1323.100      335.502        0.943        0.148      125.531       20.794        0.027      333.098        2.190      876.683
01/13/2014  20:43:00     -128.974        3.150       -6.274       47.041       54.683       29.669     2212.866     2990.225      880.277        1.138        0.304      129.013       24.301        0.035      333.135        2.251      876.646
01/13/2014  20:44:00     -163.991       26.739      -12.558       61.904       47.666       30.576     3832.092     2272.079      934.898        1.740        0.352      166.157       29.748        0.032      333.191        2.342      876.618
01/13/2014  20:45:00     -205.298       66.228       -8.276       43.611       28.052       19.230     1901.920      786.890      369.809        2.483        0.153      215.716       10.339        0.002      333.193        2.345      876.606
01/13/2014  20:46:00     -173.271       26.227      -19.250       54.170       37.265       26.031     2934.414     1388.701      677.605        1.804        0.250      175.245       23.833        0.018      333.157        2.287      876.605
01/13/2014  20:47:00     -189.622       33.944      -15.604       49.035       40.189       21.615     2404.449     1615.127      467.210        2.092        0.224      192.636       21.705        0.013      333.294        2.514      876.625
01/13/2014  20:48:00     -130.045       19.313      -11.457       57.305       33.355       24.273     3283.808     1112.556      589.189        1.120        0.249      131.471       25.869        0.039      333.231        2.409      876.649
01/13/2014  20:49:00     -117.449       13.225      -11.897       57.079       28.314       19.037     3257.981      801.676      362.409        0.927        0.221      118.192       25.911        0.048      333.339        2.589      876.669
01/13/2014  20:50:00     -115.893       -5.480      -17.790       27.188       25.977       15.174      739.167      674.801      230.241        0.771        0.082      116.023        8.625        0.006      333.286        2.501      876.689
01/13/2014  20:51:00     -144.653       -5.396      -21.812       30.264       29.264       20.846      915.886      856.380      434.540        1.182        0.110      144.754       17.381        0.014      333.232        2.412      876.671
01/13/2014  20:52:00     -177.693      -13.114      -18.338       50.000       36.248       19.241     2500.043     1313.909      370.208        1.813        0.209      178.176       20.519        0.013      333.248        2.437      876.666
01/13/2014  20:53:00     -166.711      -15.695      -18.805       46.137       31.670       22.592     2128.592     1002.992      510.379        1.602        0.182      167.448       21.708        0.017      333.117        2.221      876.672
01/13/2014  20:54:00     -155.817       20.348      -23.042       31.632       34.117       19.432     1000.562     1164.000      377.594        1.388        0.127      157.140       12.411        0.006      333.198        2.356      876.696
01/13/2014  20:55:00     -114.809       16.033      -14.908       41.988       36.610       19.997     1763.009     1340.297      399.872        0.858        0.175      115.923       14.012        0.015      333.347        2.601      876.755
01/13/2014  20:56:00      -76.045       -7.620       -9.785       33.665       36.795       19.170     1133.362     1353.884      367.476        0.440        0.143       76.426       17.768        0.054      333.364        2.630      876.795
01/13/2014  20:57:00      -77.863       -7.053        2.384       36.373       35.344       20.425     1323.030     1249.175      417.169        0.455        0.149       78.181       16.580        0.045      333.320        2.558      876.833
01/13/2014  20:58:00      -39.922       -8.137        0.731       27.872       22.772       22.541      776.838      518.570      508.116        0.173        0.090       40.743       13.896        0.116      333.220        2.393      876.840
01/13/2014  20:59:00      -32.539      -16.413       -2.562       26.601       23.443       14.967      707.639      549.553      224.020        0.141        0.074       36.444       12.623        0.120      333.107        2.206      876.838
01/13/2014  21:00:00      -69.134      -15.212      -14.691       13.432       16.106        8.887      180.427      259.392       78.977        0.287        0.026       70.788        7.322        0.011      332.965        1.972      876.809
01/13/2014  21:01:00      -60.431      -36.608       -8.920       33.948       21.877       19.242     1152.483      478.599      370.254        0.354        0.100       70.655       20.824        0.087      332.994        2.020      876.801
01/13/2014  21:02:00     -121.278      -47.392       -8.620       22.866       27.170       18.651      522.838      738.185      347.872        0.932        0.080      130.209        8.360        0.004      332.853        1.787      876.801
01/13/2014  21:03:00     -119.524      -53.684      -10.928       39.347       31.285       17.137     1548.151      978.760      293.687        1.005        0.141      131.026       15.042        0.013      332.885        1.839      876.820
01/13/2014  21:04:00     -107.002      -38.471       -8.950       34.271       29.840       18.585     1174.474      890.453      345.395        0.771        0.121      113.708       16.640        0.021      332.889        1.846      876.852
01/13/2014  21:05:00     -104.786      -40.650      -12.518       23.833       26.248       18.260      568.028      688.956      333.423        0.719        0.080      112.395       13.242        0.014      332.914        1.887      876.871
01/13/2014  21:06:00      -99.107      -43.509       -8.096       36.205       22.691       20.153     1310.812      514.868      406.144        0.701        0.112      108.237        6.775        0.004      332.959        1.961      876.878
01/13/2014  21:07:00      -85.425      -30.085       -6.518       57.335       39.414       22.554     3287.340     1553.478      508.683        0.680        0.267       90.568       20.899        0.053      332.917        1.891      876.886
01/13/2014  21:08:00      -49.273       -3.996       -5.988       29.517       33.798       22.842      871.240     1142.287      521.780        0.251        0.127       49.435       16.778        0.115      333.074        2.151      876.883
01/13/2014  21:09:00      -91.943       -7.333       -9.803       57.902       35.674       23.029     3352.646     1272.670      530.342        0.688        0.258       92.235       20.416        0.049      333.068        2.141      876.882
01/13/2014  21:10:00     -107.185       25.621      -11.166       55.297       42.725       27.768     3057.749     1825.394      771.047        0.896        0.283      110.205       21.377        0.038      333.053        2.116      876.905
01/13/2014  21:11:00     -100.526       26.731      -11.881       42.649       42.419       23.144     1818.954     1799.411      535.622        0.756        0.208      104.019       14.422        0.019      333.091        2.180      876.943
01/13/2014  21:12:00     -132.318        0.750      -13.187       45.237       34.638       23.386     2046.399     1199.791      546.905        1.074        0.190      132.321       21.198        0.026      333.208        2.373      876.964
01/13/2014  21:13:00     -138.707       -7.123       -8.154       55.720       34.099       25.573     3104.674     1162.753      653.958        1.214        0.246      138.889       27.442        0.039      333.047        2.108      876.974
01/13/2014  21:14:00     -165.813       -0.540      -14.188       65.530       32.938       21.711     4294.125     1084.927      471.352        1.677        0.293      165.813       26.338        0.025      332.897        1.859      876.973
01/13/2014  21:15:00     -184.327       13.230      -22.442       22.192       26.837       19.124      492.472      720.238      365.743        1.812        0.079      184.801       14.273        0.006      332.912        1.884      876.973
01/13/2014  21:16:00     -172.310       -0.378      -17.374       30.768       41.867       26.355      946.662     1752.828      694.568        1.669        0.170      172.310       15.475        0.008      332.925        1.906      876.975
01/13/2014  21:17:00     -137.295        7.155       -6.523       44.642       37.755       26.806     1992.885     1425.408      718.545        1.154        0.207      137.481       23.218        0.029      332.916        1.889      876.989
01/13/2014  21:18:00     -139.729       43.582      -10.875       50.892       41.106       29.535     2589.994     1689.703      872.325        1.335        0.258      146.368       26.762        0.033      333.136        2.253      877.006
01/13/2014  21:19:00     -100.242       40.718       -2.845       60.458       33.651       35.722     3655.148     1132.356     1276.031        0.889        0.303      108.196       32.845        0.092      333.196        2.352      877.006
01/13/2014  21:20:00     -113.161       43.819      -17.810       50.481       28.342       23.218     2548.339      803.297      539.098        0.947        0.195      121.349        7.654        0.004      333.371        2.642      877.000
01/13/2014  21:21:00      -99.429       14.498       -5.457       48.272       31.103       22.314     2330.191      967.424      497.904        0.696        0.190      100.480       11.938        0.014      333.304        2.530      877.000
01/13/2014  21:22:00      -97.413       20.939      -15.637       51.926       39.584       24.986     2696.312     1566.880      624.299        0.753        0.244       99.638       22.129        0.049      333.401        2.691      876.997
01/13/2014  21:23:00      -98.017       39.641      -26.457       49.079       41.645       29.497     2408.747     1734.340      870.059        0.844        0.251      105.729       16.804        0.025      333.244        2.432      876.979
01/13/2014  21:24:00      -75.695       31.019      -16.073       50.307       43.350       24.026     2530.757     1879.258      577.269        0.597        0.249       81.804       20.643        0.064      333.238        2.420      876.968
01/13/2014  21:25:00     -111.601       45.652      -15.807       52.806       36.785       28.911     2788.482     1353.116      835.829        0.988        0.249      120.577       16.169        0.018      333.288        2.503      876.971
01/13/2014  21:26:00     -104.114       46.657       -5.756       49.844       29.891       21.346     2484.416      893.467      455.661        0.844        0.192      114.090       17.214        0.023      333.172        2.314      876.997
01/13/2014  21:27:00      -62.931       31.499       -8.471       32.249       31.956       23.345     1040.009     1021.208      544.994        0.381        0.130       70.374       19.322        0.075      333.168        2.306      877.029
01/13/2014  21:28:00      -98.339        0.900       -9.574       44.246       35.789       21.579     1957.685     1280.832      465.639        0.673        0.185       98.343       16.517        0.028      333.163        2.297      877.056
01/13/2014  21:29:00     -104.335       -7.922       -5.932       31.603       26.866       18.126      998.768      721.784      328.569        0.652        0.102      104.636       17.156        0.027      333.030        2.078      877.073
01/13/2014  21:30:00      -66.031      -37.902       -6.272       28.800       30.338       17.990      829.430      920.383      323.628        0.395        0.104       76.136       11.630        0.023      333.024        2.068      877.092
01/13/2014  21:31:00      -61.755      -26.617        4.689       30.932       28.341       16.054      956.785      803.211      257.744        0.328        0.101       67.247       17.663        0.069      332.974        1.986      877.128
01/13/2014  21:32:00      -77.557      -20.901       -4.724       37.828       23.374       17.909     1430.944      546.355      320.730        0.439        0.115       80.324       19.169        0.057      333.140        2.258      877.155
01/13/2014  21:33:00      -52.714      -58.786        4.727       25.040       31.746       18.727      626.991     1007.814      350.688        0.412        0.099       78.959       15.222        0.037      333.206        2.369      877.156
01/13/2014  21:34:00      -98.365      -68.049       -6.500       32.765       17.942       17.689     1073.518      321.904      312.896        0.803        0.085      119.609       12.495        0.011      333.192        2.345      877.151
01/13/2014  21:35:00      -83.333      -54.734        7.160       55.182       34.925       23.491     3045.006     1219.738      551.837        0.740        0.241       99.701       21.765        0.048      333.080        2.160      877.153
01/13/2014  21:36:00      -96.425      -67.988        4.925       45.536       37.506       28.143     2073.484     1406.719      792.001        0.911        0.214      117.983       24.990        0.045      333.026        2.072      877.146
01/13/2014  21:37:00     -144.102     -101.580        3.984       65.929       39.295       30.590     4346.574     1544.097      935.767        1.896        0.341      176.306       34.283        0.038      332.954        1.953      877.138
01/13/2014  21:38:00     -135.920      -82.838        2.267       66.821       53.200       33.928     4465.042     2830.281     1151.140        1.689        0.422      159.174       35.929        0.051      332.913        1.885      877.141
01/13/2014  21:39:00     -117.421      -84.375        0.291       57.630       42.817       27.997     3321.260     1833.334      783.834        1.342        0.297      144.592       26.447        0.033      332.898        1.860      877.167
01/13/2014  21:40:00     -137.747      -96.968       -3.241       51.219       50.282       31.640     2623.345     2528.259     1001.078        1.727        0.308      168.455       33.611        0.040      332.923        1.900      877.197
01/13/2014  21:41:00     -115.790      -84.296        9.734       68.011       46.018       31.865     4625.434     2117.652     1015.359        1.418        0.388      143.224       37.662        0.069      333.004        2.035      877.219
01/13/2014  21:42:00     -169.305      -90.964       -1.490       44.191       35.925       26.143     1952.819     1290.618      683.465        2.043        0.196      192.194       24.235        0.016      332.993        2.018      877.224
01/13/2014  21:43:00     -187.878     -112.691       -6.444       47.334       36.743       30.644     2240.494     1350.043      939.069        2.628        0.226      219.083       27.163        0.015      333.018        2.056      877.210
01/13/2014  21:44:00     -147.577     -115.729       -3.335       57.440       50.489       33.143     3299.406     2549.183     1098.480        2.106        0.347      187.542       27.767        0.022      332.970        1.977      877.173
01/13/2014  21:45:00     -193.539      -69.017      -16.135       42.371       43.674       24.488     1795.269     1907.389      599.678        2.339        0.215      205.476       19.455        0.009      332.955        1.953      877.145
01/13/2014  21:46:00     -175.498      -33.807       -0.720       59.507       48.875       32.249     3541.123     2388.781     1039.990        1.945        0.348      178.724       31.744        0.032      332.987        2.005      877.154
01/13/2014  21:47:00     -162.423      -72.143        1.285       52.125       56.685       33.857     2716.980     3213.185     1146.295        1.933        0.354      177.724       33.225        0.035      332.968        1.975      877.181
01/13/2014  21:48:00     -145.292      -68.379       -5.037       42.962       49.017       22.331     1845.770     2402.659      498.656        1.528        0.237      160.578       21.128        0.017      332.950        1.946      877.225
01/13/2014  21:49:00     -182.990      -32.556       -8.398       49.589       34.000       24.875     2459.093     1155.973      618.743        1.942        0.212      185.863       26.185        0.020      332.838        1.760      877.261
01/13/2014  21:50:00     -199.931      -62.601        5.367       52.496       46.426       29.917     2755.792     2155.410      895.021        2.486        0.290      209.502       30.295        0.021      332.933        1.915      877.274
01/13/2014  21:51:00     -242.604      -77.673       -7.552       39.553       33.284       22.676     1564.433     1107.838      514.220        3.407        0.159      254.735       15.712        0.004      332.969        1.973      877.251
01/13/2014  21:52:00     -215.619      -77.624       -8.628       41.215       38.846       24.709     1698.702     1509.016      610.540        2.820        0.191      229.166       20.236        0.008      332.873        1.814      877.228
01/13/2014  21:53:00     -186.243      -52.227      -10.133       59.677       47.107       31.953     3561.348     2219.074     1021.020        2.216        0.340      193.427       34.269        0.031      332.925        1.903      877.204
01/13/2014  21:54:00     -176.831      -59.677       -0.873       49.143       46.978       28.003     2415.080     2206.915      784.185        2.012        0.270      186.630       21.550        0.013      332.981        1.996      877.213
01/13/2014  21:55:00     -158.905      -52.281       -0.490       55.720       38.948       25.657     3104.728     1516.914      658.272        1.663        0.264      167.285       25.213        0.023      333.075        2.152      877.224
01/13/2014  21:56:00     -108.179      -48.351       -0.975       45.472       30.986       22.650     2067.666      960.146      513.037        0.879        0.177      118.493       23.076        0.038      333.153        2.282      877.239
01/13/2014  21:57:00      -99.576      -44.324       -1.637       39.148       21.211       14.122     1532.560      449.921      199.425        0.703        0.109      108.995       15.658        0.021      333.231        2.409      877.260
01/13/2014  21:58:00      -83.758      -44.101       -5.324       19.296       13.539       10.256      372.346      183.313      105.187        0.482        0.033       94.659        8.792        0.009      333.281        2.492      877.284
01/13/2014  21:59:00      -90.693      -42.541      -12.187       12.573       13.508       12.415      158.075      182.474      154.135        0.534        0.025      100.174        4.674        0.002      333.246        2.434      877.295
01/13/2014  22:00:00      -97.464      -37.981      -11.706       12.080       17.604        9.275      145.933      309.904       86.026        0.581        0.027      104.603        3.341        0.001      333.175        2.318      877.280
01/13/2014  22:01:00     -103.407      -25.184       -0.449       31.644       23.227       13.860     1001.342      539.481      192.089        0.653        0.087      106.429       15.207        0.020      333.184        2.332      877.251
01/13/2014  22:02:00      -80.258      -29.072        1.096       25.300       18.801       14.936      640.093      353.465      223.090        0.425        0.061       85.361       12.732        0.022      333.132        2.246      877.235
01/13/2014  22:03:00      -53.643      -15.544        0.046       23.413       13.299       10.918      548.155      176.872      119.198        0.198        0.042       55.849        8.435        0.023      333.118        2.222      877.246
01/13/2014  22:04:00      -30.217       -7.200       -0.906       17.776       13.523        7.091      315.971      182.873       50.287        0.076        0.027       31.063        6.093        0.038      333.315        2.549      877.271
01/13/2014  22:05:00       -6.180        3.155        1.034       13.455       10.672        6.135      181.040      113.892       37.642        0.019        0.017        6.939        5.345        0.593      333.452        2.777      877.299
01/13/2014  22:06:00       10.883        6.419        4.251       16.166        7.223        6.034      261.335       52.169       36.410        0.026        0.017       12.635        3.840        0.092      333.509        2.869      877.302
01/13/2014  22:07:00        5.142        7.694       19.165       13.458        8.128       10.068      181.128       66.067      101.374        0.040        0.017        9.255        6.554        0.501      333.139        2.258      877.300
01/13/2014  22:08:00       14.818      -27.919       -1.353       13.204       22.906       13.502      174.335      524.694      182.293        0.094        0.044       31.608       15.267        0.233      333.239        2.423      877.286
01/13/2014  22:09:00      -20.583      -27.354        0.529       16.261        8.875       11.391      264.435       78.768      129.755        0.082        0.024       34.233        9.503        0.077      333.095        2.187      877.264
01/13/2014  22:10:00      -68.485      -29.659       -0.866       23.138       19.354       15.361      535.346      374.583      235.961        0.336        0.057       74.631       11.915        0.025      332.592        1.354      877.252
01/13/2014  22:11:00      -59.200      -37.594       -2.395       20.198       19.633       16.716      407.952      385.445      279.415        0.300        0.054       70.128       11.840        0.029      332.813        1.719      877.241
01/13/2014  22:12:00      -80.451      -50.076       -6.404       25.997       27.338       17.125      675.848      747.387      293.259        0.537        0.086       94.763       12.000        0.016      332.839        1.762      877.236
01/13/2014  22:13:00     -109.633      -68.710       -3.928       45.586       45.674       24.765     2078.074     2086.158      613.308        1.077        0.239      129.385       20.276        0.025      332.718        1.563      877.246
01/13/2014  22:14:00     -125.088      -63.067        2.830       58.048       34.936       28.045     3369.567     1220.529      786.514        1.250        0.269      140.087       24.142        0.030      332.623        1.405      877.252
01/13/2014  22:15:00     -129.140      -71.746        3.234       51.850       29.067       23.682     2688.371      844.885      560.814        1.296        0.205      147.732       19.953        0.018      332.594        1.357      877.271
01/13/2014  22:16:00     -129.771      -56.537        0.653       37.210       33.291       23.028     1384.578     1108.324      530.309        1.153        0.151      141.552       20.299        0.021      332.548        1.281      877.285
01/13/2014  22:17:00     -129.545      -46.818        0.838       33.030       30.546       20.370     1090.999      933.068      414.946        1.071        0.122      137.745       18.782        0.019      332.553        1.289      877.282
01/13/2014  22:18:00      -96.333      -58.887        0.570       42.610       38.110       21.152     1815.607     1452.338      447.395        0.823        0.186      112.906       17.667        0.024      332.591        1.353      877.276
01/13/2014  22:19:00      -77.707      -37.935        8.175       48.537       31.550       20.245     2355.874      995.415      409.877        0.565        0.188       86.473       19.907        0.053      332.552        1.289      877.291
01/13/2014  22:20:00      -55.841      -17.320       -0.753       35.643       24.494       19.297     1270.404      599.963      372.375        0.283        0.112       58.466       15.801        0.073      332.556        1.296      877.307
01/13/2014  22:21:00      -53.709      -18.793       -2.464       25.184       23.896       14.810      634.255      571.041      219.324        0.233        0.071       56.902        8.774        0.024      332.560        1.301      877.330
01/13/2014  22:22:00      -52.517      -32.541       -5.714       29.758       17.966       11.328      885.559      322.775      128.327        0.259        0.067       61.782       10.720        0.030      332.621        1.402      877.351
01/13/2014  22:23:00      -62.598      -23.583        4.827       23.445       18.398       12.427      549.670      338.487      154.422        0.277        0.052       66.893        9.420        0.020      332.611        1.388      877.360
01/13/2014  22:24:00      -59.214      -25.530        6.042       27.174       21.318       15.665      738.419      454.467      245.395        0.282        0.072       64.483        8.989        0.019      332.515        1.228      877.352
01/13/2014  22:25:00      -79.914      -46.610        2.914       35.305       27.909       20.291     1246.415      778.884      411.732        0.550        0.122       92.514       14.537        0.025      332.451        1.121      877.346
01/13/2014  22:26:00      -90.271      -48.670        0.749       35.996       26.403       13.710     1295.680      697.110      187.975        0.635        0.109      102.556       13.680        0.018      332.438        1.101      877.355
01/13/2014  22:27:00      -73.035      -24.966        1.924       29.270       28.642       18.727      856.742      820.362      350.683        0.399        0.101       77.184       17.659        0.052      332.417        1.065      877.368
01/13/2014  22:28:00      -96.007      -35.208       -0.611       25.063       25.763       11.746      628.134      663.744      137.975        0.594        0.071      102.260       11.366        0.012      332.387        1.017      877.385
01/13/2014  22:29:00      -98.070      -29.195       -6.259       12.592       15.290       10.305      158.551      233.794      106.189        0.550        0.025      102.324        5.381        0.003      332.356        0.963      877.392
01/13/2014  22:30:00      -91.034      -39.794       -1.342       21.873       15.318       11.382      478.441      234.651      129.554        0.536        0.042       99.351       11.638        0.014      332.379        1.003      877.398
01/13/2014  22:31:00      -70.675      -42.246       -4.519       23.084       17.219        8.870      532.856      296.509       78.682        0.385        0.045       82.339        8.205        0.010      332.366        0.982      877.399
01/13/2014  22:32:00      -66.858      -22.497       -5.866       15.338       12.162        7.634      235.259      147.921       58.280        0.273        0.022       70.542        5.046        0.005      332.374        0.995      877.395
01/13/2014  22:33:00      -43.669      -33.865       -3.878       22.487       13.661        7.959      505.676      186.616       63.354        0.191        0.038       55.261        6.252        0.013      332.401        1.037      877.388
01/13/2014  22:34:00      -31.117      -30.355       -0.750       19.139       12.591       14.562      366.299      158.527      212.053        0.131        0.037       43.471       12.328        0.080      332.436        1.097      877.379
01/13/2014  22:35:00      -51.011      -35.942       -1.243       22.555       24.237       15.167      508.715      587.449      230.048        0.261        0.066       62.402       13.259        0.045      332.399        1.034      877.367
01/13/2014  22:36:00      -61.953      -23.914       -7.717       36.998       18.972       11.463     1368.832      359.927      131.405        0.316        0.093       66.408       10.274        0.024      332.339        0.938      877.355
01/13/2014  22:37:00      -98.163      -35.033       -5.695       19.358       23.551       13.711      374.720      554.648      187.979        0.601        0.056      104.227       10.181        0.010      332.192        0.697      877.353
01/13/2014  22:38:00     -109.227      -27.000      -12.577       25.235       27.559       12.943      636.797      759.525      167.527        0.719        0.078      112.515       11.418        0.010      332.171        0.660      877.361
01/13/2014  22:39:00     -105.477      -30.519      -19.868       22.803       20.226       14.280      519.957      409.088      203.920        0.679        0.057      109.803        7.050        0.004      332.185        0.685      877.368
01/13/2014  22:40:00     -118.106      -47.923      -10.027       21.187       24.488       10.779      448.904      599.661      116.184        0.876        0.058      127.458        6.757        0.003      332.135        0.601      877.379
01/13/2014  22:41:00      -95.905      -55.874        0.252       33.701       18.653       13.810     1135.762      347.948      190.726        0.700        0.084      110.994       15.249        0.019      332.120        0.577      877.395
01/13/2014  22:42:00     -138.244      -22.347       -9.496       26.665       23.938       17.527      711.019      573.020      307.184        1.065        0.080      140.038       15.391        0.012      332.110        0.560      877.405
01/13/2014  22:43:00     -107.063      -22.243       -2.549       26.644       19.682       15.441      709.889      387.376      238.421        0.665        0.067      109.350       13.130        0.014      332.164        0.650      877.407
01/13/2014  22:44:00      -95.940      -23.530       -8.916       23.620       21.055       14.910      557.912      443.319      222.306        0.553        0.061       98.783       12.964        0.017      332.179        0.672      877.403
01/13/2014  22:45:00     -115.921      -26.188      -13.008       32.473       16.167       13.199     1054.473      261.385      174.214        0.789        0.075      118.842       13.231        0.012      332.142        0.611      877.399
01/13/2014  22:46:00     -144.900      -45.060      -10.427       16.483       14.618       10.531      271.676      213.693      110.895        1.187        0.030      151.745        8.067        0.003      332.053        0.466      877.412
01/13/2014  22:47:00     -136.099      -33.143      -15.142       25.241       23.077       12.699      637.092      532.571      161.268        1.059        0.067      140.077        7.896        0.003      331.974        0.335      877.437
01/13/2014  22:48:00     -101.648      -30.360      -16.430       22.036       14.374        8.918      485.584      206.607       79.524        0.615        0.039      106.085        6.871        0.004      331.935        0.270      877.474
01/13/2014  22:49:00        8.314      -24.425        4.187       19.382       19.458       15.857      375.673      378.605      251.435        0.084        0.050       25.801       13.732        0.283      332.044        0.451      877.518
01/13/2014  22:50:00        6.929      -10.119       16.942       18.808       36.274       22.091      353.738     1315.814      488.014        0.130        0.108       12.264       26.841        4.790      332.212        0.727      877.559
01/13/2014  22:51:00       -4.345       11.789       24.911        6.435       10.657        6.997       41.416      113.578       48.963        0.049        0.010       12.565        5.993        0.228      332.170        0.658      877.583
01/13/2014  22:52:00        6.084        6.358       24.230       10.968       10.935        8.320      120.293      119.575       69.227        0.049        0.015        8.800        5.802        0.435      332.162        0.644      877.597
01/13/2014  22:53:00       -0.492      -12.296       13.003        7.978       16.611        9.610       63.641      275.921       92.349        0.038        0.022       12.305        9.106        0.548      332.324        0.911      877.589
01/13/2014  22:54:00       -9.079      -19.841        3.450       10.594       11.907       10.581      112.232      141.782      111.964        0.043        0.018       21.820        7.649        0.123      332.289        0.854      877.564
01/13/2014  22:55:00      -20.606      -16.844       -0.815       11.621       14.959        6.049      135.045      223.758       36.590        0.055        0.020       26.614        4.976        0.035      332.247        0.785      877.557
01/13/2014  22:56:00      -24.566       -5.433       -0.055        8.493        5.501        4.556       72.127       30.256       20.753        0.038        0.006       25.159        2.850        0.013      332.191        0.694      877.547
01/13/2014  22:57:00       -5.510       -0.803       -0.279        5.542        2.645        3.522       30.715        6.997       12.404        0.004        0.003        5.568        1.906        0.117      332.141        0.611      877.539
01/13/2014  22:58:00      -29.925        7.422       -0.333        9.830        6.575        3.849       96.624       43.237       14.814        0.055        0.008       30.831        3.426        0.012      332.171        0.660      877.520
01/13/2014  22:59:00      -68.565        7.071       -6.600       12.220        7.107        6.862      149.339       50.514       47.086        0.252        0.012       68.929        4.569        0.004      332.127        0.588      877.489
01/13/2014  23:00:00      -83.379       -2.948       -9.994       10.884       10.479        6.883      118.464      109.805       47.371        0.367        0.014       83.432        6.105        0.005      332.116        0.570      877.451
01/13/2014  23:01:00      -60.483       -8.109       -3.856       11.796        9.027        6.921      139.156       81.489       47.902        0.200        0.013       61.024        5.091        0.007      332.134        0.599      877.438
01/13/2014  23:02:00      -13.251       -2.105       -1.095       15.131        4.717        3.668      228.950       22.247       13.454        0.022        0.013       13.417        1.831        0.019      332.065        0.485      877.464
01/13/2014  23:03:00       11.829        6.743        8.040       14.301        9.560       11.311      204.511       91.385      127.929        0.034        0.021       13.616        8.602        0.399      332.177        0.671      877.500
01/13/2014  23:04:00       17.904       18.710       12.411       15.625       12.764       12.762      244.147      162.923      162.861        0.070        0.028       25.896       11.728        0.205      332.173        0.664      877.532
01/13/2014  23:05:00       -0.970       16.460       27.010        8.645       11.653        8.520       74.741      135.795       72.594        0.064        0.014       16.489        5.163        0.098      332.148        0.623      877.559
01/13/2014  23:06:00       20.405       22.771       15.679       13.403        9.429        9.938      179.649       88.899       98.754        0.077        0.018       30.576        8.262        0.073      332.130        0.593      877.578
01/13/2014  23:07:00       16.546       10.217        5.279       11.269        9.676        5.863      126.999       93.626       34.379        0.033        0.013       19.447        3.946        0.041      332.098        0.541      877.588
01/13/2014  23:08:00        7.333       14.056        8.346        8.672        9.131        8.271       75.200       83.383       68.409        0.027        0.011       15.854        1.694        0.011      332.057        0.474      877.594
01/13/2014  23:09:00       -3.449       15.976       -5.405        8.944        7.527        6.867       80.001       56.662       47.160        0.024        0.009       16.344        5.056        0.096      331.984        0.353      877.596
01/13/2014  23:10:00      -19.398        1.427        2.505        7.605        5.525        5.012       57.836       30.526       25.117        0.025        0.006       19.450        4.485        0.053      332.030        0.429      877.600
01/13/2014  23:11:00      -24.129       -7.022       -4.697        6.700        4.621        5.697       44.889       21.356       32.456        0.038        0.005       25.130        4.010        0.025      331.991        0.365      877.605
01/13/2014  23:12:00      -12.474        4.726       -0.933        5.255        6.358        4.054       27.617       40.420       16.437        0.013        0.004       13.339        2.370        0.032      332.002        0.382      877.610
01/13/2014  23:13:00      -30.259       16.658       -1.973        7.913        6.992        6.503       62.619       48.889       42.290        0.068        0.008       34.541        2.720        0.006      332.107        0.555      877.618
01/13/2014  23:14:00      -15.407       19.072       10.073       21.567        6.787        5.819      465.120       46.063       33.855        0.062        0.027       24.518        6.683        0.074      332.069        0.492      877.614
01/13/2014  23:15:00        4.817       21.456       -3.362        8.241       14.446        6.095       67.913      208.677       37.155        0.040        0.016       21.990        5.740        0.068      332.086        0.520      877.620
01/13/2014  23:16:00       20.853       31.197       -1.866       15.033       12.062        8.604      225.992      145.487       74.030        0.093        0.022       37.525        9.265        0.061      332.067        0.490      877.622
01/13/2014  23:17:00       23.654       16.642        7.333       19.371       11.449       13.071      375.250      131.073      170.861        0.078        0.034       28.921        9.333        0.104      332.034        0.436      877.620
01/13/2014  23:18:00       35.890       21.513        8.345       12.757       10.686        7.598      162.745      114.188       57.735        0.108        0.017       41.844        2.948        0.005      332.037        0.439      877.621
01/13/2014  23:19:00       33.129       17.999       -1.628        9.964       10.069        9.249       99.290      101.383       85.547        0.086        0.014       37.703        7.760        0.042      332.026        0.423      877.626
01/13/2014  23:20:00       17.654       28.719       -4.989       12.495        8.886        6.067      156.136       78.954       36.810        0.072        0.014       33.711        5.903        0.031      332.007        0.389      877.619
01/13/2014  23:21:00       15.261       24.054       -4.358       12.970       12.584        7.490      168.218      158.346       56.106        0.061        0.019       28.487        7.154        0.063      332.040        0.444      877.597
01/13/2014  23:22:00       24.814       22.580        0.316       12.870       17.077       11.699      165.650      291.625      136.862        0.086        0.030       33.550        8.092        0.058      332.076        0.505      877.571
01/13/2014  23:23:00       48.632       28.624        3.946       14.729       10.214        8.455      216.952      104.326       71.480        0.180        0.020       56.430        4.887        0.008      332.141        0.611      877.561
01/13/2014  23:24:00       54.057       34.650        5.457       11.315        7.887        6.200      128.037       62.212       38.443        0.219        0.011       64.208        4.646        0.005      332.192        0.696      877.558
01/13/2014  23:25:00       34.036       39.362       -6.438       15.522       13.711       11.691      240.948      187.996      136.689        0.166        0.028       52.037        9.171        0.031      332.228        0.754      877.572
01/13/2014  23:26:00        6.853       58.987       -9.994       11.606        8.305        6.489      134.708       68.974       42.112        0.194        0.012       59.384        5.751        0.009      332.314        0.896      877.576
01/13/2014  23:27:00      -10.070       44.129       -5.478       12.126       17.548        6.443      147.051      307.947       41.508        0.129        0.025       45.264        5.600        0.015      332.368        0.985      877.558
01/13/2014  23:28:00      -26.287      -23.678       -8.687       12.550       11.875        7.604      157.502      141.024       57.818        0.084        0.018       35.378        6.979        0.039      331.924        0.253      877.538
01/13/2014  23:29:00      -12.322      -16.812       -2.216       16.658       14.636       10.530      277.491      214.216      110.877        0.052        0.030       20.844        7.109        0.116      331.902        0.218      877.527
01/13/2014  23:30:00       13.961       20.285        1.479       22.737       17.001       17.597      516.958      289.045      309.655        0.086        0.056       24.625       16.635        0.456      332.178        0.672      877.537
01/13/2014  23:31:00        4.958        3.198       11.791        8.148        5.494       10.569       66.394       30.179      111.707        0.019        0.010        5.900        5.551        0.885      332.163        0.646      877.560
01/13/2014  23:32:00       11.065        7.676        5.855       10.684        6.103        9.863      114.140       37.243       97.277        0.023        0.012       13.467        8.600        0.408      332.153        0.631      877.568
01/13/2014  23:33:00       32.285       34.188        1.794       13.695       13.636        8.144      187.564      185.944       66.328        0.133        0.022       47.022        5.991        0.016      332.290        0.856      877.576
01/13/2014  23:34:00       35.222       35.705        6.217        9.295        8.645       11.198       86.397       74.732      125.389        0.142        0.014       50.155        7.259        0.021      332.319        0.902      877.575
01/13/2014  23:35:00       21.695       15.352        6.473       14.507        5.807        6.488      210.463       33.723       42.098        0.052        0.014       26.577        5.801        0.048      332.287        0.850      877.571
01/13/2014  23:36:00       -6.369       24.647       -0.937        7.849       14.203        5.637       61.602      201.733       31.773        0.047        0.015       25.457        6.808        0.072      332.363        0.976      877.566
01/13/2014  23:37:00      -35.418        1.447       -5.995       21.784       16.287        6.730      474.552      265.268       45.287        0.104        0.039       35.447        4.425        0.016      332.015        0.404      877.563
01/13/2014  23:38:00      -69.277       -8.843      -14.364       13.326        9.537        7.349      177.576       90.960       54.004        0.270        0.016       69.839        6.201        0.008      331.833        0.103      877.554
01/13/2014  23:39:00      -94.246       -8.754      -11.631       23.465       10.189       10.689      550.600      103.821      114.264        0.493        0.038       94.652        9.483        0.010      331.876        0.174      877.552
01/13/2014  23:40:00     -115.334       -0.125      -15.848        6.357        6.486        6.054       40.407       42.069       36.657        0.684        0.006      115.334        3.405        0.001      331.822        0.087      877.549
01/13/2014  23:41:00     -113.512       -4.720      -17.335       25.894       11.971       10.309      670.486      143.301      106.272        0.706        0.046      113.610       13.127        0.013      331.680       -0.147      877.530
01/13/2014  23:42:00     -138.251      -31.991      -20.810       13.110       13.126        9.246      171.883      172.296       85.494        1.050        0.021      141.904        4.684        0.001      331.605       -0.272      877.494
01/13/2014  23:43:00     -121.120      -38.658      -11.970       29.473       20.819       13.250      868.638      433.439      175.569        0.889        0.074      127.140       14.239        0.013      331.542       -0.376      877.461
01/13/2014  23:44:00     -132.741      -22.024      -13.271       27.272       17.311       18.120      743.757      299.665      328.328        0.983        0.069      134.556       13.712        0.010      331.456       -0.517      877.436
01/13/2014  23:45:00     -121.115       -8.332       -7.374       39.157       18.829       23.757     1533.272      354.523      564.382        0.862        0.123      121.401       23.189        0.036      331.502       -0.443      877.427
01/13/2014  23:46:00     -101.916      -11.993       -2.853       39.017       23.463       21.793     1522.297      550.500      474.928        0.654        0.127      102.619       23.479        0.052      331.634       -0.224      877.413
01/13/2014  23:47:00     -101.310       -2.077      -11.442       43.608       28.040       21.696     1901.674      786.247      470.730        0.678        0.158      101.332       16.765        0.027      331.636       -0.222      877.407
01/13/2014  23:48:00     -129.118       13.225      -10.604       40.869       22.891       17.911     1670.240      523.983      320.814        0.974        0.126      129.794       14.272        0.012      331.742       -0.047      877.405
01/13/2014  23:49:00     -154.664        8.510      -10.942       24.247       17.327       16.757      587.914      300.240      280.795        1.264        0.058      154.898       14.419        0.009      331.764       -0.010      877.403
01/13/2014  23:50:00     -154.546        0.612      -16.644       21.953       26.073       14.140      481.954      679.780      199.940        1.276        0.068      154.547        6.723        0.002      331.704       -0.109      877.405
01/13/2014  23:51:00     -146.025      -15.625      -14.522       24.818       21.323       15.165      615.921      454.651      229.992        1.154        0.065      146.858        7.676        0.003      331.714       -0.093      877.390
01/13/2014  23:52:00     -142.533        3.857       -8.438       32.687       32.110       20.925     1068.448     1031.070      437.848        1.147        0.127      142.585       17.200        0.015      331.724       -0.077      877.374
01/13/2014  23:53:00     -174.233        9.319      -20.902       43.592       30.766       24.699     1900.249      946.541      610.045        1.717        0.173      174.482       21.821        0.016      331.792        0.035      877.372
01/13/2014  23:54:00     -128.152       -2.359      -13.897       38.424       27.275       20.681     1476.400      743.900      427.701        0.963        0.132      128.174       20.336        0.025      331.715       -0.090      877.387
01/13/2014  23:55:00      -96.440      -18.264      -13.553       37.962       28.454       20.569     1441.090      809.638      423.078        0.625        0.134       98.154       21.211        0.047      331.661       -0.181      877.403
01/13/2014  23:56:00      -78.897      -41.331      -11.161       13.891       18.933        9.223      192.969      358.454       85.070        0.435        0.032       89.067        4.981        0.003      331.785        0.024      877.411
01/13/2014  23:57:00      -40.736      -32.848       -1.170       23.089       16.562       10.310      533.082      274.303      106.301        0.183        0.046       52.330       10.941        0.044      331.977        0.341      877.407
01/13/2014  23:58:00      -60.369      -25.965        2.729       28.230       18.863       12.638      796.961      355.816      159.715        0.282        0.066       65.716        8.874        0.018      332.047        0.456      877.397
01/13/2014  23:59:00      -88.573      -43.290       -4.776       19.238       14.834       12.488      370.103      220.057      155.955        0.524        0.037       98.586        9.678        0.010      332.025        0.419      877.399
